     2              OBSERVATION DATA    GPS                 RINEX VERSION / TYPE
teqc 1999Jul19 19991123 02:43:24UTC                         PGM / RUN BY / DATE
                                                            COMMENT
Original Marker Name: 0205                                  COMMENT
Campaign Name: HPGN 1991                                    COMMENT
4-Character Station Name: 0205                              COMMENT
6-Character Antenna Code: TRMSST                            COMMENT
Vertical Measurement Point: BPA                             COMMENT
Vertical Offset to Rinex Ref. Point: 0.0000                 COMMENT
Radial Measurement Point: RRP                               COMMENT
Radial Offset to Rinex Ref. Point: 0.0000                   COMMENT
Antenna Height from Field Measurement: 2.2200 m             COMMENT
                                                            COMMENT
Original XYZ: -2432093.4201 -4083807.2113 4241197.2740      COMMENT
New XYZ position is based on association with SCEC monument COMMENT
E1P3Q0L6+0011. Position of that monument is believed to be  COMMENT
valid to within 1 m horizontally; vertical accuracy         COMMENT
should be no worse than 3-times this value.                 COMMENT
                                                            COMMENT
Revised Rinex header created by UCSD GPS archive for        COMMENT
GSAC on 10-Mar-2000 (2000:070) 04:27:55 GMT                 COMMENT
For assistance contact dagnew@ucsd.edu or hjohnson@ucsd.edu COMMENT
                                                            COMMENT
HPGN CA 02 05                                               MARKER NAME
0205                                                        MARKER NUMBER
-Unknown- CALIF DEPT TRANSPORTATION                         OBSERVER / AGENCY
483 TRIMBLE 4000 SST NP 4.30 / SP 4.20                      REC # / TYPE / VERS
19 TR 4000SST L1/L2 GEO                                     ANT # / TYPE
 -2432124.5932 -4083777.5513  4241165.2708                  APPROX POSITION XYZ
        2.2200        0.0000        0.0000                  ANTENNA: DELTA H/E/N
     1     1     0                                          WAVELENGTH FACT L1/2
     5    C1    L1    L2    S1    S2                        # / TYPES OF OBSERV
     0                                                      INTERVAL
  1991     6    24    16    13   45.000000                  TIME OF FIRST OBS
  1991     6    24    21    36    0.000000                  TIME OF LAST OBS
                                                            END OF HEADER
 91  6 24 16 13 45.0000000  0  5G18G16G19G 2G11
  21653742.328          -0.07917        -0.34132        23.750           1.938
  23329023.102          -0.17316        -0.17531        12.250           0.469
  20520927.852          -0.12116        -0.19032        19.250           1.500
  22916193.094          -0.20916        -0.01531        16.250           1.031
  23238858.602          -0.31816        -0.30831        17.250           0.938
 91  6 24 16 14  0.0000000  0  5G18G16G19G 2G11
  21661727.625       41986.550 7     32716.50122        22.500           1.844
  23327168.031       -9734.211 6     -7585.15621        12.500           0.406
  20522560.133        8562.992 6      6672.35821        19.250           1.469
  22908075.297      -42654.256 6    -33236.88821        16.500           1.063
  23234509.695      -22881.663 6    -17829.91921        17.250           0.969
 91  6 24 16 14 15.0000000  0  5G18G16G19G 2G11
  21669736.695       84049.944 7     65493.16022        23.000           1.844
  23325341.391      -19340.228 6    -15070.34021        12.000           0.313
  20524199.188       17180.028 6     13386.93622        19.750           1.594
  22899969.938      -85262.866 6    -66438.36221        16.500           1.094
  23230172.453      -45646.337 6    -35568.59921        16.500           1.031
 91  6 24 16 14 30.0000000  0  5G18G16G19G 2G11
  21677752.078      126185.724 7     98326.22222        22.500           1.969
  23323533.930      -28821.947 5    -22458.69021        11.250           0.500
  20525848.906       25846.624 6     20140.12422        19.500           1.594
  22891865.102     -127829.972 6    -99607.47821        16.250           1.094
  23225866.953      -68298.143 6    -53219.34421        18.000           1.063
 91  6 24 16 14 45.0000000  0  5G18G16G19G 2G11
  21685781.781      168393.215 7    131215.15722        22.500           1.844
  23321753.969      -38180.031 5    -29750.69921        11.250           0.375
  20527507.313       34562.491 7     26931.70321        20.000           1.469
  22883775.969     -170355.918 6   -132744.54321        16.750           1.125
  23221575.109      -90837.378 6    -70782.36621        17.250           0.938
 91  6 24 16 15  0.0000000  0  5G18G16G19G 2G11
  21693830.539      210670.985 7    164158.86022        23.000           1.906
  23319992.164      -47415.675 5    -36947.30121        11.000           0.531
  20529174.086       43326.433 6     33760.75321        19.500           1.375
  22875689.445     -212841.736 6   -165850.32421        16.250           1.125
  23217309.352     -113264.908 6    -88258.32821        17.500           0.969
 91  6 24 16 15 15.0000000  0  5G18G16G19G 2G11
  21701890.273      253021.568 7    197159.29822        23.000           1.688
  23318266.336      -56525.787 5    -44046.07221        11.500           0.406
  20530851.344       52141.114 6     40629.33622        19.250           1.531
  22867613.680     -255284.636 6   -198922.66321        17.000           1.188
  23213063.281     -135577.804 6   -105644.98921        18.000           0.969
 91  6 24 16 15 30.0000000  0  5G18G16G19G 2G11
  21709959.273      295446.010 7    230217.28322        22.500           1.781
  23316552.742      -65509.161 5    -51046.10921        11.500           0.438
  20532540.664       61007.747 6     47538.40422        18.500           1.531
  22859544.117     -297683.043 6   -231960.33621        16.750           1.188
  23208837.461     -157774.364 6   -122940.98221        17.500           1.063
 91  6 24 16 15 45.0000000  0  5G18G16G19G 2G11
  21718048.086      337941.715 7    263330.79722        22.500           1.844
  23314861.969      -74368.225 5    -57949.27621        11.000           0.469
  20534234.461       69924.097 6     54486.20222        19.250           1.625
  22851488.945     -340039.348 6   -264965.19721        17.250           1.250
  23204636.117     -179856.835 6   -140148.09821        18.000           0.906
 91  6 24 16 16  0.0000000  0  5G18G16G19G 2G11
  21726149.688      380507.214 7    296498.71722        23.500           1.781
  23313202.281      -83104.490 5    -64756.74021        11.000           0.344
  20535940.414       78888.800 6     61471.68622        18.750           1.563
  22843433.922     -382354.605 6   -297938.07521        16.500           1.250
  23200452.859     -201826.160 6   -157267.03221        17.500           0.844
 91  6 24 16 16 15.0000000  0  5G18G16G19G 2G11
  21734262.969      423142.260 7    329720.80622        23.500           1.813
  23311566.109      -91717.677 5    -71468.31621        10.500           0.438
  20537656.078       87901.784 6     68494.78722        19.500           1.625
  22835386.016     -424628.732 6   -330878.90521        16.000           1.188
  23196297.031     -223682.134 6   -174297.64921        17.500           0.813
 91  6 24 16 16 30.0000000  0  5G18G16G19G 2G11
  21742388.641      465851.773 7    363000.91822        23.250           1.844
  23309943.898     -100202.850 5    -78080.13221        10.500           0.500
  20539382.367       96967.840 6     75559.24422        19.250           1.500
  22827352.930     -466856.635 6   -363783.70621        17.000           1.219
  23192156.281     -245419.464 6   -191235.79821        17.500           0.781
 91  6 24 16 16 45.0000000  0  5G18G16G19G 2G11
  21750530.938      508630.621 7    396335.07822        23.500           1.750
  23308362.609     -108565.144 5    -84596.19621        11.000           0.406
  20541115.938      106081.946 6     82661.15021        19.250           1.469
  22819326.227     -509043.264 6   -396656.35321        17.500           1.219
  23188046.680     -267042.885 6   -208085.21221        17.750           0.875
 91  6 24 16 17  0.0000000  0  5G18G16G19G 2G11
  21758682.727      551479.878 7    429724.09322        23.250           1.781
  23306794.070     -116802.723 5    -91015.08621        11.000           0.313
  20542861.539      115245.804 6     89801.81522        19.000           1.594
  22811305.094     -551186.907 6   -429495.50921        16.750           1.156
  23183955.297     -288550.583 6   -224844.43421        17.750           0.906
 91  6 24 16 17 15.0000000  0  5G18G16G19G 2G11
  21766850.852      594403.466 7    463171.02922        23.750           1.656
  23305248.727     -124911.419 5    -97333.54221        10.500           0.563
  20544613.523      124463.577 6     96984.49922        19.250           1.500
  22803292.633     -593283.169 6   -462297.74921        16.750           1.250
  23179881.500     -309938.207 6   -241510.09021        17.000           0.781
 91  6 24 16 17 30.0000000  0  5G18G16G19G 2G11
  21775035.477      637400.358 7    496675.09722        23.750           1.563
  23303731.367     -132892.027 5   -103552.19321        11.000           0.406
  20546377.070      133734.290 6    104208.43022        18.750           1.531
  22795292.133     -635332.893 6   -495063.71021        17.750           1.188
  23175835.273     -331206.487 6   -258082.75721        16.750           0.781
 91  6 24 16 17 45.0000000  0  5G18G16G19G 2G11
  21783227.617      680466.604 7    530233.19722        23.250           1.625
  23302234.273     -140748.268 5   -109673.92621        10.750           0.438
  20548152.023      143054.303 6    111470.78222        19.250           1.500
  22787297.727     -677339.511 6   -527796.10021        17.000           1.250
  23171810.141     -352358.719 6   -274564.99421        17.250           0.781
 91  6 24 16 18  0.0000000  0  5G18G16G19G 2G11
  21791438.102      723604.043 7    563846.75622        23.250           1.625
  23300763.203     -148478.192 5   -115697.24421        10.750           0.406
  20549932.742      152425.242 6    118772.81721        19.250           1.375
  22779312.258     -719301.030 6   -560493.34321        17.500           1.156
  23167807.320     -373392.737 6   -290955.11421        16.500           0.781
 91  6 24 16 18 15.0000000  0  5G18G16G19G 2G11
  21799659.352      766813.566 7    597516.48822        22.500           1.594
  23299321.016     -156080.444 5   -121621.08621        11.250           0.406
  20551728.047      161848.522 6    126115.63121        19.750           1.469
  22771339.969     -761216.130 6   -593154.41021        17.750           1.094
  23163827.266     -394307.061 6   -307251.96221        16.750           0.719
 91  6 24 16 18 30.0000000  0  5G18G16G19G 2G11
  21807893.945      810089.930 7    631238.32522        22.250           1.625
  23297898.906     -163560.322 5   -127449.56721        11.250           0.438
  20553533.133      171318.934 6    133495.17322        18.750           1.594
  22763367.164     -803089.818 6   -625783.21621        17.250           1.250
  23159869.133     -415106.604 6   -323459.37021        17.250           0.750
 91  6 24 16 18 45.0000000  0  5G18G16G19G 2G11
  21816146.086      853437.390 7    665015.55322        22.000           1.531
  23296494.055     -170913.153 5   -133179.02821        11.000           0.375
  20555342.078      180841.220 6    140915.13222        19.750           1.594
  22755408.984     -844917.309 6   -658376.01821        18.250           1.156
  23155935.219     -435786.445 6   -339573.51121        17.500           0.688
 91  6 24 16 19  0.0000000  0  5G18G16G19G 2G11
  21824407.648      896853.730 7    698846.45322        22.000           1.594
  23295115.961     -178140.988 5   -138811.12621        11.250           0.469
  20557164.422      190413.012 6    148373.67522        18.750           1.625
  22747458.859     -886700.635 6   -690934.41221        18.500           1.156
  23152018.250     -456348.597 6   -355595.94521        17.000           0.625
 91  6 24 16 19 15.0000000  0  5G18G16G19G 2G11
  21832680.563      940339.818 7    732731.70222        22.000           1.563
  23293768.516     -185242.744 5   -144344.95621        10.500           0.344
  20558992.031      200035.628 6    155871.81422        19.750           1.531
  22739518.141     -928438.348 6   -723457.25421        18.750           1.313
  23148130.430     -476791.454 6   -371525.42221        17.500           0.625
 91  6 24 16 19 30.0000000  0  5G18G16G19G 2G11
  21840969.422      983891.509 7    766668.06721        22.000           1.469
  23292435.445     -192222.318 5   -149783.56921        10.250           0.344
  20560837.883      209704.915 7    163406.32321        20.000           1.438
  22731580.469     -970134.467 6   -755947.69921        17.750           1.188
  23144262.633     -497118.888 6   -387364.96821        17.500           0.688
 91  6 24 16 19 45.0000000  0  5G18G16G19G 2G11
  21849272.008     1027516.608 7    800661.63522        22.250           1.563
  23291137.164     -199071.897 5   -155120.89821        10.750           0.438
  20562686.008      219428.745 7    170983.33421        20.000           1.469
  22723658.758    -1011780.898 6   -788399.41421        18.000           1.250
  23140417.500     -517322.723 6   -403108.20621        17.750           0.688
 91  6 24 16 20  0.0000000  0  5G18G16G19G 2G11
  21857584.141     1071212.442 7    834710.32822        22.000           1.563
  23289861.508     -205793.536 5   -160358.53221        10.250           0.406
  20564546.641      229204.887 6    178601.11021        19.500           1.438
  22715741.070    -1053379.649 6   -820813.97921        18.250           1.219
  23136597.117     -537404.850 6   -418756.58721        18.250           0.656
 91  6 24 16 20 15.0000000  0  5G18G16G19G 2G11
  21865916.828     1114974.788 7    868810.83422        22.250           1.531
  23288611.055     -212391.421 5   -165499.72721        10.500           0.438
  20566415.148      239029.348 7    186256.53022        20.250           1.563
  22707830.867    -1094934.656 6   -853194.46421        18.000           1.219
  23132796.492     -557368.942 6   -434313.00321        17.750           0.781
 91  6 24 16 20 30.0000000  0  5G18G16G19G 2G11
  21874252.680     1158807.647 7    902966.28322        22.000           1.563
  23287370.383     -218861.203 5   -170541.11621        10.250           0.406
  20568294.148      248906.293 7    193952.85122        20.000           1.500
  22699931.602    -1136441.777 6   -885537.62821        18.500           1.156
  23129022.180     -577210.700 6   -449774.10821        18.000           0.906
 91  6 24 16 20 45.0000000  0  5G18G16G19G 2G11
  21882612.906     1202712.437 7    937177.78222        23.000           1.656
  23286167.008     -225201.137 5   -175481.31921        10.500           0.500
  20570184.367      258837.425 7    201691.40021        20.000           1.438
  22692043.164    -1177899.063 6   -917841.97421        18.000           1.313
  23125269.992     -596928.227 6   -465138.39121        18.000           0.906
 91  6 24 16 21  0.0000000  0  5G18G16G19G 2G11
  21890980.008     1246698.592 7    971452.69922        22.250           1.688
  23284981.422     -231401.371 5   -180312.67721        10.750           0.406
  20572085.945      268832.355 7    209479.65022        20.250           1.500
  22684166.539    -1219296.664 6   -950099.79221        18.250           1.250
  23121541.883     -616511.545 6   -480398.09621        17.500           0.750
 91  6 24 16 21 15.0000000  0  5G18G16G19G 2G11
  21899360.180     1290748.245 7   1005777.09022        21.750           1.594
  23283829.477     -237479.981 5   -185049.23621        10.500           0.469
  20573997.367      278873.064 7    217303.58422        20.750           1.500
  22676292.531    -1260652.474 6   -982325.06621        17.250           1.250
  23117840.594     -635978.433 6   -495567.08821        18.000           0.938
 91  6 24 16 21 30.0000000  0  5G18G16G19G 2G11
  21907758.703     1334871.364 7   1040158.72722        21.750           1.656
  23282689.656     -243426.771 5   -189683.10121        10.000           0.406
  20575924.391      288969.906 6    225171.25222        19.250           1.500
  22668435.281    -1301955.982 6  -1014509.56521        18.500           1.250
  23114158.547     -655318.209 6   -510637.02821        17.750           0.938
 91  6 24 16 21 45.0000000  0  5G18G16G19G 2G11
  21916167.523     1379062.578 7   1074593.41822        21.500           1.563
  23281586.680     -249246.680 5   -194218.09321        10.500           0.375
  20577849.594      299118.055 7    233078.90521        20.250           1.375
  22660585.086    -1343212.039 6  -1046657.10321        18.000           1.219
  23110501.805     -674535.663 6   -525611.65521        17.500           0.938
 91  6 24 16 22  0.0000000  0  5G18G16G19G 2G11
  21924590.523     1423323.186 7   1109082.18222        21.750           1.625
  23280500.375     -254938.460 5   -198653.23021        10.500           0.438
  20579790.633      309318.631 6    241027.40821        19.750           1.438
  22652744.773    -1384419.285 6  -1078766.60221        18.500           1.188
  23106869.453     -693629.342 6   -540489.82921        17.250           0.969
 91  6 24 16 22 15.0000000  0  5G18G16G19G 2G11
  21933026.695     1467654.679 7   1143626.18322        22.000           1.531
  23279453.914     -260500.199 5   -202987.05021        11.500           0.563
  20581740.727      319573.468 6    249018.19221        19.750           1.406
  22644916.727    -1425575.670 6  -1110836.47021        18.750           1.406
  23103257.227     -712597.106 6   -555269.89021        17.000           0.969
 91  6 24 16 22 30.0000000  0  5G18G16G19G 2G11
  21941478.156     1512055.247 7   1178224.02121        22.000           1.469
  23278410.469     -265933.138 5   -207220.51221        10.750           0.469
  20583704.031      329881.149 6    257050.15221        19.750           1.406
  22637089.914    -1466682.438 6  -1142867.67121        18.250           1.313
  23099675.711     -731440.205 6   -569952.80121        16.750           1.031
 91  6 24 16 22 45.0000000  0  5G18G16G19G 2G11
  21949935.055     1556518.153 7   1212870.42722        21.750           1.625
  23277406.070     -271244.217 5   -211359.02621        10.750           0.438
  20585675.156      340235.080 7    265118.14321        20.000           1.406
  22629277.133    -1507746.206 6  -1174865.36721        18.250           1.375
  23096110.984     -750164.874 6   -584543.44321        17.000           0.969
 91  6 24 16 23  0.0000000  0  5G18G16G19G 2G11
  21958413.102     1601050.502 7   1247570.92022        22.250           1.656
  23276414.008     -276426.183 5   -215396.91621        10.250           0.469
  20587659.219      350642.280 6    273227.65121        19.250           1.438
  22621469.148    -1548759.686 6  -1206823.87121        17.750           1.344
  23092569.586     -768763.823 6   -599036.12521        17.250           0.906
 91  6 24 16 23 15.0000000  0  5G18G16G19G 2G11
  21966896.273     1645650.625 7   1282324.23621        22.250           1.469
  23275455.211     -281480.213 5   -219335.11821        10.750           0.438
  20589641.906      361101.454 6    281377.66021        19.500           1.438
  22613674.813    -1589723.949 6  -1238744.03421        18.500           1.281
  23089050.367     -787238.228 6   -613431.75321        16.500           0.875
 91  6 24 16 23 30.0000000  0  5G18G16G19G 2G11
  21975398.086     1690318.970 7   1317130.72322        22.250           1.563
  23274520.617     -286405.748 5   -223173.19121        11.000           0.438
  20591644.758      371613.162 6    289568.59321        19.500           1.438
  22605890.922    -1630638.359 6  -1270625.35321        18.500           1.344
  23085559.813     -805587.273 6   -627729.70021        16.750           1.031
 91  6 24 16 23 45.0000000  0  5G18G16G19G 2G11
  21983912.031     1735057.382 7   1351991.81821        22.500           1.438
  23273606.555     -291200.693 5   -226909.52921        10.750           0.500
  20593657.133      382179.495 7    297802.10421        20.000           1.375
  22598115.750    -1671500.688 6  -1302466.08821        18.250           1.281
  23082096.711     -823808.565 6   -641928.09321        17.000           1.031
 91  6 24 16 24  0.0000000  0  5G18G16G19G 2G11
  21992439.141     1779856.958 7   1386900.55821        23.000           1.406
  23272720.195     -295873.557 5   -230550.72121        10.750           0.469
  20595675.297      392792.101 6    306071.67322        19.000           1.500
  22590344.680    -1712319.228 6  -1334272.70821        18.750           1.375
  23078651.250     -841910.290 6   -656033.31921        17.000           1.125
 91  6 24 16 24 15.0000000  0  5G18G16G19G 2G11
  22000973.813     1824722.506 7   1421860.71522        22.250           1.531
  23271851.477     -300419.586 5   -234093.08721        10.000           0.500
  20597704.664      403455.764 7    314381.02121        20.000           1.438
  22582586.305    -1753088.853 6  -1366041.20421        18.750           1.344
  23075228.766     -859887.258 6   -670041.34121        16.500           1.063
 91  6 24 16 24 30.0000000  0  5G18G16G19G 2G11
  22009523.367     1869652.883 7   1456871.37821        22.500           1.438
  23271007.141     -304840.092 5   -237537.62921        10.750           0.406
  20599745.336      414169.418 6    322729.32521        19.750           1.438
  22574840.266    -1793810.704 6  -1397772.47421        18.750           1.344
  23071833.016     -877740.571 6   -683953.00021        17.000           1.094
 91  6 24 16 24 45.0000000  0  5G18G16G19G 2G11
  22018088.625     1914653.333 7   1491936.65521        22.000           1.344
  23270191.391     -309128.951 5   -240879.59321        10.500           0.469
  20601793.922      424938.631 7    331120.92722        20.250           1.563
  22567101.008    -1834478.928 6  -1429461.95721        19.000           1.438
  23068463.547     -895464.228 6   -697763.62221        17.750           1.094
 91  6 24 16 25  0.0000000  0  5G18G16G19G 2G11
  22026662.148     1959717.183 7   1527051.31721        21.500           1.438
  23269404.383     -313292.558 5   -244123.97521        10.500           0.469
  20603849.844      435757.125 6    339550.92421        19.250           1.438
  22559373.578    -1875099.592 6  -1461114.37721        19.250           1.313
  23065110.289     -913064.266 6   -711477.91621        18.000           1.125
 91  6 24 16 25 15.0000000  0  5G18G16G19G 2G11
  22035250.180     2004850.082 7   1562219.78121        21.250           1.313
  23268634.992     -317325.073 5   -247266.18921        10.500           0.469
  20605919.336      446630.510 7    348023.69322        20.250           1.594
  22551651.938    -1915667.048 6  -1492725.33521        19.250           1.375
  23061786.688     -930534.746 6   -725091.25721        18.250           1.094
 91  6 24 16 25 30.0000000  0  5G18G16G19G 2G11
  22043852.742     2050054.256 7   1597443.79821        21.000           1.344
  23267892.266     -321224.469 5   -250304.67121        10.500           0.438
  20608000.516      457561.116 6    356541.04621        19.750           1.438
  22543943.273    -1956178.794 6  -1524292.89421        19.500           1.344
  23058486.836     -947872.996 6   -738601.56921        18.250           1.031
 91  6 24 16 25 45.0000000  0  5G18G16G19G 2G11
  22052468.078     2095314.944 7   1632711.83621        21.500           1.375
  23267173.297     -325005.228 5   -253250.71321        11.000           0.469
  20610088.773      468534.597 7    365091.81721        20.250           1.469
  22536242.406    -1996649.141 6  -1555828.19121        19.250           1.406
  23055211.805     -965093.324 6   -752020.00021        18.250           1.063
 91  6 24 16 26  0.0000000  0  5G18G16G19G 2G11
  22061091.820     2140640.717 7   1668030.60221        21.500           1.344
  23266482.219     -328658.392 5   -256097.33621        11.500           0.563
  20612188.242      479559.763 6    373682.85621        19.500           1.469
  22528551.383    -2037069.195 6  -1587324.29521        19.500           1.406
  23051956.578     -982186.756 6   -765339.53521        17.750           1.063
 91  6 24 16 26 15.0000000  0  5G18G16G19G 2G11
  22069732.266     2186031.306 7   1703399.88221        21.750           1.344
  23265806.398     -332184.099 5   -258844.64121        10.750           0.563
  20614294.250      490636.528 6    382314.10521        19.750           1.469
  22520864.273    -2077438.690 6  -1618781.00721        19.250           1.375
  23048729.914     -999153.078 6   -778560.03821        17.500           1.031
 91  6 24 16 26 30.0000000  0  5G18G16G19G 2G11
  22078378.945     2231490.323 7   1738822.47421        22.000           1.344
  23265159.336     -335578.203 5   -261489.40621        10.750           0.406
  20616412.680      501768.634 6    390988.46822        18.750           1.594
  22513195.734    -2117753.791 7  -1650195.32821        20.000           1.406
  23045523.477    -1015988.204 6   -791678.31321        17.500           0.906
 91  6 24 16 26 45.0000000  0  5G18G16G19G 2G11
  22087044.461     2277015.301 7   1774296.46521        21.750           1.250
  23264546.211     -338843.219 5   -264033.55721        11.000           0.563
  20618540.484      512953.955 6    399704.30321        19.250           1.406
  22505533.227    -2158016.376 6  -1681568.73921        19.750           1.344
  23042347.586    -1032694.080 6   -804695.87221        18.000           0.906
 91  6 24 16 27  0.0000000  0  5G18G16G19G 2G11
  22095719.000     2322602.182 7   1809818.68821        21.250           1.313
  23263939.297     -341983.116 5   -266480.24621        10.000           0.469
  20620679.664      524188.502 6    408458.49221        18.750           1.469
  22497882.242    -2198230.474 7  -1712904.36021        20.500           1.438
  23039194.141    -1049274.435 6   -817615.62221        18.000           0.969
 91  6 24 16 27 15.0000000  0  5G18G16G19G 2G11
  22104405.008     2368255.231 7   1845392.48421        21.250           1.438
  23263370.664     -344993.656 5   -268826.09721        10.000           0.594
  20622827.227      535476.583 6    417254.39022        19.250           1.531
  22490238.563    -2238391.610 7  -1744198.71821        20.250           1.375
  23036060.102    -1065724.857 6   -830434.11921        17.500           0.906
 91  6 24 16 27 30.0000000  0  5G18G16G19G 2G11
  22113104.133     2413973.883 7   1881017.39021        21.250           1.438
  23262824.250     -347874.966 5   -271071.27121        10.250           0.531
  20624985.188      546817.990 6    426091.84822        18.750           1.531
  22482607.188    -2278499.769 7  -1775451.78721        20.250           1.469
  23032955.422    -1082045.358 6   -843151.38721        17.250           0.906
 91  6 24 16 27 45.0000000  0  5G18G16G19G 2G11
  22121820.945     2459758.431 7   1916693.64121        21.750           1.438
  23262296.672     -350626.169 5   -273215.06921        10.250           0.563
  20627153.852      558213.578 6    434971.51622        19.000           1.563
  22474984.977    -2318554.095 7  -1806662.90921        20.000           1.375
  23029875.258    -1098234.966 6   -855766.63921        17.250           0.875
 91  6 24 16 28  0.0000000  0  5G18G16G19G 2G11
  22130544.344     2505604.441 7   1952417.77421        21.500           1.281
  23261792.992     -353251.904 5   -275261.09821        10.000           0.469
  20629333.773      569658.675 6    443889.76922        18.500           1.594
  22467373.430    -2358559.049 7  -1837835.56821        20.250           1.344
  23026816.664    -1114297.917 6   -868283.22821        17.500           0.781
 91  6 24 16 28 15.0000000  0  5G18G16G19G 2G11
  22139279.852     2551517.092 7   1988193.85821        20.750           1.281
  23261320.094     -355746.759 5   -277205.13821        10.750           0.438
  20631520.039      581158.925 6    452851.00022        19.500           1.719
  22459768.539    -2398508.868 7  -1868965.26121        20.000           1.406
  23023785.250    -1130228.330 6   -880696.53621        17.750           0.906
 91  6 24 16 28 30.0000000  0  5G18G16G19G 2G11
  22148028.109     2597496.325 7   2024021.82221        20.250           1.344
  23260876.195     -358110.324 5   -279046.88321        11.000           0.406
  20633720.938      592714.842 6    461855.60122        18.750           1.750
  22452177.336    -2438403.138 7  -1900051.67621        20.000           1.438
  23020779.992    -1146025.592 6   -893006.07621        18.500           0.875
 91  6 24 16 28 45.0000000  0  5G18G16G19G 2G11
  22156787.492     2643539.856 7   2059899.87621        20.500           1.313
  23260445.164     -360345.046 5   -280788.23821        11.000           0.500
  20635927.844      604323.825 6    470901.56622        19.000           1.625
  22444597.523    -2478243.944 7  -1931096.42421        21.000           1.344
  23017797.539    -1161691.992 6   -905213.64221        17.250           0.969
 91  6 24 16 29  0.0000000  0  5G18G16G19G 2G11
  22165567.008     2689646.633 7   2095827.20921        20.750           1.344
  23260046.266     -362451.766 5   -282429.83921        10.750           0.344
  20638147.734      615985.393 6    479988.49822        18.750           1.688
  22437024.297    -2518031.958 7  -1962100.04221        20.500           1.219
  23014842.969    -1177228.075 6   -917319.66521        17.000           0.875
 91  6 24 16 29 15.0000000  0  5G18G16G19G 2G11
  22174351.688     2735820.284 7   2131806.65421        20.250           1.375
  23259670.320     -364426.568 5   -283968.63821        10.500           0.406
  20640376.266      627703.097 6    489119.16522        19.000           1.688
  22429464.414    -2557763.352 7  -1993059.53521        20.250           1.313
  23011911.977    -1192629.928 6   -929321.11021        17.750           1.000
 91  6 24 16 29 30.0000000  0  5G18G16G19G 2G11
  22183148.438     2782059.588 6   2167837.25521        19.500           1.219
  23259324.453     -366270.134 5   -285405.18421        11.500           0.406
  20642618.531      639476.195 6    498293.00922        19.000           1.594
  22421911.766    -2597438.657 6  -2023975.32421        19.750           1.344
  23009006.125    -1207898.068 6   -941218.35121        18.250           0.906
 91  6 24 16 29 45.0000000  0  5G18G16G19G 2G11
  22191960.922     2828365.481 6   2203919.74221        19.750           1.281
  23258995.727     -367981.708 5   -286738.88821        11.750           0.438
  20644867.398      651305.521 6    507510.67122        19.500           1.594
  22414373.125    -2637056.942 7  -2054846.67821        20.250           1.281
  23006126.344    -1223031.368 6   -953010.51821        17.000           0.969
 91  6 24 16 30  0.0000000  0  5G18G16G19G 2G11
  22200787.359     2874736.424 6   2240052.92821        19.750           1.313
  23258690.039     -369562.796 5   -287970.92321        11.250           0.406
  20647129.367      663189.649 6    516771.02822        19.000           1.656
  22406847.172    -2676619.363 7  -2085674.49921        21.000           1.281
  23003270.320    -1238030.934 6   -964698.47321        16.750           0.906
 91  6 24 16 30 15.0000000  0  5G18G16G19G 2G11
  22209619.453     2921167.737 6   2276233.16121        18.750           1.281
  23258419.320     -371017.807 5   -289104.69421        11.500           0.500
  20649401.406      675124.342 6    526070.78622        19.250           1.656
  22399332.016    -2716130.132 7  -2116462.07921        22.000           1.281
  23000439.656    -1252900.729 6   -976285.31621        16.500           0.875
 91  6 24 16 30 30.0000000  0  5G18G16G19G 2G11
  22218472.578     2967660.484 6   2312461.25221        19.500           1.313
  23258170.500     -372345.161 5   -290138.99721        11.750           0.469
  20651681.898      687111.107 6    535411.12122        19.000           1.656
  22391819.938    -2755587.548 7  -2147208.09221        21.500           1.438
  22997634.898    -1267639.136 6   -987769.78321        16.250           0.813
 91  6 24 16 30 45.0000000  0  5G18G16G19G 2G11
  22227325.797     3014220.421 6   2348741.69521        19.250           1.281
  23257940.195     -373539.116 5   -291069.35721        11.500           0.375
  20653973.969      699155.667 6    544796.49322        19.750           1.625
  22384322.766    -2794985.817 7  -2177908.00621        22.000           1.375
  22994858.992    -1282240.432 6   -999147.41721        16.250           0.813
 91  6 24 16 31  0.0000000  0  5G18G16G19G 2G11
  22236199.727     3060843.670 6   2385071.47721        19.500           1.188
  23257734.891     -374603.248 5   -291898.55621        11.750           0.438
  20656281.672      711254.484 6    554224.13722        18.500           1.563
  22376836.508    -2834328.324 7  -2208564.47721        21.250           1.438
  22992104.914    -1296707.896 6  -1010420.74721        17.000           0.844
 91  6 24 16 31 15.0000000  0  5G18G16G19G 2G11
  22245085.398     3107529.056 6   2421449.67721        18.500           1.219
  23257555.984     -375538.596 5   -292627.39321        11.500           0.469
  20658589.031      723406.763 6    563693.44522        19.750           1.656
  22369360.820    -2873615.944 7  -2239178.17422        21.500           1.500
  22989377.156    -1311042.232 6  -1021590.35421        17.000           0.844
 91  6 24 16 31 30.0000000  0  5G18G16G19G 2G11
  22253981.359     3154278.922 6   2457878.12921        19.250           1.125
  23257399.727     -376342.650 5   -293253.92921        11.000           0.563
  20660913.383      735614.942 6    573206.31322        18.500           1.688
  22361896.336    -2912846.039 7  -2269747.05022        21.500           1.563
  22986676.875    -1325240.822 6  -1032654.18421        17.250           0.875
 91  6 24 16 31 45.0000000  0  5G18G16G19G 2G11
  22262891.500     3201095.678 6   2494358.69521        19.500           1.156
  23257278.703     -377012.698 5   -293776.05421        11.750           0.500
  20663247.391      747881.755 6    582764.86622        19.500           1.656
  22354440.422    -2952015.625 7  -2300268.78021        21.000           1.469
  22984001.883    -1339300.575 6  -1043609.82021        17.500           0.969
 91  6 24 16 32  0.0000000  0  5G18G16G19G 2G11
  22271813.633     3247977.429 6   2530889.90821        19.250           1.156
  23257172.453     -377550.999 5   -294195.52621        11.000           0.406
  20665592.688      760205.103 6    592367.47222        19.750           1.594
  22346993.867    -2991126.692 7  -2330744.90622        20.000           1.531
  22981352.328    -1353223.334 6  -1054458.71821        18.000           0.906
 91  6 24 16 32 15.0000000  0  5G18G16G19G 2G11
  22280745.789     3294924.159 6   2567471.74821        19.250           1.094
  23257097.945     -377956.639 5   -294511.60821        11.250           0.406
  20667948.773      772585.504 6    602014.53822        19.750           1.594
  22339567.539    -3030178.717 7  -2361175.02322        20.750           1.531
  22978728.766    -1367008.461 6  -1065200.36321        17.500           1.031
 91  6 24 16 32 30.0000000  0  5G18G16G19G 2G11
  22289690.297     3341932.143 6   2604101.32221        19.000           1.063
  23257048.164     -378233.566 5   -294727.41021        11.000           0.625
  20670318.086      785019.479 6    611703.33822        19.750           1.531
  22332145.883    -3069175.157 7  -2391561.82722        20.000           1.594
  22976128.539    -1380659.388 6  -1075837.45321        17.000           1.000
 91  6 24 16 32 45.0000000  0  5G18G16G19G 2G11
  22298648.063     3389000.524 6   2640777.97221        19.000           1.063
  23257012.914     -378382.329 5                        10.500
  20672688.625      797506.234 6    621433.28322        19.750           1.563
  22324733.938    -3108116.384 7  -2421905.59922        20.250           1.594
  22973555.539    -1394176.663 6  -1086370.39521        16.750           0.969
 91  6 24 16 33  0.0000000  0  5G18G16G19G 2G11
  22307615.344     3436133.630 6   2677505.05621        18.750           1.094
  23257019.422     -378398.470 5                        11.000
  20675075.859      810050.584 7    631208.10022        20.000           1.563
  22317335.063    -3146997.547 7  -2452202.58822        20.250           1.594
  22971012.211    -1407555.307 6  -1096795.30721        16.750           1.063
 91  6 24 16 33 15.0000000  0  5G18G16G19G 2G11
  22316600.766     3483329.999 6   2714281.42321        19.250           1.125
  23257033.758     -378283.026 5                        11.000
  20677475.500      822651.293 6    641026.82522        19.750           1.594
  22309949.820    -3185819.841 7  -2482453.69322        20.250           1.531
  22968494.625    -1420796.389 6  -1107113.02921        16.750           1.063
 91  6 24 16 33 30.0000000  0  5G18G16G19G 2G11
  22325592.359     3530590.761 6   2751107.95921        18.750           1.156
  23257079.047     -378034.910 5                        11.000
  20679884.086      835309.645 6    650890.47522        19.500           1.500
  22302574.586    -3224581.716 7  -2512657.71822        20.500           1.625
  22966000.703    -1433898.390 6  -1117322.38621        17.250           1.031
 91  6 24 16 33 45.0000000  0  5G18G16G19G 2G11
  22334592.891     3577908.935 6   2787979.24421        18.250           1.188
  23257157.195     -377660.787 5                        11.250
  20682301.133      848018.824 6    660793.73022        19.500           1.563
  22295206.109    -3263289.863 7  -2542819.88822        21.000           1.594
  22963528.977    -1446867.833 6  -1127428.43521        17.000           0.969
 91  6 24 16 34  0.0000000  0  5G18G16G19G 2G11
  22343612.719     3625290.464 6   2824899.88921        19.000           1.125
  23257248.703     -377154.687 5   -293886.74921        11.000           0.438
  20684735.508      860785.009 6    670741.40621        18.500           1.469
  22287850.023    -3301938.158 7  -2572935.41622        20.250           1.625
  22961087.563    -1459698.374 6  -1137426.27121        17.000           1.063
 91  6 24 16 34 15.0000000  0  5G18G16G19G 2G11
  22352639.211     3672732.699 6   2861867.84221        18.250           1.063
  23257369.117     -376519.014 5   -293391.44621        11.250           0.406
  20687171.211      873605.821 7    680731.63722        20.250           1.594
  22280507.070    -3340528.742 6  -2603005.97022        19.750           1.594
  22958675.953    -1472392.223 6  -1147317.56321        18.000           1.094
 91  6 24 16 34 30.0000000  0  5G18G16G19G 2G11
  22361679.195     3720241.330 6   2898887.53421        18.000           1.188
  23257515.180     -375748.142 5   -292790.77021        11.250           0.375
  20689621.031      886487.087 7    690768.98821        20.000           1.469
  22273174.078    -3379055.748 6  -2633026.98522        19.500           1.781
  22956284.484    -1484943.353 6  -1157097.67021        18.000           1.031
 91  6 24 16 34 45.0000000  0  5G18G16G19G 2G11
  22370731.625     3767814.973 6   2935957.87621        18.000           1.156
  23257691.219     -374842.977 5   -292085.47221        11.750           0.438
  20692081.625      899427.725 7    700852.59721        20.000           1.438
  22265855.398    -3417519.948 6  -2662999.05322        19.750           1.750
  22953923.438    -1497352.669 6  -1166767.26221        18.250           1.031
 91  6 24 16 35  0.0000000  0  5G18G16G19G 2G11
  22379796.320     3815447.233 6   2973073.88821        18.000           1.156
  23257887.109     -373809.607 6   -291280.25721        12.000           0.375
  20694558.320      912421.672 7    710977.74022        20.750           1.531
  22258547.984    -3455927.301 6  -2692926.84022        19.500           1.688
  22951589.508    -1509626.028 6  -1176330.93121        18.000           1.094
 91  6 24 16 35 15.0000000  0  5G18G16G19G 2G11
  22388872.352     3863143.769 6   3010239.98321        18.250           1.125
  23258107.750     -372642.362 5   -290370.72621        11.750           0.500
  20697041.859      925474.773 7    721148.98622        20.750           1.594
  22251252.602    -3494271.827 6  -2722805.66722        19.750           1.656
  22949278.391    -1521757.497 6  -1185784.01621        17.250           1.156
 91  6 24 16 35 30.0000000  0  5G18G16G19G 2G11
  22397968.328     3910904.554 6   3047456.15221        19.500           1.063
  23258352.047     -371341.373 5   -289356.97121        11.250           0.406
  20699540.086      938586.975 7    731366.27922        20.000           1.625
  22243965.719    -3532553.399 6  -2752635.43622        19.250           1.625
  22946996.711    -1533746.909 6  -1195126.42021        17.250           1.094
 91  6 24 16 35 45.0000000  0  5G18G16G19G 2G11
  22407060.195     3958725.829 6   3084719.45621        18.000           1.094
  23258628.320     -369910.052 6   -288241.67321        12.250           0.500
  20702041.234      951755.084 7    741627.14122        20.500           1.688
  22236693.430    -3570775.196 7  -2782418.62922        20.000           1.750
  22944741.641    -1545597.306 6  -1204360.49621        16.750           1.094
 91  6 24 16 36  0.0000000  0  5G18G16G19G 2G11
  22416173.195     4006605.295 6   3122028.09821        18.250           1.063
  23258927.781     -368350.526 6   -287026.45821        12.250           0.406
  20704557.508      964977.002 6    751929.92622        19.750           1.563
  22229431.531    -3608939.428 7  -2812156.96122        20.000           1.719
  22942512.859    -1557310.722 6  -1213487.82221        17.250           1.156
 91  6 24 16 36 15.0000000  0  5G18G16G19G 2G11
  22425296.555     4054551.953 6   3159389.11221        18.250           1.125
  23259244.953     -366653.612 5   -285704.20621        11.750           0.469
  20707088.938      978261.907 7    762281.79622        20.750           1.563
  22222180.672    -3647036.754 6  -2841843.16122        19.750           1.750
  22940311.148    -1568877.805 6  -1222501.12721        16.750           1.125
 91  6 24 16 36 30.0000000  0  5G18G16G19G 2G11
  22434431.516     4102556.354 6   3196795.11021        18.000           0.938
  23259591.578     -364828.544 5   -284282.08521        11.500           0.469
  20709626.586      991600.405 7    772675.41922        20.250           1.563
  22214942.516    -3685076.077 7  -2871484.16622        20.000           1.719
  22938139.883    -1580307.591 6  -1231407.45921        17.750           1.125
 91  6 24 16 36 45.0000000  0  5G18G16G19G 2G11
  22443579.039     4150622.718 6   3234249.39721        18.250           1.094
  23259969.977     -362870.891 5   -282756.65621        11.750           0.469
  20712173.398     1004997.171 7    783114.45721        20.000           1.469
  22207715.813    -3723052.918 7  -2901076.48322        20.250           1.719
  22935992.414    -1591595.391 6  -1240203.14121        18.000           1.094
 91  6 24 16 37  0.0000000  0  5G18G16G19G 2G11
  22452738.352     4198750.525 6   3271751.55521        18.750           1.125
  23260359.539     -360780.921 5   -281128.12421        11.250           0.500
  20714735.781     1018452.208 6    793598.89022        19.500           1.500
  22200499.938    -3760967.441 7  -2930620.24522        20.250           1.844
  22933870.180    -1602741.265 6  -1248888.24321        17.750           1.094
 91  6 24 16 37 15.0000000  0  5G18G16G19G 2G11
  22461909.047     4246939.748 6   3309301.57321        18.500           1.063
  23260784.430     -358558.757 5   -279396.56521        10.750           0.469
  20717304.664     1031965.332 6    804128.59822        19.750           1.531
  22193298.648    -3798819.234 7  -2960115.12522        20.500           1.813
  22931775.359    -1613744.915 6  -1257462.51921        18.000           1.156
 91  6 24 16 37 30.0000000  0  5G18G16G19G 2G11
  22471088.875     4295188.814 6   3346898.21321        18.500           1.125
  23261237.531     -356205.567 5   -277562.92121        10.750           0.531
  20719892.906     1045535.309 6    814702.60122        19.750           1.594
  22186108.109    -3836609.323 7  -2989561.92622        21.250           1.875
  22929707.359    -1624607.436 6  -1265926.82621        17.500           1.219
 91  6 24 16 37 45.0000000  0  5G18G16G19G 2G11
  22480283.789     4343498.482 6   3384542.08921        18.250           1.188
  23261708.781     -353720.875 5   -275626.81121        10.500           0.469
  20722480.594     1059163.054 6    825321.62822        19.750           1.594
  22178926.141    -3874336.911 7  -3018960.01222        21.250           1.813
  22927668.664    -1635327.909 6  -1274280.42721        18.000           1.188
 91  6 24 16 38  0.0000000  0  5G18G16G19G 2G11
  22489486.430     4391871.042 6   3422234.95221        18.500           1.188
  23262206.484     -351102.027 5   -273586.17821        10.500           0.406
  20725087.156     1072851.087 6    835987.60822        19.500           1.594
  22171760.727    -3911999.370 7  -3048307.36722        20.750           1.875
  22925656.180    -1645903.642 6  -1282521.26321        17.750           1.156
 91  6 24 16 38 15.0000000  0  5G18G16G19G 2G11
  22498706.906     4440307.327 6   3459977.48821        19.000           1.125
  23262731.711     -348348.016 5   -271440.18821        11.250           0.406
  20727703.711     1086600.536 6    846701.46622        19.500           1.500
  22164604.703    -3949595.392 7  -3077602.93922        20.750           1.875
  22923672.531    -1656333.190 6  -1290648.18421        18.500           1.125
 91  6 24 16 38 30.0000000  0  5G18G16G19G 2G11
  22507935.313     4488810.473 6   3497772.10121        19.000           1.188
  23263273.773     -345455.170 5   -269186.03321        10.000           0.406
  20730333.070     1100414.886 6    857465.88922        19.000           1.688
  22157464.625    -3987121.428 7  -3106843.98022        21.000           1.875
  22921715.445    -1666613.076 6  -1298658.48321        18.250           1.125
 91  6 24 16 38 45.0000000  0  5G18G16G19G 2G11
  22517177.500     4537373.510 6   3535613.40821        19.250           1.000
  23263858.250     -342430.864 5   -266829.45221        11.250           0.500
  20732968.977     1114287.097 6    868275.41022        19.000           1.719
  22150330.453    -4024584.355 7  -3136035.84622        20.250           1.969
  22919787.867    -1676750.114 6  -1306557.47321        19.250           1.031
 91  6 24 16 39  0.0000000  0  5G18G16G19G 2G11
  22526430.641     4585993.770 6   3573499.29621        18.750           1.031
  23264453.141     -339277.646 5   -264372.39521        10.750           0.344
  20735623.320     1128214.662 6    879128.04522        19.000           1.688
  22143221.773    -4061986.523 7  -3165180.37622        21.250           1.844
  22917886.531    -1686746.612 6  -1314346.94421        19.500           1.000
 91  6 24 16 39 15.0000000  0  5G18G16G19G 2G11
  22535689.758     4634671.294 6   3611429.79321        19.000           1.063
  23265080.008     -335994.840 5   -261814.37621        11.250           0.438
  20738282.703     1142198.103 7    890024.24022        20.000           1.688
  22136112.156    -4099327.353 7  -3194277.09722        20.750           1.906
  22916008.211    -1696601.952 6  -1322026.42821        18.750           1.063
 91  6 24 16 39 30.0000000  0  5G18G16G19G 2G11
  22544968.453     4683408.001 6   3649406.42721        19.000           1.000
  23265737.063     -332580.516 6   -259153.87621        12.750           0.500
  20740955.016     1156239.760 6    900965.78522        19.000           1.688
  22129018.945    -4136604.350 7  -3223324.08522        21.000           1.844
  22914159.914    -1706313.690 6  -1329594.03021        18.750           1.094
 91  6 24 16 39 45.0000000  0  5G18G16G19G 2G11
  22554251.180     4732204.053 6   3687429.29421        18.000           1.000
  23266409.852     -329034.679 5   -256390.88621        11.750           0.469
  20743637.406     1170339.897 6    911952.90622        19.250           1.656
  22121940.742    -4173817.214 7  -3252321.09922        22.000           1.750
  22912338.359    -1715881.487 6  -1337049.45221        18.750           1.063
 91  6 24 16 40  0.0000000  0  5G18G16G19G 2G11
  22563546.242     4781059.002 6   3725498.05321        17.250           1.031
  23267116.375     -325357.382 5   -253525.49921        11.750           0.469
  20746333.000     1184498.561 6    922985.62522        19.000           1.688
  22114870.867    -4210965.958 7  -3281268.15022        22.500           1.813
  22910545.086    -1725305.273 6  -1344392.66721        18.750           1.188
 91  6 24 16 40 15.0000000  0  5G18G16G19G 2G11
  22572857.281     4829971.098 6   3763611.34121        17.250           1.063
  23267828.625     -321549.828 5   -250558.57921        11.000           0.406
  20749039.094     1198714.104 6    934062.67122        19.750           1.719
  22107812.453    -4248051.953 7  -3310166.31722        22.250           1.844
  22908779.563    -1734586.323 6  -1351624.65421        19.000           1.125
 91  6 24 16 40 30.0000000  0  5G18G16G19G 2G11
  22582177.391     4878940.195 6   3801769.04321        17.500           0.938
  23268579.211     -317612.316 5   -247490.41621        11.250           0.438
  20751755.453     1212986.536 6    945184.04422        19.000           1.719
  22100769.547    -4285074.896 7  -3339015.34322        22.250           1.844
  22907042.484    -1743724.368 6  -1358745.20321        19.250           1.094
 91  6 24 16 40 45.0000000  0  5G18G16G19G 2G11
  22591504.586     4927967.447 6   3839972.06121        17.250           1.094
  23269355.813     -313543.678 5   -244320.06121        11.000           0.469
  20754480.148     1227317.114 6    956350.72022        19.750           1.625
  22093733.273    -4322033.514 7  -3367814.24622        22.250           1.906
  22905329.984    -1752718.161 6  -1365753.36221        18.750           1.031
 91  6 24 16 41  0.0000000  0  5G18G16G19G 2G11
  22600841.914     4977050.986 6   3878218.93821        18.000           1.000
  23270152.492     -309345.624 5   -241048.87221        10.750           0.438
  20757220.219     1241704.430 6    967561.61422        18.750           1.563
  22086713.609    -4358929.307 7  -3396564.19522        22.250           1.875
  22903645.328    -1761569.239 6  -1372650.30121        19.250           1.188
 91  6 24 16 41 15.0000000  0  6G18G16G19G 2G11G 6
  22610198.914     5026192.164 6   3916510.73921        18.250           1.000
  23270980.578     -305016.540 5   -237675.57421        11.250           0.469
  20759966.594     1256150.032 6    978817.91422        19.250           1.688
  22079705.961    -4395760.620 7  -3425263.90522        23.000           1.875
  22901986.266    -1770275.820 6  -1379434.64121        18.250           1.125
  23140026.602          -0.04015                        11.500
 91  6 24 16 41 30.0000000  0  6G18G16G19G 2G11G 6
  22619555.172     5075392.136 6   3954848.35121        17.250           0.938
  23271817.414     -300555.784 5   -234199.68321         9.500           0.469
  20762728.734     1270654.895 6    990120.40722        19.250           1.594
  22072706.867    -4432526.150 7  -3453912.35222        22.500           1.875
  22900358.031    -1778836.537 6  -1386105.32221        19.000           1.063
  23133272.469      -35493.028 5                        11.750
 91  6 24 16 41 45.0000000  0  6G18G16G19G 2G11G 6
  22628927.688     5124648.829 6   3993230.15821        17.000           0.844
  23272703.617     -295964.472 5   -230622.04921        11.000           0.344
  20765499.438     1285217.703 6   1001468.04222        19.750           1.656
  22065726.328    -4469227.247 7  -3482510.58422        23.250           1.906
  22898757.609    -1787252.684 6  -1392663.35121        18.500           1.031
  23126518.680      -70968.826 6                        12.000
 91  6 24 16 42  0.0000000  0  6G18G16G19G 2G11G 6
  22638316.547     5173963.292 6   4031656.97221        17.500           0.969
  23273601.867     -291241.336 5   -226941.70121        10.250           0.531
  20768283.484     1299839.691 6   1012861.79522        19.000           1.719
  22058751.664    -4505862.390 7  -3511057.43222        22.500           1.969
  22897186.008    -1795523.002 6  -1399107.74821        18.750           1.125
  23119775.047     -106426.289 6                        12.250
 91  6 24 16 42 15.0000000  0  6G18G16G19G 2G11G 6
  22647712.938     5223336.220 6   4070129.34621        18.000           0.906
  23274529.000     -286385.922 5   -223158.28521        10.000           0.375
  20771076.555     1314521.797 6   1024302.38622        19.750           1.563
  22051792.320    -4542430.698 7  -3539552.20422        22.250           1.906
  22895638.703    -1803646.492 6  -1405437.75121        18.250           0.969
  23113033.023     -141864.416 6        -0.25231        12.500           0.563
 91  6 24 16 42 30.0000000  0  6G18G16G19G 2G11G 6
  22657118.367     5272763.441 6   4108644.02921        18.000           0.875
  23275467.984     -281402.169 5   -219274.85121         9.750           0.500
  20773879.945     1329260.105 6   1035786.78622        19.000           1.594
  22044847.281    -4578936.081 7  -3567997.94322        22.000           2.031
  22894119.781    -1811626.909 6  -1411656.25221        18.750           1.031
  23106285.047     -177287.127 6    -27602.34421        12.250           0.531
 91  6 24 16 42 45.0000000  0  5G18G16G19G 2G11
  22666530.484     5322249.995 6   4147204.94821        17.500           0.875
  23276445.555     -276284.822 5   -215287.32121        10.250           0.531
  20776694.813     1344059.718 6   1047318.94722        19.500           1.594
  22037912.008    -4615373.264 7  -3596390.53522        21.750           2.000
  22892628.711    -1819458.912 6  -1417759.11421        18.750           1.156
 91  6 24 16 43  0.0000000  0  5G18G16G19G 2G11
  22675963.461     5371791.702 6   4185808.82421        18.500           0.906
  23277442.578     -271038.158 5   -211199.02821        10.250           0.406
  20779522.813     1358916.819 6   1058895.90422        19.000           1.656
  22030987.453    -4651745.897 7  -3624732.83222        21.000           1.938
  22891168.773    -1827146.259 6  -1423749.25621        19.500           1.094
 91  6 24 16 43 15.0000000  0  5G18G16G19G 2G11
  22685399.688     5421390.434 6   4224457.15821        18.250           0.844
  23278461.523     -265660.132 5   -207008.37321        10.250           0.531
  20782361.898     1373833.508 6   1070519.29522        19.250           1.750
  22024084.031    -4688051.762 7  -3653023.09622        22.000           2.031
  22889730.133    -1834686.747 6  -1429624.96021        18.750           1.188
 91  6 24 16 43 30.0000000  0  5G18G16G19G 2G11
  22694847.867     5471047.511 6   4263150.93921        18.000           0.938
  23279511.117     -260149.576 5   -202714.42521        10.500           0.500
  20785216.055     1388811.039 6   1082190.09822        17.750           1.625
  22017186.313    -4724289.417 7  -3681260.20822        22.000           1.938
  22888326.523    -1842078.900 6  -1435385.08021        19.250           1.125
 91  6 24 16 43 45.0000000  0  5G18G16G19G 2G11
  22704308.477     5520756.870 6   4301885.47621        17.250           0.844
  23280586.922     -254511.801 5   -198321.35921        10.750           0.531
  20788072.977     1403844.149 6   1093904.19422        19.000           1.625
  22010304.063    -4760464.112 7  -3709448.26722        22.250           1.875
  22886946.758    -1849327.976 6  -1441033.70621        19.250           1.156
 91  6 24 16 44  0.0000000  0  5G18G16G19G 2G11
  22713779.609     5570521.134 6   4340662.79221        17.250           0.813
  23281685.805     -248744.276 5   -193827.20821        10.750           0.500
  20790946.242     1418935.551 6   1105663.72322        18.250           1.688
  22003430.500    -4796572.971 7  -3737585.02322        21.750           1.969
  22885593.398    -1856431.164 6  -1446568.64721        19.000           1.031
 91  6 24 16 44 15.0000000  0  5G18G16G19G 2G11
  22723259.586     5620342.816 6   4379484.83821        18.000           0.906
  23282806.570     -242844.576 5   -189230.05121        11.000           0.469
  20793827.930     1434087.786 6   1117470.65822        18.750           1.656
  21996572.836    -4832613.306 7  -3765668.39622        21.750           1.938
  22884272.719    -1863385.804 6  -1451987.84621        19.500           0.969
 91  6 24 16 44 30.0000000  0  5G18G16G19G 2G11
  22732751.742     5670218.968 6   4418349.34121        17.750           0.781
  23283957.781     -236814.972 5   -184531.67321        11.000           0.406
  20796723.578     1449298.318 6   1129323.02022        19.000           1.688
  21989727.391    -4868587.673 7  -3793700.34922        21.750           2.094
  22882976.625    -1870194.174 6  -1457293.07221        19.500           1.063
 91  6 24 16 44 45.0000000  0  5G18G16G19G 2G11
  22742252.656     5720150.684 6   4457257.13921        17.750           0.813
  23285132.859     -230654.569 5   -179731.36621        11.000           0.375
  20799624.398     1464568.752 6   1141222.05122        18.500           1.781
  21982892.672    -4904494.366 7  -3821679.57522        21.750           2.063
  22881707.719    -1876854.667 6  -1462483.06721        19.500           1.031
 91  6 24 16 45  0.0000000  0  5G18G16G19G 2G11
  22751763.078     5770135.532 6   4496206.32421        17.500           0.781
  23286324.617     -224366.008 5   -174831.19721        11.250           0.406
  20802545.547     1479896.548 6   1153165.78422        17.750           1.625
  21976079.375    -4940335.958 7  -3849608.07122        22.750           2.094
  22880465.219    -1883369.838 6  -1467559.82521        18.750           1.000
 91  6 24 16 45 15.0000000  0  5G18G16G19G 2G11
  22761282.109     5820171.605 6   4535195.43421        16.750           0.781
  23287545.828     -217950.611 5   -169832.19921        10.750           0.438
  20805472.727     1495280.170 6   1165153.01622        18.750           1.688
  21969264.797    -4976113.773 7  -3877486.87022        21.750           2.063
  22879255.766    -1889741.009 6  -1472524.37021        19.000           0.938
 91  6 24 16 45 30.0000000  0  5G18G16G19G 2G11
  22770819.992     5870261.287 6   4574226.32021        17.500           0.844
  23288792.438     -211405.931 5   -164732.43621        11.000           0.469
  20808408.883     1510722.320 6   1177185.85422        18.250           1.656
  21962469.078    -5011825.076 7  -3905313.83322        22.250           2.031
  22878071.141    -1895965.416 6  -1477374.55221        19.500           1.063
 91  6 24 16 45 45.0000000  0  5G18G16G19G 2G11
  22780362.000     5920405.202 6   4613299.46121        17.000           0.875
  23290058.578     -204731.178 5   -159531.35821        11.250           0.469
  20811359.242     1526223.804 6   1189264.92522        19.000           1.625
  21955687.617    -5047468.759 7  -3933088.12322        21.750           2.094
  22876912.563    -1902042.151 6  -1482109.66921        18.500           1.063
 91  6 24 16 46  0.0000000  0  5G18G16G19G 2G11
  22789914.672     5970605.838 6   4652416.78921        17.000           0.750
  23291354.953     -197924.081 5   -154227.14121        11.750           0.500
  20814323.180     1541787.131 6   1201392.18822        18.250           1.625
  21948919.750    -5083042.258 7  -3960807.71022        22.500           2.094
  22875786.844    -1907968.473 6  -1486727.58221        19.000           1.063
 91  6 24 16 46 15.0000000  0  5G18G16G19G 2G11
  22799476.102     6020858.167 6   4691574.40921        16.500           0.906
  23292676.219     -190989.451 5   -148823.55321        11.500           0.375
  20817295.164     1557407.666 6   1213564.02022        18.500           1.625
  21942164.195    -5118550.135 7  -3988476.17622        23.250           2.156
  22874687.078    -1913748.958 6  -1491231.85521        18.750           1.063
 91  6 24 16 46 30.0000000  0  5G18G16G19G 2G11
  22809048.664     6071158.347 6   4730769.29821        16.500           0.813
  23294023.813     -183930.608 5   -143323.18021        11.750           0.406
  20820281.266     1573082.085 6   1225777.84122        17.500           1.656
  21935414.086    -5153995.758 7  -4016096.12622        22.750           2.031
  22873614.633    -1919386.964 6  -1495625.10821        19.250           1.094
 91  6 24 16 46 45.0000000  0  5G18G16G19G 2G11
  22818628.516     6121510.738 6   4770004.88521        16.750           0.844
  23295385.719     -176743.729 5   -137723.00021        10.500           0.438
  20823271.711     1588814.704 6   1238037.01722        18.750           1.656
  21928686.078    -5189374.658 7  -4043664.08722        23.500           2.094
  22872568.094    -1924878.127 6  -1499903.92721        18.500           1.063
 91  6 24 16 47  0.0000000  0  5G18G16G19G 2G11
  22828217.656     6171913.192 6   4809279.49321        16.250           0.813
  23296779.281     -169430.267 5   -132024.23621        10.500           0.344
  20826277.102     1604603.755 6   1250340.18122        18.750           1.594
  21921963.633    -5224688.345 7  -4071181.22722        23.250           1.906
  22871552.102    -1930224.015 6  -1504069.55321        18.750           1.063
 91  6 24 16 47 15.0000000  0  5G18G16G19G 2G11
  22837823.211     6222367.089 6   4848594.17621        16.750           0.750
  23298193.164     -161988.819 5   -126225.70421        10.250           0.375
  20829290.852     1620450.722 6   1262688.45722        18.750           1.594
  21915256.055    -5259935.312 7  -4098646.38422        23.250           1.969
  22870563.742    -1935423.055 6  -1508120.74921        18.750           1.000
 91  6 24 16 47 30.0000000  0  5G18G16G19G 2G11
  22847431.617     6272873.128 6   4887949.48221        16.500           0.813
  23299639.297     -154418.479 5   -120326.76321        11.250           0.406
  20832317.000     1636356.631 6   1275082.66122        18.750           1.688
  21908562.781    -5295114.373 7  -4126058.62822        23.750           1.906
  22869600.656    -1940473.979 6  -1512056.52521        18.000           1.094
 91  6 24 16 47 45.0000000  0  5G18G16G19G 2G11
  22857052.859     6323429.427 6   4927343.96621        16.000           0.875
  23301103.766     -146720.841 5   -114328.60621        11.250           0.375
  20835354.547     1652320.169 6   1287521.76822        19.000           1.750
  21901881.625    -5330226.796 7  -4153418.94422        23.750           1.906
  22868666.789    -1945378.169 6  -1515877.96921        18.000           1.063
 91  6 24 16 48  0.0000000  0  5G18G16G19G 2G11
  22866685.773     6374038.712 6   4966779.72421        16.000           0.813
  23302590.164     -138893.788 5   -108229.61621        10.250           0.344
  20838408.141     1668344.020 6   1300007.87522        18.500           1.719
  21895213.023    -5365269.779 7  -4180725.16422        23.750           1.969
  22867761.906    -1950132.943 6  -1519582.99321        18.250           1.156
 91  6 24 16 48 15.0000000  0  5G18G16G19G 2G11
  22876322.453     6424697.527 6   5006254.07721        15.000           0.844
  23304100.820     -130940.641 5   -102032.38821        10.000           0.375
  20841465.328     1684424.969 6   1312538.47722        19.250           1.750
  21888558.594    -5400246.611 7  -4207979.81322        24.500           1.938
  22866886.758    -1954741.433 6  -1523174.02221        18.250           1.031
 91  6 24 16 48 30.0000000  0  5G18G16G19G 2G11
  22885974.250     6475406.696 6   5045767.66421        15.750           0.906
  23305641.102     -122860.122 5    -95735.89921        10.500           0.250
  20844537.172     1700564.267 6   1325114.54422        18.500           1.813
  21881913.047    -5435155.935 7  -4235181.87622        23.750           1.938
  22866035.711    -1959202.254 6  -1526649.98821        18.250           1.000
 91  6 24 16 48 45.0000000  0  5G18G16G19G 2G11
  22895633.133     6526164.011 6   5085318.76721        16.500           0.719
  23307202.922     -114654.496 5    -89341.90721        10.500           0.313
  20847618.664     1716759.586 6   1337734.26422        19.000           1.906
  21875282.484    -5469999.694 7  -4262332.84122        23.250           2.031
  22865216.477    -1963517.504 6  -1530012.52121        19.000           1.000
 91  6 24 16 49  0.0000000  0  5G18G16G19G 2G11
  22905299.680     6576970.951 6   5124908.54521        15.500           0.656
  23308787.547     -106321.929 5    -82849.00721        11.000           0.438
  20850711.547     1733012.918 6   1350399.19022        18.250           1.906
  21868665.766    -5504776.066 7  -4289431.30522        23.750           2.094
  22864423.602    -1967685.346 6  -1533260.18821        19.000           0.969
 91  6 24 16 49 15.0000000  0  5G18G16G19G 2G11
  22914974.305     6627829.745 6   5164538.73521        14.500           0.656
  23310399.133      -97860.095 5    -76255.39521        11.250           0.281
  20853818.086     1749326.861 7   1363111.34522        20.000           1.844
  21862060.719    -5539482.381 7  -4316475.17322        23.250           2.063
  22863658.344    -1971703.102 6  -1536390.90921        18.500           0.906
 91  6 24 16 49 30.0000000  0  5G18G16G19G 2G11
  22924666.938     6678737.041 6   5204206.71621        15.500           0.781
  23312034.406      -89272.329 5    -69563.63721        11.500           0.375
  20856932.359     1765698.174 6   1375868.20822        19.000           1.875
  21855473.648    -5574121.707 7  -4343466.84222        24.000           2.094
  22862920.805    -1975573.794 6  -1539407.03121        18.000           1.000
 91  6 24 16 49 45.0000000  0  5G18G16G19G 2G11
  22934363.430     6729694.771 6   5243913.99721        15.000           0.781
  23313683.688      -80556.683 5    -62772.24021        10.750           0.469
  20860057.688     1782129.098 7   1388671.51222        20.000           1.813
  21848892.500    -5608691.702 7  -4370404.48222        23.750           2.156
  22862211.320    -1979295.116 6  -1542306.76621        17.250           1.000
 91  6 24 16 50  0.0000000  0  5G18G16G19G 2G11
  22944069.313     6780702.036 6   5283659.85721        15.000           0.750
  23315375.023      -71713.781 5    -55881.66221        11.250           0.406
  20863197.539     1798618.715 6   1401520.55822        19.000           1.938
  21842323.969    -5643193.118 7  -4397288.68522        23.500           2.094
  22861533.906    -1982867.831 6  -1545090.70221        18.500           1.063
 91  6 24 16 50 15.0000000  0  5G18G16G19G 2G11
  22953788.547     6831757.929 6   5323443.63021        16.000           0.781
  23317074.906      -62744.672 5    -48892.75821        10.500           0.438
  20866344.320     1815166.453 6   1414414.89722        19.250           1.875
  21835773.945    -5677626.534 7  -4424119.90122        23.750           1.938
  22860881.039    -1986292.608 6  -1547759.34621        18.250           1.094
 91  6 24 16 50 30.0000000  0  5G18G16G19G 2G11
  22963506.430     6882865.469 6   5363267.64021        14.750           0.688
  23318815.219      -53645.979 5    -41802.89121        11.250           0.375
  20869507.922     1831775.750 6   1427357.19522        19.250           1.938
  21829231.641    -5711988.339 7  -4450895.33322        23.250           2.000
  22860257.805    -1989565.832 6  -1550309.91521        18.500           1.063
 91  6 24 16 50 45.0000000  0  5G18G16G19G 2G11
  22973243.242     6934020.187 6   5403128.40521        14.000           0.750
  23320571.844      -44422.049 5    -34615.41621        11.250           0.406
  20872677.117     1848442.388 6   1440344.17822        19.250           1.844
  21822706.570    -5746282.705 7  -4477618.19922        23.250           2.031
  22859667.555    -1992691.760 6  -1552745.70121        19.750           1.094
 91  6 24 16 51  0.0000000  0  5G18G16G19G 2G11
  22982985.133     6985221.867 6   5443025.76821        14.250           0.844
  23322350.422      -35072.986 5    -27330.43621        11.000           0.469
  20875861.867     1865166.563 6   1453375.99222        18.750           1.844
  21816193.711    -5780509.510 7  -4504288.43422        23.500           2.031
  22859098.086    -1995670.248 6  -1555066.60321        18.750           1.000
 91  6 24 16 51 15.0000000  0  5G18G16G19G 2G11
  22992743.773     7036472.941 6   5482961.61321        16.250           0.813
  23324150.633      -25596.432 5    -19946.13721        10.500           0.375
  20879054.836     1881950.831 6   1466454.63222        19.750           1.969
  21809695.227    -5814665.926 7  -4530903.81222        22.500           2.125
  22858556.625    -1998498.525 6  -1557270.46021        17.750           1.094
 91  6 24 16 51 30.0000000  0  5G18G16G19G 2G11
  23002500.617     7087769.898 6   5522933.22621        15.000           0.781
  23325973.609      -15995.991 5    -12465.27821        10.750           0.375
  20882260.063     1898792.002 6   1479577.61522        18.750           1.844
  21803206.320    -5848755.206 7  -4557466.87422        23.000           2.250
  22858046.133    -2001179.913 6  -1559359.85121        18.000           1.000
 91  6 24 16 51 45.0000000  0  5G18G16G19G 2G11
  23012272.414     7139112.772 6   5562940.61421        14.750           0.875
  23327831.234       -6271.460 5     -4887.72921        11.500           0.438
  20885474.078     1915690.413 6   1492745.20122        19.000           1.813
  21796734.953    -5882776.802 7  -4583977.19122        23.000           2.375
  22857565.789    -2003713.921 6  -1561334.40121        18.500           1.094
 91  6 24 16 52  0.0000000  0  5G18G16G19G 2G11
  23022053.961     7190502.275 6   5602984.31821        15.500           0.719
  23329699.523        3578.274 5      2787.37921        10.750           0.469
  20888700.953     1932646.901 6   1505958.04222        18.750           1.813
  21790274.516    -5916729.609 7  -4610433.91422        22.000           2.281
  22857113.031    -2006099.452 6  -1563193.26421        18.750           1.063
 91  6 24 16 52 15.0000000  0  5G18G16G19G 2G11
  23031838.672     7241936.175 6   5643062.63521        14.750           0.719
  23331594.844       13550.609 5     10558.02221        10.500           0.563
  20891935.336     1949659.434 6   1519214.55122        19.500           1.844
  21783820.820    -5950615.800 7  -4636838.71422        21.500           2.375
  22856683.422    -2008338.780 6  -1564938.19121        18.250           1.031
 91  6 24 16 52 30.0000000  0  5G18G16G19G 2G11
  23041631.414     7293416.324 6   5683176.98321        13.500           0.656
  23333528.063       23647.906 5     18426.03121        11.000           0.594
  20895189.563     1966730.165 6   1532516.40522        19.500           1.875
  21777386.539    -5984433.233 7  -4663189.94522        21.750           2.250
  22856288.945    -2010429.635 6  -1566567.43521        18.750           1.125
 91  6 24 16 52 45.0000000  0  5G18G16G19G 2G11
  23051439.078     7344939.792 6   5723325.08221        14.250           0.656
  23335463.305       33867.348 5     26389.22421        10.250           0.469
  20898442.852     1983856.504 6   1545861.59822        19.250           1.750
  21770968.266    -6018184.323 7  -4689489.48122        22.250           2.250
  22855919.148    -2012374.384 6  -1568082.81221        19.000           1.094
 91  6 24 16 53  0.0000000  0  5G18G16G19G 2G11
  23061253.305     7396510.287 6   5763509.83721        14.500           0.594
  23337433.414       44212.736 5     34450.54421        10.750           0.469
  20901717.039     2001042.521 6   1559253.28622        18.250           1.719
  21764558.320    -6051864.775 7  -4715733.97722        22.750           2.250
  22855577.063    -2014168.925 6  -1569481.17221        18.750           1.125
 91  6 24 16 53 15.0000000  0  5G18G16G19G 2G11
  23071073.250     7448130.322 6   5803733.19121        13.500           0.688
  23339430.820       54686.649 5     42612.02721        10.500           0.469
  20904997.539     2018290.653 6   1572693.38122        19.500           1.719
  21758163.539    -6085472.037 7  -4741921.43922        22.250           2.406
  22855264.375    -2015810.724 6  -1570760.49021        18.500           1.188
 91  6 24 16 53 30.0000000  0  5G18G16G19G 2G11
  23080907.461     7499795.365 6   5843991.60421        14.500           0.656
  23341439.461       65284.274 5     50869.90021         9.750           0.469
  20908290.766     2035596.639 6   1586178.55722        18.500           1.719
  21751780.141    -6119010.323 7  -4768055.15522        21.750           2.344
  22854978.984    -2017304.044 6  -1571924.12721        18.500           1.063
 91  6 24 16 53 45.0000000  0  5G18G16G19G 2G11
  23090750.594     7551507.455 6   5884286.68121        15.250           0.531
  23343484.234       76008.048 5     59226.08621         9.750           0.406
  20911594.188     2052962.841 6   1599710.65122        19.000           1.781
  21745413.023    -6152477.421 7  -4794133.39322        22.250           2.406
  22854724.461    -2018646.454 6  -1572970.16621        19.000           1.031
 91  6 24 16 54  0.0000000  0  5G18G16G19G 2G11
  23100599.891     7603267.400 6   5924619.06121        15.250           0.563
  23345543.875       86858.831 5     67681.22421         9.250           0.344
  20914913.797     2070390.326 6   1613290.49922        19.000           1.719
  21739057.727    -6185872.244 7  -4820155.32722        22.500           2.375
  22854499.367    -2019837.046 6  -1573897.89821        19.000           1.156
 91  6 24 16 54 15.0000000  0  5G18G16G19G 2G11
  23110455.563     7655071.749 6   5964986.03821        14.750           0.438
  23347634.047       97833.435 5     76232.85821         9.750           0.375
  20918239.227     2087875.992 6   1626915.68822        18.750           1.688
  21732710.484    -6219197.276 7  -4846122.86922        21.750           2.344
  22854301.688    -2020878.674 6  -1574709.55321        19.750           1.188
 91  6 24 16 54 30.0000000  0  5G18G16G19G 2G11
  23120319.977     7706917.823 6   6005385.52221        14.750           0.500
  23349752.531      108929.044 5     84878.77121        10.500           0.375
  20921577.398     2105417.733 6   1640584.56222        18.000           1.656
  21726387.023    -6252454.898 7  -4872037.88522        22.500           2.406
  22854130.344    -2021773.533 6  -1575406.84621        19.500           1.094
 91  6 24 16 54 45.0000000  0  5G18G16G19G 2G11
  23130199.180     7758809.340 6   6045820.42421        14.750           0.531
  23351887.445      120149.417 5     93621.90021        10.000           0.438
  20924927.258     2123019.186 6   1654299.97122        18.500           1.688
  21720074.898    -6285641.316 7  -4897897.41722        22.500           2.406
  22853991.172    -2022517.949 6  -1575986.90221        19.750           1.125
 91  6 24 16 55  0.0000000  0  5G18G16G19G 2G11
  23140077.570     7810744.853 6   6086289.60821        13.250           0.563
  23354041.633      131493.231 5    102461.21121        11.000           0.406
  20928287.836     2140679.184 6   1668060.98922        18.250           1.563
  21713771.742    -6318757.711 7  -4923702.39222        22.750           2.438
  22853875.563    -2023113.115 6  -1576450.67221        19.500           1.000
 91  6 24 16 55 15.0000000  0  5G18G16G19G 2G11
  23149975.555     7862723.178 6   6126792.14921        13.750           0.469
  23356227.273      142959.458 5    111395.90721        10.500           0.469
  20931656.961     2158396.969 6   1681867.04722        18.500           1.594
  21707484.961    -6351804.695 7  -4949453.27622        22.750           2.469
  22853789.375    -2023559.656 6  -1576798.62321        19.000           1.031
 91  6 24 16 55 30.0000000  0  5G18G16G19G 2G11
  23159869.570     7914742.618 6   6167326.73121        13.250           0.594
  23358430.570      154546.352 5    120424.64621        10.500           0.469
  20935042.000     2176171.065 6   1695716.97622        18.250           1.688
  21701208.398    -6384783.638 7  -4975151.14022        23.000           2.313
  22853734.461    -2023859.077 6  -1577031.94521        19.750           1.094
 91  6 24 16 55 45.0000000  0  5G18G16G19G 2G11
  23169779.086     7966806.113 6   6207895.64221        13.000           0.469
  23360658.820      166256.677 5    129549.56921        10.500           0.438
  20938434.406     2194004.256 6   1709612.96222        18.750           1.531
  21694941.703    -6417691.672 7  -5000793.74922        23.250           2.313
  22853702.633    -2024008.290 6                        18.750
 91  6 24 16 56  0.0000000  0  5G18G16G19G 2G11
  23179690.586     8018912.218 6   6248497.73821        12.750           0.531
  23362911.227      178089.474 5    138769.91121        11.000           0.469
  20941844.734     2211895.766 6   1723554.37922        17.750           1.688
  21688694.633    -6450529.597 7  -5026381.73122        23.750           2.313
  22853703.648    -2024008.374 6                        19.250
 91  6 24 16 56 15.0000000  0  5G18G16G19G 2G11
  23189619.523     8071059.533 6   6289131.96121        13.750           0.625
  23365189.875      190043.473 5    148084.69821        10.250           0.438
  20945255.578     2229844.401 6   1737540.32122        18.500           1.500
  21682458.813    -6483298.366 7  -5051915.82022        24.250           2.313
  22853733.719    -2023860.399 6                        19.250
 91  6 24 16 56 30.0000000  0  5G18G16G19G 2G11
  23199546.758     8123250.087 6   6329799.87421        13.500           0.594
  23367479.984      202121.115 5    157495.83421        10.250           0.469
  20948686.414     2247852.605 6   1751572.68022        18.000           1.563
  21676238.078    -6515995.608 7  -5077394.18822        24.250           2.344
  22853791.477    -2023561.920 6                        18.500
 91  6 24 16 56 45.0000000  0  5G18G16G19G 2G11
  23209484.375     8175482.243 6   6370500.19621        13.500           0.563
  23369808.805      214320.294 5    167001.66621        10.750           0.469
  20952120.258     2265918.841 6   1765650.25622        18.750           1.563
  21670027.805    -6548622.814 7  -5102817.96922        24.000           2.375
  22853875.617    -2023114.573 6  -1576451.83521        18.500           1.094
 91  6 24 16 57  0.0000000  0  5G18G16G19G 2G11
  23219436.727     8227754.461 6   6411231.74521        14.000           0.500
  23372145.320      226639.443 5    176600.99521         9.500           0.469
  20955572.000     2284041.749 6   1779771.99822        19.000           1.594
  21663832.164    -6581181.295 7  -5128188.20622        23.750           2.250
  22853987.594    -2022519.588 6  -1575988.20421        18.500           1.094
 91  6 24 16 57 15.0000000  0  5G18G16G19G 2G11
  23229392.586     8280069.873 6   6451996.94521        14.500           0.500
  23374518.453      239081.760 5    186296.30021        10.250           0.469
  20959029.039     2302224.596 6   1793940.43422        17.750           1.500
  21657651.227    -6613667.614 7  -5153502.20322        24.250           2.250
  22854132.609    -2021773.598 6  -1575406.92221        18.750           1.094
 91  6 24 16 57 30.0000000  0  5G18G16G19G 2G11
  23239349.867     8332426.266 6   6492794.07021        13.750           0.531
  23376904.984      251645.777 5    196086.40321        10.250           0.406
  20962499.078     2320465.748 6   1808154.30122        17.750           1.500
  21651483.563    -6646083.322 7  -5178761.18322        24.250           2.406
  22854301.578    -2020878.229 6  -1574709.23621        18.500           0.938
 91  6 24 16 57 45.0000000  0  5G18G16G19G 2G11
  23249325.148     8384827.934 6   6533626.49221        13.750           0.594
  23379326.164      264335.168 5    205974.22921        10.250           0.500
  20965983.695     2338769.533 6   1822416.97922        18.000           1.531
  21645328.016    -6678423.849 7  -5203961.58323        23.750           2.500
  22854500.578    -2019829.173 6  -1573891.79621        18.250           1.156
 91  6 24 16 58  0.0000000  0  5G18G16G19G 2G11
  23259302.641     8437270.579 6   6574490.84521        13.500           0.438
  23381760.648      277145.954 5    215956.65421        10.500           0.406
  20969476.438     2357132.067 6   1836725.43922        18.000           1.531
  21639186.945    -6710693.137 7  -5229106.46922        24.250           2.250
  22854727.734    -2018630.324 6  -1572957.63921        18.000           1.031
 91  6 24 16 58 15.0000000  0  5G18G16G19G 2G11
  23269291.531     8489753.052 6   6615386.21021        13.750           0.438
  23384217.273      290076.861 5    226032.67421        10.250           0.500
  20972982.078     2375552.317 6   1851078.86422        18.250           1.656
  21633058.594    -6742892.260 7  -5254196.68722        23.750           2.313
  22854982.914    -2017282.766 6  -1571907.60121        17.750           1.156
 91  6 24 16 58 30.0000000  0  5G18G16G19G 2G11
  23279287.445     8542275.853 6   6656313.00721        13.750           0.500
  23386702.508      303128.543 5    236202.77421        10.250           0.406
  20976498.547     2394031.126 6   1865477.93022        18.000           1.625
  21626944.781    -6775020.173 7  -5279231.41522        23.750           2.250
  22855269.625    -2015785.519 6  -1570740.92021        18.000           1.063
 91  6 24 16 58 45.0000000  0  5G18G16G19G 2G11
  23289292.016     8594835.074 6   6697268.19521        15.000           0.531
  23389208.953      316297.182 5    246464.05521        10.500           0.313
  20980024.898     2412565.070 6   1879919.96222        17.500           1.594
  21620841.945    -6807080.367 7  -5304213.37522        23.500           2.344
  22855581.586    -2014142.133 6  -1569460.36721        18.000           1.094
 91  6 24 16 59  0.0000000  0  5G18G16G19G 2G11
  23299302.852     8647436.650 6   6738256.38021        14.500           0.469
  23391742.422      329588.665 5    256821.02321        10.500           0.531
  20983569.305     2431160.234 6   1894409.68422        16.750           1.719
  21614756.703    -6839066.640 7  -5329137.73422        23.750           2.313
  22855924.680    -2012346.497 6  -1568061.17321        17.750           1.094
 91  6 24 16 59 15.0000000  0  5G18G16G19G 2G11
  23309316.953     8700079.682 6   6779276.86921        13.750           0.500
  23394288.016      343002.043 5    267272.98821         9.750           0.375
  20987117.305     2449815.732 6   1908946.43022        18.500           1.656
  21608684.445    -6870979.596 7  -5354004.96422        23.750           2.375
  22856293.172    -2010399.322 6  -1566543.89021        18.250           1.094
 91  6 24 16 59 30.0000000  0  5G18G16G19G 2G11
  23319338.180     8752763.079 6   6820328.80621        13.500           0.469
  23396872.961      356536.976 5    277819.67021        10.750           0.438
  20990675.695     2468531.043 6   1923529.78022        18.500           1.719
  21602623.781    -6902819.733 7  -5378815.45222        23.000           2.375
  22856692.414    -2008301.214 6  -1564909.01621        17.750           1.094
 91  6 24 16 59 45.0000000  0  5G18G16G19G 2G11
  23329373.609     8805484.070 6   6861410.04221        14.000           0.563
  23399466.289      370190.250 5    288458.57221        10.250           0.406
  20994248.477     2487303.375 6   1938157.56422        18.000           1.844
  21596578.906    -6934589.757 7  -5403571.30522        23.750           2.469
  22857121.969    -2006054.910 6  -1563158.66421        18.000           1.156
 91  6 24 17  0  0.0000000  0  5G18G16G19G 2G11
  23339414.188     8858243.613 6   6902521.31521        14.000           0.531
  23402085.656      383963.217 5    299190.73021         9.500           0.500
  20997831.602     2506134.207 6   1952830.93122        18.250           1.750
  21590546.328    -6966288.364 7  -5428271.50722        22.750           2.406
  22857577.430    -2003659.026 6  -1561291.74421        18.250           1.281
 91  6 24 17  0 15.0000000  0  5G18G16G19G 2G11
  23349460.984     8911048.532 6   6943667.93521        14.500           0.563
  23404723.797      397862.120 5    310021.01821         9.250           0.438
  21001426.500     2525030.358 6   1967555.19522        18.500           1.844
  21584530.352    -6997908.630 7  -5452910.66922        23.250           2.438
  22858061.289    -2001106.778 6  -1559302.98621        17.250           1.125
 91  6 24 17  0 30.0000000  0  5G18G16G19G 2G11
  23359517.063     8963890.102 6   6984843.14021        14.000           0.563
  23407397.742      411878.621 5    320942.96221        10.750           0.375
  21005038.477     2543983.517 6   1982323.87622        18.250           1.813
  21578526.594    -7029458.568 7  -5477495.01623        23.250           2.500
  22858575.539    -1998406.595 6  -1557198.96121        17.500           1.156
 91  6 24 17  0 45.0000000  0  5G18G16G19G 2G11
  23369580.039     9016772.443 6   7026050.09421        13.750           0.531
  23410083.656      426017.005 5    331959.86821        10.250           0.500
  21008652.617     2562998.186 6   1997140.49822        18.250           1.719
  21572541.008    -7060933.820 7  -5502021.18123        23.750           2.563
  22859122.180    -1995554.006 6  -1554976.17121        18.000           1.125
 91  6 24 17  1  0.0000000  0  5G18G16G19G 2G11
  23379650.914     9069695.847 6   7067289.06121        12.750           0.563
  23412801.625      440277.782 5    343072.11221        10.750           0.406
  21012283.570     2582075.106 6   2012005.62022        18.500           1.781
  21566561.602    -7092333.463 7  -5526488.42523        23.500           2.625
  22859694.281    -1992548.058 6  -1552633.88621        18.000           1.156
 91  6 24 17  1 15.0000000  0  5G18G16G19G 2G11
  23389734.484     9122657.642 6   7108557.91221        13.250           0.625
  23415542.289      454657.859 5    354277.34821        10.500           0.500
  21015924.664     2601211.560 6   2026917.13622        19.000           1.688
  21560602.289    -7123660.218 7  -5550898.87723        23.750           2.563
  22860292.188    -1989391.579 6  -1550174.29321        17.750           1.094
 91  6 24 17  1 30.0000000  0  5G18G16G19G 2G11
  23399814.117     9175654.707 6   7149854.27321        13.250           0.469
  23418297.625      469154.524 5    365573.43821        10.000           0.375
  21019577.078     2620404.593 6   2041872.73922        18.250           1.750
  21554654.438    -7154916.994 7  -5575254.79323        24.000           2.656
  22860921.195    -1986087.471 6  -1547599.67621        17.500           1.156
 91  6 24 17  1 45.0000000  0  5G18G16G19G 2G11
  23409904.289     9228689.498 6   7191180.02421        12.000           0.563
  23421076.633      483770.022 5    376962.12321        10.250           0.469
  21023240.555     2639657.150 6   2056874.72122        18.500           1.844
  21548721.383    -7186100.679 7  -5599553.76123        24.500           2.719
  22861575.719    -1982632.846 6  -1544907.76721        17.500           0.969
 91  6 24 17  2  0.0000000  0  5G18G16G19G 2G11
  23420007.586     9281761.670 5   7232534.89821        11.750           0.625
  23423884.000      498503.961 5    388443.08521        10.500           0.375
  21026916.336     2658968.703 6   2071922.67322        18.750           1.844
  21542797.102    -7217211.594 7  -5623796.02523        23.500           2.625
  22862264.328    -1979028.089 6  -1542098.87721        18.000           1.094
 91  6 24 17  2 15.0000000  0  5G18G16G19G 2G11
  23430112.125     9334870.914 5   7273918.66021        11.500           0.563
  23426710.398      513356.629 5    400016.54721        10.500           0.344
  21030602.297     2678339.796 6   2087017.01722        18.750           1.938
  21536892.156    -7248249.261 7  -5647981.21123        24.500           2.563
  22862976.070    -1975272.868 6  -1539172.73821        17.250           1.063
 91  6 24 17  2 30.0000000  0  5G18G16G19G 2G11
  23440229.320     9388023.664 6   7315336.30121        12.250           0.688
  23429559.859      528334.210 5    411687.37421        10.250           0.500
  21034302.086     2697776.900 6   2102162.79922        18.250           2.031
  21531003.281    -7279207.149 7  -5672104.24223        24.750           2.688
  22863722.383    -1971360.680 6  -1536124.27221        17.500           1.031
 91  6 24 17  2 45.0000000  0  5G18G16G19G 2G11
  23450352.773     9441223.545 6   7356790.68421        12.000           0.625
  23432429.703      543440.100 5    423458.18221        10.000           0.500
  21038011.234     2717283.730 6   2117362.91422        18.250           1.875
  21525125.359    -7310081.513 7  -5696162.17823        24.750           2.625
  22864498.813    -1967287.675 6  -1532950.50821        18.500           1.156
 91  6 24 17  3  0.0000000  0  5G18G16G19G 2G11
  23460480.484     9494459.830 6   7398273.44521        12.000           0.594
  23435332.359      558663.846 5    435320.81721        10.500           0.438
  21041734.906     2736849.956 6   2132609.31322        18.000           2.000
  21519265.289    -7340882.554 7  -5720162.98623        24.500           2.625
  22865302.969    -1963064.278 6  -1529659.55821        19.250           1.063
 91  6 24 17  3 15.0000000  0  5G18G16G19G 2G11
  23470624.164     9547731.663 6   7439783.92221        12.500           0.656
  23438255.969      574004.376 5    447274.43821        10.250           0.375
  21045470.422     2756474.973 6   2147901.53022        18.250           1.969
  21513417.273    -7371610.845 7  -5744107.10123        24.000           2.656
  22866134.141    -1958691.220 6  -1526251.98521        19.250           1.031
 91  6 24 17  3 30.0000000  0  5G18G16G19G 2G11
  23480762.477     9601037.940 5   7481321.20021        11.750           0.531
  23441190.789      589461.146 5    459318.64021        10.250           0.406
  21049216.320     2776158.150 6   2163239.05822        18.250           2.000
  21507582.578    -7402266.998 7  -5767995.00423        24.000           2.719
  22866997.031    -1954169.141 6  -1522728.28321        19.250           1.031
 91  6 24 17  3 45.0000000  0  5G18G16G19G 2G11
  23490916.031     9654384.343 5   7522889.76221        11.500           0.625
  23444155.945      605039.790 5    471457.81221        10.500           0.406
  21052973.719     2795905.323 6   2178626.45122        19.250           1.875
  21501765.211    -7432845.172 7  -5791822.14623        24.000           2.656
  22867885.984    -1949492.236 6  -1519083.95721        19.500           1.031
 91  6 24 17  4  0.0000000  0  5G18G16G19G 2G11
  23501070.609     9707764.708 5   7564484.78821        11.250           0.656
  23447139.438      620733.864 5    483686.92521        10.500           0.344
  21056744.117     2815710.451 6   2194059.00522        19.250           1.844
  21495960.914    -7463351.193 7  -5815593.07223        24.000           2.625
  22868803.266    -1944666.529 6  -1515323.67221        19.250           1.094
 91  6 24 17  4 15.0000000  0  5G18G16G19G 2G11
  23511240.117     9761180.513 5   7606107.41121        11.250           0.500
  23450156.078      636545.042 5    496007.29421        10.750           0.281
  21060522.102     2835575.502 6   2209538.25922        19.250           1.781
  21490171.188    -7493783.036 7  -5839306.18723        24.000           2.688
  22869751.438    -1939690.148 7  -1511445.97621        20.250           0.969
 91  6 24 17  4 30.0000000  0  5G18G16G19G 2G11
  23521408.805     9814634.516 6   7647759.81521        12.000           0.563
  23453185.359      652476.446 5    508421.34421        10.250           0.375
  21064318.023     2855503.599 6   2225066.63322        19.000           1.844
  21484391.852    -7524137.450 7  -5862958.97223        24.000           2.688
  22870727.297    -1934559.941 6  -1507448.41621        19.750           1.031
 91  6 24 17  4 45.0000000  0  5G18G16G19G 2G11
  23531588.891     9868121.006 5   7689437.54621        11.500           0.500
  23456238.047      668521.996 5    520924.33021        10.750           0.469
  21068118.625     2875488.983 6   2240639.64822        19.000           1.719
  21478630.813    -7554420.333 7  -5886556.01123        24.000           2.625
  22871733.031    -1929281.703 7  -1503335.50421        20.000           1.063
 91  6 24 17  5  0.0000000  0  5G18G16G19G 2G11
  23541773.703     9921639.113 6   7731139.90221        12.250           0.375
  23459310.234      684681.044 5    533515.79021        10.500           0.344
  21071933.438     2895531.008 6   2256256.80422        18.750           1.656
  21472879.469    -7584632.198 7  -5910097.71823        23.750           2.656
  22872764.141    -1923856.273 6  -1499107.91521        19.750           1.000
 91  6 24 17  5 15.0000000  0  5G18G16G19G 2G11
  23551959.328     9975189.183 5   7772867.17621        11.000           0.500
  23462406.695      700954.210 5    546196.14021        10.500           0.344
  21075757.250     2915630.515 6   2271918.74422        18.750           1.625
  21467147.156    -7614772.130 7  -5933583.37723        24.500           2.625
  22873825.078    -1918282.819 7  -1494764.97921        20.000           1.063
 91  6 24 17  5 30.0000000  0  5G18G16G19G 2G11
  23562159.852    10028769.884 5   7814618.30121        11.500           0.438
  23465526.906      717339.674 5    558964.01821        10.500           0.313
  21079594.430     2935786.173 6   2287624.44722        18.250           1.719
  21461422.930    -7644841.185 7  -5957013.80623        23.750           2.719
  22874914.391    -1912562.631 7  -1490307.68521        20.000           1.031
 91  6 24 17  5 45.0000000  0  5G18G16G19G 2G11
  23572359.406    10082386.508 5   7856397.44221        11.000           0.406
  23468668.820      733842.819 5    571823.57521        10.000           0.313
  21083439.500     2956003.795 6   2303378.42122        19.000           1.656
  21455715.797    -7674833.811 7  -5980384.67623        24.000           2.656
  22876029.969    -1906689.916 7  -1485731.55921        20.250           1.094
 91  6 24 17  6  0.0000000  0  5G18G16G19G 2G11
  23582570.852    10136039.755 5   7898205.08521        11.500           0.375
  23471825.250      750464.617 5    584775.59321         9.750           0.344
  21087301.367     2976284.310 6   2319181.40622        18.500           1.750
  21450022.266    -7704748.930 7  -6003695.15223        24.000           2.625
  22877177.695    -1900663.634 7  -1481035.75421        20.250           1.094
 91  6 24 17  6 15.0000000  0  5G18G16G19G 2G11
  23592785.234    10189722.548 6   7940035.78221        12.250           0.406
  23475014.445      767197.621 5    597814.27121        10.250           0.313
  21091167.156     2996620.883 6   2335028.07622        18.500           1.688
  21444344.711    -7734593.381 7  -6026950.56223        24.250           2.625
  22878352.211    -1894490.854 6  -1476225.81021        19.750           1.063
 91  6 24 17  6 30.0000000  0  5G18G16G19G 2G11
  23603008.984    10243435.318 5   7981889.84821        11.500           0.438
  23478216.828      784042.670 5    610940.26021        10.000           0.406
  21095047.484     3017014.200 6   2350918.95422        18.000           1.625
  21438679.484    -7764366.416 7  -6050150.32623        23.750           2.688
  22879553.859    -1888170.963 7  -1471301.22821        20.000           1.000
 91  6 24 17  6 45.0000000  0  5G18G16G19G 2G11
  23613238.148    10297181.202 5   8023769.66721        11.500           0.438
  23481446.914      801003.051 5    624156.12321        10.000           0.375
  21098939.359     3037467.970 6   2366856.94922        18.000           1.656
  21433029.219    -7794064.149 7  -6073291.40423        24.000           2.719
  22880788.125    -1881700.275 7  -1466259.14521        20.500           0.969
 91  6 24 17  7  0.0000000  0  5G18G16G19G 2G11
  23623469.477    10350958.013 5   8065673.62021        10.750           0.469
  23484690.992      818076.278 5    637459.91221         9.500           0.375
  21102846.422     3057979.953 6   2382840.29822        18.500           1.750
  21427389.164    -7823688.837 7  -6096375.57023        23.750           2.656
  22882046.055    -1875081.004 7  -1461101.28421        20.500           1.031
 91  6 24 17  7 15.0000000  0  5G18G16G19G 2G11
  23633707.969    10404768.528 5   8107603.82321        10.250           0.594
  23487969.406      835265.418 5    650854.01321        10.750           0.281
  21106761.594     3078553.085 6   2398871.30022        19.250           1.625
  21421768.805    -7853237.360 7  -6119400.38723        24.000           2.531
  22883332.547    -1868310.039 7  -1455825.22221        20.250           1.031
 91  6 24 17  7 30.0000000  0  5G18G16G19G 2G11
  23643953.109    10458609.376 5   8149557.64621         9.750           0.469
  23491258.594      852567.368 5    664336.01321        10.500           0.375
  21110686.430     3099184.584 6   2414947.79022        19.000           1.656
  21416161.094    -7882712.517 7  -6142368.03423        24.000           2.594
  22884652.070    -1861390.562 7  -1450433.42221        20.500           1.031
 91  6 24 17  7 45.0000000  0  5G18G16G19G 2G11
  23654205.711    10512483.764 5   8191537.62321         9.500           0.469
  23494574.898      869984.790 5    677908.02321        10.750           0.375
  21114624.406     3119877.618 6   2431072.22322        19.000           1.594
  21410566.188    -7912110.953 7  -6165275.90023        24.000           2.656
  22885997.906    -1854319.441 7  -1444923.47121        20.750           1.000
 91  6 24 17  8  0.0000000  0  5G18G16G19G 2G11
  23664460.117    10566387.937 5   8233540.80221         9.250           0.563
  23497917.984      887514.018 5    691567.11821        11.500           0.406
  21118573.406     3140628.758 6   2447241.93022        18.750           1.625
  21404983.984    -7941436.175 7  -6188126.71923        23.750           2.563
  22887369.938    -1847100.085 7  -1439298.00521        20.750           1.000
 91  6 24 17  8 15.0000000  0  5G18G16G19G 2G11
  23674728.844    10620325.734 5   8275570.17121        10.250           0.469
  23501274.719      905159.207 5    705316.59221        11.250           0.375
  21122531.156     3161442.233 6   2463460.20622        18.750           1.750
  21399419.391    -7970683.850 7  -6210917.11423        24.250           2.563
  22888774.141    -1839728.295 7  -1433553.76521        20.250           1.063
 91  6 24 17  8 30.0000000  0  5G18G16G19G 2G11
  23684990.820    10674294.250 5   8317623.49021        10.000           0.500
  23504650.219      922917.207 5    719153.96821        11.000           0.406
  21126510.625     3182315.308 6   2479724.92722        18.500           1.719
  21393867.594    -7999856.677 7  -6233649.18723        24.000           2.594
  22890204.625    -1832206.851 6  -1427692.90821        19.750           0.969
 91  6 24 17  8 45.0000000  0  5G18G16G19G 2G11
  23695277.383    10728296.357 5   8359702.98621        11.000           0.500
  23508043.633      940790.648 5    733081.28821        10.250           0.406
  21130488.500     3203250.913 6   2496038.37422        18.750           1.719
  21388330.203    -8028951.582 7  -6256320.53523        24.000           2.594
  22891666.531    -1824532.963 6  -1421713.26521        19.750           1.094
 91  6 24 17  9  0.0000000  0  5G18G16G19G 2G11
  23705560.078    10782334.137 5   8401810.27921        10.750           0.469
  23511465.055      958781.944 5    747100.44321        10.000           0.313
  21134485.031     3224251.625 6   2512402.55222        18.000           1.688
  21382810.195    -8057966.176 7  -6278929.30223        24.500           2.688
  22893153.430    -1816704.141 6  -1415612.89721        19.750           1.156
 91  6 24 17  9 15.0000000  0  5G18G16G19G 2G11
  23715847.555    10836406.702 5   8443944.66221        10.500           0.469
  23514924.164      976890.392 5    761210.88421        10.250           0.313
  21138494.648     3245316.811 6   2528816.97822        18.750           1.688
  21377303.930    -8086900.830 7  -6301475.78123        24.500           2.594
  22894672.938    -1808721.026 6  -1409392.29821        19.500           1.063
 91  6 24 17  9 30.0000000  0  5G18G16G19G 2G11
  23726145.750    10890507.133 5   8486100.75821        11.750           0.406
  23518387.508      995108.953 5    775407.12721        10.250           0.250
  21142515.016     3266439.662 6   2545276.32822        19.000           1.656
  21371810.406    -8115762.307 7  -6323965.24123        25.000           2.719
  22896220.680    -1800590.402 6  -1403056.75421        18.750           1.031
 91  6 24 17  9 45.0000000  0  5G18G16G19G 2G11
  23736444.063    10944635.991 5   8528279.04521        10.750           0.500
  23521871.484     1013438.344 5    789689.73121         9.750           0.375
  21146543.688     3287621.363 6   2561781.53322        19.250           1.625
  21366331.281    -8144549.338 7  -6346396.69123        25.250           2.813
  22897797.805    -1792311.251 6  -1396605.48321        19.500           1.031
 91  6 24 17 10  0.0000000  0  5G18G16G19G 2G11
  23746750.141    10998795.415 5   8570481.13121        10.750           0.406
  23525377.359     1031880.842 5    804060.48821         9.500           0.375
  21150588.406     3308864.392 6   2578334.52822        19.000           1.625
  21360868.711    -8173259.530 7  -6368768.26723        25.250           2.813
  22899401.539    -1783881.246 6  -1390036.66121        19.500           1.031
 91  6 24 17 10 15.0000000  0  5G18G16G19G 2G11
  23757056.695    11052984.543 5   8612706.36121        10.000           0.469
  23528913.531     1050435.530 5    818518.62121        10.000           0.406
  21154641.703     3330168.061 6   2594934.78222        19.500           1.688
  21355419.648    -8201893.507 7  -6391080.44723        25.000           2.813
  22901035.531    -1775301.033 7  -1383350.79121        20.000           0.938
 91  6 24 17 10 30.0000000  0  5G18G16G19G 2G11
  23767380.414    11107204.841 5   8654955.85621        11.500           0.438
  23532464.203     1069103.833 5    833065.32621        10.000           0.344
  21158702.898     3351533.891 6   2611583.46822        18.750           1.750
  21349986.594    -8230449.655 7  -6413331.99023        24.750           2.938
  22902697.352    -1766569.084 6  -1376546.68321        19.750           0.875
 91  6 24 17 10 45.0000000  0  5G18G16G19G 2G11
  23777700.750    11161449.666 5   8697224.49621        10.500           0.313
  23536040.461     1087878.766 5    847695.10521        10.000           0.344
  21162783.227     3372955.503 6   2628275.62522        19.250           1.688
  21344563.492    -8258934.258 7  -6435527.77823        24.250           2.875
  22904384.266    -1757691.926 6  -1369629.44521        19.750           0.969
 91  6 24 17 11  0.0000000  0  5G18G16G19G 2G11
  23788031.758    11215724.041 5   8739516.15121        11.000           0.344
  23539631.844     1106765.404 5    862411.89921         9.500           0.469
  21166869.844     3394437.824 6   2645015.07522        18.750           1.688
  21339158.500    -8287342.224 7  -6457663.85023        24.000           2.875
  22906102.406    -1748664.536 6  -1362595.11921        18.750           1.031
 91  6 24 17 11 15.0000000  0  5G18G16G19G 2G11
  23798364.781    11270027.140 5   8781830.19121        10.500           0.250
  23543248.055     1125763.279 5    877215.42621         9.250           0.406
  21170970.289     3415980.823 6   2661801.81422        19.000           1.688
  21333766.984    -8315673.679 7  -6479740.30823        24.000           2.875
  22907850.789    -1739487.251 6  -1355444.01421        19.500           0.938
 91  6 24 17 11 30.0000000  0  5G18G16G19G 2G11
  23808697.914    11324361.431 5   8824168.52721         9.500           0.281
  23546888.820     1144874.731 5    892107.42421        10.000           0.313
  21175086.492     3437587.267 6   2678637.99022        18.000           1.719
  21328391.133    -8343925.762 7  -6501754.90723        24.000           2.875
  22909622.195    -1730157.424 6  -1348174.02821        18.750           0.844
 91  6 24 17 11 45.0000000  0  5G18G16G19G 2G11
  23819046.227    11378722.904 5   8866528.06321         9.750           0.219
  23550542.922     1164095.821 5    907084.85921         9.500           0.375
  21179203.711     3459253.506 6   2695520.76522        18.500           1.750
  21323030.477    -8372102.122 7  -6523710.50423        24.500           2.969
  22911426.047    -1720678.719 6  -1340788.04321        18.750           0.969
 91  6 24 17 12  0.0000000  0  5G18G16G19G 2G11
  23829398.242    11433112.443 5   8908909.44321         9.000           0.313
  23554217.672     1183427.651 5    922148.58121         9.000           0.344
  21183339.875     3480980.529 6   2712450.90022        18.500           1.563
  21317684.273    -8400201.561 7  -6545606.16423        24.750           2.844
  22913260.742    -1711050.228 7  -1333285.33321        20.000           0.969
 91  6 24 17 12 15.0000000  0  5G18G16G19G 2G11
  23839751.828    11487533.692 5   8951315.53121         9.000           0.250
  23557921.828     1202873.306 5    937300.99821         9.500           0.406
  21187485.938     3502772.211 6   2729431.42422        18.500           1.656
  21312352.008    -8428220.395 7  -6567439.01523        25.000           2.938
  22915121.625    -1701268.189 6  -1325662.97221        18.500           0.969
 91  6 24 17 12 30.0000000  0  5G18G16G19G 2G11
  23850107.211    11541978.802 5   8993740.20721         8.750           0.344
  23561642.617     1222425.264 5    952536.25521         9.500           0.406
  21191642.844     3524620.919 6   2746456.37622        19.000           1.656
  21307031.766    -8456166.149 7  -6589214.92023        25.000           2.813
  22917009.094    -1691340.218 6  -1317926.90021        18.500           0.969
 91  6 24 17 12 45.0000000  0  5G18G16G19G 2G11
  23860478.031    11596450.278 5   9036185.45321         9.000           0.438
  23565387.281     1242086.160 5    967856.39921         9.750           0.250
  21195812.172     3546529.575 6   2763528.03922        18.750           1.656
  21301730.141    -8484035.911 7  -6610931.61223        25.000           2.844
  22918928.508    -1681263.613 6  -1310075.01821        18.500           1.000
 91  6 24 17 13  0.0000000  0  5G18G16G19G 2G11
  23870855.281    11650948.950 5   9078651.86921        10.000           0.375
  23569149.359     1261856.745 5    983262.00221         9.750           0.375
  21199997.180     3568499.151 6   2780647.17322        18.500           1.813
  21296442.750    -8511828.509 7  -6632588.17623        25.000           2.906
  22920872.977    -1671037.398 6  -1302106.55921        18.250           1.094
 91  6 24 17 13 15.0000000  0  5G18G16G19G 2G11
  23881228.898    11705476.571 5   9121140.85721         9.750           0.281
  23572926.250     1281738.716 5    998754.43121         9.250           0.438
  21204186.664     3590531.709 6   2797815.38922        18.750           1.781
  21291166.211    -8539541.845 7  -6654182.98123        25.250           2.906
  22922849.609    -1660659.461 6  -1294019.87021        18.250           1.000
 91  6 24 17 13 30.0000000  0  5G18G16G19G 2G11
  23891604.656    11760030.452 5   9163650.29521         9.500           0.375
  23576728.477     1301729.485 5   1014331.61221         9.250           0.344
  21208391.141     3612624.492 6   2815030.52422        18.250           1.781
  21285909.703    -8567178.366 7  -6675717.93023        25.000           2.906
  22924852.523    -1650132.645 6  -1285817.16821        18.500           1.063
 91  6 24 17 13 45.0000000  0  5G18G16G19G 2G11
  23901990.609    11814608.625 5   9206178.67721         9.000           0.375
  23580560.734     1321826.798 5   1029991.81421         9.500           0.281
  21212607.125     3634775.944 6   2832291.38522        18.750           1.781
  21280667.211    -8594739.766 7  -6697194.33923        25.500           2.969
  22926882.188    -1639458.724 6  -1277499.83921        18.250           1.000
 91  6 24 17 14  0.0000000  0  5G18G16G19G 2G11
  23912384.117    11869210.748 5   9248725.70321         9.000           0.438
  23584405.891     1342030.554 5   1045734.96621         9.750           0.531
  21216832.438     3656986.013 6   2849597.91722        18.500           1.750
  21275433.078    -8622225.964 7  -6718612.15623        25.000           2.906
  22928940.578    -1628637.762 6  -1269067.93621        18.250           1.000
 91  6 24 17 14 15.0000000  0  5G18G16G19G 2G11
  23922784.125    11923837.296 5   9291291.76421        10.000           0.313
  23588264.250     1362341.006 5   1061561.24421         9.250           0.406
  21221071.266     3679255.607 6   2866950.83422        18.250           1.813
  21270220.133    -8649636.220 7  -6739970.78923        25.500           2.875
  22931029.656    -1617669.143 6  -1260520.97321        18.000           1.063
 91  6 24 17 14 30.0000000  0  5G18G16G19G 2G11
  23933175.984    11978487.155 5   9333875.97121         9.750           0.219
  23592150.813     1382757.409 5   1077470.09221        10.000           0.250
  21225318.633     3701584.029 6   2884349.58722        17.750           1.594
  21265016.164    -8676971.290 7  -6761270.83723        25.250           2.906
  22933145.531    -1606553.685 6  -1251859.58221        18.250           1.000
 91  6 24 17 14 45.0000000  0  5G18G16G19G 2G11
  23943582.219    12033163.343 5   9376480.71821        10.500           0.375
  23596060.883     1403282.528 5   1093463.65421         9.750           0.344
  21229579.719     3723974.520 6   2901796.70522        18.000           1.688
  21259828.148    -8704227.805 7  -6782509.67623        25.000           2.813
  22935292.078    -1595288.207 6  -1243081.30221        19.250           1.031
 91  6 24 17 15  0.0000000  0  5G18G16G19G 2G11
  23953993.406    12087865.897 5   9419106.03921         9.500           0.469
  23599984.766     1423916.436 5   1109541.97221         9.750           0.406
  21233852.883     3746427.464 6   2919292.48822        17.500           1.625
  21254658.500    -8731405.488 7  -6803687.08523        25.500           2.750
  22937461.000    -1583872.478 6  -1234185.93921        19.000           1.000
 91  6 24 17 15 15.0000000  0  5G18G16G19G 2G11
  23964408.133    12142596.038 5   9461752.83121         9.500           0.375
  23603922.609     1444660.217 5   1125705.92621         8.750           0.344
  21238137.250     3768943.961 6   2936837.79722        18.000           1.719
  21249500.188    -8758502.945 7  -6824801.98223        26.000           2.719
  22939662.727    -1572305.376 6  -1225172.63021        19.250           1.063
 91  6 24 17 15 30.0000000  0  5G18G16G19G 2G11
  23974824.602    12197350.703 5   9504418.70621         9.000           0.375
  23607900.352     1465511.041 5   1141953.27421         9.500           0.375
  21242432.602     3791521.548 6   2954430.70322        17.750           1.656
  21244357.453    -8785522.780 7  -6845856.39623        25.750           2.688
  22941891.336    -1560589.486 6  -1216043.37621        18.750           0.969
 91  6 24 17 15 45.0000000  0  5G18G16G19G 2G11
  23985252.711    12252128.457 5   9547102.60121         8.750           0.313
  23611895.820     1486467.388 5   1158282.85821        10.250           0.406
  21246739.461     3814158.961 6   2972070.22622        17.500           1.625
  21239231.555    -8812466.049 7  -6866851.14223        26.000           2.719
  22944147.695    -1548726.184 6  -1206799.25821        18.250           1.063
 91  6 24 17 16  0.0000000  0  5G18G16G19G 2G11
  23995681.906    12306927.811 5   9589803.28421         9.500           0.344
  23615894.844     1507527.725 5   1174693.45921        10.000           0.438
  21251059.531     3836854.807 6   2989755.28921        17.750           1.469
  21234117.945    -8839333.942 7  -6887787.16523        25.750           2.750
  22946435.672    -1536716.915 6  -1197441.39121        19.000           1.094
 91  6 24 17 16 15.0000000  0  5G18G16G19G 2G11
  24006112.773    12361748.469 5   9632520.60921         8.750           0.281
  23619920.750     1528691.954 5   1191185.03421         9.500           0.344
  21255390.492     3859609.258 6   3007486.01721        18.250           1.469
  21229021.211    -8866126.366 7  -6908664.37323        26.000           2.750
  22948746.945    -1524561.558 6  -1187969.70121        19.000           1.125
 91  6 24 17 16 30.0000000  0  5G18G16G19G 2G11
  24016547.977    12416592.006 5   9675255.74921         9.000           0.281
  23623968.445     1549961.401 5   1207758.59721        10.000           0.344
  21259732.844     3882424.016 6   3025263.73822        18.000           1.500
  21223938.805    -8892841.594 7  -6929481.42723        25.750           2.813
  22951089.203    -1512258.638 6  -1178383.02521        18.750           1.219
 91  6 24 17 16 45.0000000  0  5G18G16G19G 2G11
  24026985.109    12471461.063 5   9718010.79521         8.500           0.281
  23628042.414     1571338.839 5   1224416.30521        10.750           0.344
  21264084.977     3905301.899 6   3043090.64522        18.250           1.531
  21218870.711    -8919476.728 7  -6950236.06823        26.000           2.781
  22953459.258    -1499805.332 6  -1168679.15021        19.000           1.031
 91  6 24 17 17  0.0000000  0  5G18G16G19G 2G11
  24037438.398    12526354.186 5   9760784.58221         8.500           0.156
  23632127.266     1592822.676 5   1241156.92021        10.000           0.344
  21268451.195     3928242.077 6   3060966.09022        18.250           1.500
  21213816.492    -8946032.798 7  -6970929.10823        25.750           2.750
  22955856.992    -1487202.770 6  -1158858.99521        19.250           1.094
 91  6 24 17 17 15.0000000  0  5G18G16G19G 2G11
  24047885.844    12581269.227 5   9803575.41821         8.500           0.250
  23636228.609     1614410.749 5   1257978.75421         9.750           0.250
  21272826.523     3951242.494 6   3078888.47821        18.750           1.469
  21208778.227    -8972511.542 7  -6991561.88823        25.750           2.875
  22958280.336    -1474453.126 6  -1148924.22421        18.500           1.094
 91  6 24 17 17 30.0000000  0  5G18G16G19G 2G11
  24058340.563    12636207.407 5   9846384.31121         8.500           0.219
  23640363.656     1636104.316 5   1274882.79221         9.250           0.250
  21277218.148     3974304.718 6   3096859.02821        18.250           1.438
  21203751.180    -8998911.338 7  -7012133.15623        25.500           2.750
  22960737.359    -1461554.793 6  -1138873.58521        18.250           1.031
 91  6 24 17 17 45.0000000  0  5G18G16G19G 2G11
  24068804.977    12691167.117 5   9889209.97121         8.500           0.313
  23644509.828     1657901.654 5   1291867.69821         9.500           0.313
  21281614.563     3997427.145 6   3114876.48922        18.250           1.625
  21198741.977    -9025233.681 7  -7032644.06823        25.500           2.750
  22963219.516    -1448509.463 6  -1128708.40421        18.000           1.125
 91  6 24 17 18  0.0000000  0  5G18G16G19G 2G11
  24079261.156    12746150.158 5   9932053.79021         8.750           0.250
  23648682.930     1679804.611 5   1308934.86921        10.250           0.344
  21286032.227     4020611.781 6   3132942.42322        18.000           1.563
  21193748.695    -9051476.681 7  -7053093.15723        25.250           2.750
  22965730.945    -1435315.208 6  -1118427.17521        18.000           1.031
 91  6 24 17 18 15.0000000  0  5G18G16G19G 2G11
  24089724.008    12801152.943 5   9974913.05321         9.250           0.313
  23652867.570     1701809.514 5   1326081.51221        10.500           0.281
  21290451.797     4043855.528 6   3151054.42022        18.250           1.563
  21188772.219    -9077643.453 7  -7073482.84023        26.500           2.781
  22968268.500    -1421975.353 6  -1108032.48421        17.500           1.125
 91  6 24 17 18 30.0000000  0  5G18G16G19G 2G11
  24100204.039    12856175.855 5  10017787.96821         9.750           0.219
  23657072.320     1723916.826 5   1343307.93021        10.250           0.250
  21294884.789     4067159.081 6   3169213.02122        17.750           1.531
  21183807.789    -9103733.181 7  -7093812.49423        26.000           2.719
  22970836.617    -1408489.229 6  -1097523.83521        18.250           1.094
 91  6 24 17 18 45.0000000  0  5G18G16G19G 2G11
  24110676.133    12911223.812 5  10060682.38521         9.500           0.219
  23661304.234     1746131.375 5   1360617.94921        10.750           0.438
  21299332.336     4090527.436 6   3187422.12522        18.000           1.594
  21178856.820    -9129740.882 7  -7114078.23023        26.000           2.813
  22973429.742    -1394852.149 6  -1086897.54821        18.000           1.000
 91  6 24 17 19  0.0000000  0  5G18G16G19G 2G11
  24121153.117    12966294.578 5  10103594.61021        10.250           0.406
  23665551.297     1768450.810 5   1378009.69021        10.250           0.375
  21303792.969     4113958.584 6   3205680.15522        18.250           1.531
  21173925.313    -9155668.579 7  -7134281.62123        26.000           2.781
  22976054.742    -1381066.181 6  -1076155.24321        18.250           1.094
 91  6 24 17 19 15.0000000  0  5G18G16G19G 2G11
  24131637.055    13021379.762 5  10146518.04121        10.750           0.281
  23669814.188     1790866.905 5   1395476.73921         9.500           0.313
  21308259.891     4137444.549 6   3223980.89721        18.000           1.469
  21169003.953    -9181523.924 7  -7154428.64023        25.750           2.844
  22978706.063    -1367139.323 6  -1065303.15921        18.250           1.125
 91  6 24 17 19 30.0000000  0  5G18G16G19G 2G11
  24142120.070    13076484.715 5  10189456.89221         9.000           0.250
  23674097.734     1813385.051 5   1413023.31221         9.500           0.375
  21312739.398     4160991.095 6   3242328.83921        17.750           1.469
  21164095.648    -9207301.243 7  -7174514.85823        25.750           3.000
  22981381.508    -1353066.117 6  -1054337.04521        18.250           1.156
 91  6 24 17 19 45.0000000  0  5G18G16G19G 2G11
  24152613.992    13131610.929 5  10232412.30221        10.000           0.313
  23678406.914     1836006.641 5   1430650.47321        10.000           0.406
  21317234.070     4184599.824 6   3260725.24022        18.750           1.531
  21159207.258    -9232999.104 7  -7194539.15923        25.750           2.906
  22984087.945    -1338844.961 6  -1043255.63721        18.000           1.031
 91  6 24 17 20  0.0000000  0  5G18G16G19G 2G11
  24163106.961    13186754.055 5  10275380.88721         9.500           0.406
  23682732.531     1858727.395 5   1448354.91521        10.000           0.281
  21321737.313     4208266.763 6   3279167.00822        18.000           1.594
  21154332.070    -9258621.285 7  -7214504.48723        25.500           2.875
  22986819.859    -1324479.936 6  -1032062.12421        18.000           1.156
 91  6 24 17 20 15.0000000  0  5G18G16G19G 2G11
  24173601.250    13241914.298 5  10318362.80521         9.250           0.344
  23687069.289     1881547.507 5   1466136.76621         9.750           0.344
  21326254.391     4231992.339 6   3297654.45022        18.250           1.688
  21149471.641    -9284167.325 7  -7234410.49223        25.250           2.875
  22989584.445    -1309970.766 6  -1020756.30421        18.250           1.094
 91  6 24 17 20 30.0000000  0  5G18G16G19G 2G11
  24184105.398    13297096.579 5  10361361.87621         9.500           0.406
  23691430.508     1904471.823 5   1483999.81721         9.250           0.313
  21330778.445     4255781.746 6   3316191.63922        18.000           1.594
  21144623.133    -9309632.036 7  -7254253.11423        25.750           2.875
  22992370.891    -1295312.459 6  -1009334.25621        17.500           1.156
 91  6 24 17 20 45.0000000  0  5G18G16G19G 2G11
  24194608.922    13352300.695 5  10404377.97921         8.500           0.406
  23695810.188     1927499.954 5   1501943.78321         9.500           0.344
  21335316.633     4279634.964 6   3334778.54922        18.000           1.656
  21139792.992    -9335015.266 7  -7274032.24723        26.000           2.844
  22995189.328    -1280505.096 6   -997796.05821        17.500           1.188
 91  6 24 17 21  0.0000000  0  5G18G16G19G 2G11
  24205119.063    13407524.905 5  10447409.73821         9.250           0.438
  23700220.836     1950630.215 5   1519967.31221         9.250           0.281
  21339871.695     4303550.604 6   3353414.11022        16.500           1.594
  21134981.227    -9360318.422 7  -7293748.98923        26.250           2.906
  22998033.703    -1265550.289 6   -986142.97521        17.750           1.094
 91  6 24 17 21 15.0000000  0  5G18G16G19G 2G11
  24215629.594    13462766.084 5  10490454.74621         8.000           0.281
  23704630.016     1973859.604 5   1538068.08521         8.750           0.250
  21344431.758     4327525.804 6   3372096.07122        18.250           1.594
  21130179.070    -9385544.231 7  -7313405.45323        25.750           2.906
  23000908.055    -1250451.014 6   -974377.32421        18.000           1.063
 91  6 24 17 21 30.0000000  0  5G18G16G19G 2G11
  24226145.031    13518021.054 5  10533510.44721         8.500           0.375
  23709075.086     1997184.683 5   1556243.41721         8.500           0.438
  21349004.273     4351557.557 6   3390822.10922        16.750           1.563
  21125396.102    -9410695.802 7  -7333004.07523        27.000           2.906
  23003807.766    -1235210.378 6   -962501.51421        17.750           1.031
 91  6 24 17 21 45.0000000  0  5G18G16G19G 2G11
  24236661.438    13573296.254 5  10576581.95921         7.750           0.375
  23713531.039     2020612.002 5   1574498.41921         8.500           0.375
  21353591.984     4375652.519 6   3409597.39122        17.750           1.563
  21120621.086    -9435766.482 7  -7352539.66323        26.500           2.875
  23006736.672    -1219821.888 6   -950510.49921        18.500           1.188
 91  6 24 17 22  0.0000000  0  5G18G16G19G 2G11
  24247188.180    13628583.730 4  10619663.00421         7.250           0.375
  23718008.813     2044133.436 5   1592826.78421         9.000           0.375
  21358182.305     4399803.086 6   3428416.00422        17.000           1.563
  21115865.281    -9460763.782 7  -7372018.07023        26.500           2.813
  23009693.328    -1204293.341 6   -938410.34121        19.750           1.156
 91  6 24 17 22 15.0000000  0  5G18G16G19G 2G11
  24257702.969    13683889.002 4  10662757.89621         7.250           0.281
  23722505.555     2067754.299 5   1611232.58521         8.500           0.375
  21362791.891     4424014.803 6   3447282.26622        17.500           1.594
  21111125.453    -9485681.953 7  -7391434.81323        26.500           2.844
  23012676.563    -1188619.251 6   -926196.77921        19.000           1.125
 91  6 24 17 22 30.0000000  0  5G18G16G19G 2G11
  24268243.445    13739212.949 5  10705867.38521         7.750           0.375
  23727019.477     2091475.668 5   1629716.73721         8.500           0.406
  21367414.148     4448289.007 6   3466197.23222        17.000           1.563
  21106396.945    -9510519.785 7  -7410788.96023        26.500           2.844
  23015689.055    -1172798.378 6   -913868.83721        19.250           1.031
 91  6 24 17 22 45.0000000  0  5G18G16G19G 2G11
  24278762.711    13794552.649 4  10748989.13421         7.000           0.219
  23731548.102     2115294.865 5   1648277.13021         8.500           0.438
  21372040.797     4472623.166 6   3485158.90822        16.750           1.594
  21101687.125    -9535279.737 7  -7430082.41723        27.000           2.750
  23018724.594    -1156833.466 6   -901428.65521        19.000           1.031
 91  6 24 17 23  0.0000000  0  5G18G16G19G 2G11
  24289304.203    13849909.870 5  10792124.50721         8.250           0.219
  23736099.320     2139213.952 5   1666915.33321         7.750           0.344
  21376687.055     4497019.619 6   3504169.12022        17.750           1.531
  21096988.766    -9559959.598 7  -7449313.47123        26.500           2.781
  23021788.773    -1140722.344 6   -888874.53621        18.250           1.063
 91  6 24 17 23 15.0000000  0  5G18G16G19G 2G11
  24299837.102    13905282.715 5  10835272.12721         8.500           0.063
  23740675.883     2163230.319 5   1685629.32221         9.250           0.344
  21381338.836     4521476.282 6   3523226.24722        17.250           1.594
  21092307.930    -9584561.338 7  -7468483.65723        26.750           2.781
  23024884.414    -1124467.169 6   -876208.18121        18.500           1.094
 91  6 24 17 23 30.0000000  0  5G18G16G19G 2G11
  24310382.844    13960666.930 5  10878428.54121         9.250           0.188
  23745250.867     2187339.752 5   1704415.86121         8.500           0.406
  21386002.867     4545989.161 6   3542327.18922        17.000           1.563
  21087641.406    -9609088.780 7  -7487595.94223        27.000           2.719
  23028003.922    -1108072.056 6   -863432.77721        18.250           1.000
 91  6 24 17 23 45.0000000  0  5G18G16G19G 2G11
  24320919.352    14016067.890 5  10921598.04721        10.000           0.219
  23749866.859     2211547.541 5   1723279.01121         8.500           0.313
  21390682.055     4570564.052 6   3561476.44222        17.250           1.625
  21082986.688    -9633536.242 7  -7506645.90623        26.250           2.688
  23031151.203    -1091531.574 6   -850544.11121        18.500           1.031
 91  6 24 17 24  0.0000000  0  5G18G16G19G 2G11
  24331463.977    14071482.453 5  10964778.13521         9.750           0.219
  23754492.703     2235850.591 5   1742216.40921         9.000           0.281
  21395372.727     4595197.630 6   3580671.43322        15.500           1.656
  21078350.492    -9657906.645 7  -7525635.82223        26.500           2.750
  23034324.313    -1074848.880 6   -837544.62021        18.750           0.969
 91  6 24 17 24 15.0000000  0  5G18G16G19G 2G11
  24342015.406    14126910.472 5  11007968.70521        10.750           0.188
  23759133.539     2260249.010 5   1761228.11421         8.500           0.313
  21400067.602     4619890.471 6   3599912.59822        16.250           1.688
  21073728.797    -9682199.640 7  -7544565.42223        26.750           2.719
  23037526.758    -1058023.827 6   -824434.20221        19.000           1.000
 91  6 24 17 24 30.0000000  0  5G18G16G19G 2G11
  24352566.727    14182353.693 5  11051171.14121        10.500           0.125
  23763798.672     2284743.864 5   1780314.97921         8.750           0.375
  21404777.086     4644644.408 6   3619201.37622        16.000           1.656
  21069119.086    -9706413.455 7  -7563433.32423        26.000           2.844
  23040755.211    -1041054.691 6   -811211.51321        18.500           0.969
 91  6 24 17 24 45.0000000  0  5G18G16G19G 2G11
  24363120.242    14237812.028 5  11094385.35021         9.250           0.094
  23768468.852     2309335.411 5   1799477.15621         8.000           0.375
  21409499.539     4669459.850 6   3638538.06922        16.250           1.563
  21064528.508    -9730547.599 7  -7582239.14323        26.250           2.844
  23044012.016    -1023941.163 6   -797876.30521        18.500           0.938
 91  6 24 17 25  0.0000000  0  4G16G19G 2G11
  23773169.672     2334021.818 5   1818713.28521         8.000           0.469
  21414234.750     4694335.097 6   3657921.36721        16.250           1.438
  21059949.305    -9754603.610 7  -7600984.08023        26.000           2.750
  23047295.188    -1006685.082 6   -784430.01521        17.750           1.094
 91  6 24 17 25 15.0000000  0  4G16G19G 2G11
  23777892.398     2358805.509 5   1838025.18721         8.500           0.375
  21418978.063     4719272.765 6   3677353.31621        16.250           1.469
  21055385.930    -9778578.888 7  -7619666.10623        25.750           2.938
  23050607.383     -989284.038 6   -770870.76121        18.500           1.156
 91  6 24 17 25 30.0000000  0  4G16G19G 2G11
  23782620.469     2383680.550 5   1857408.27121         8.500           0.406
  21423738.891     4744267.494 6   3696829.71822        16.000           1.500
  21050839.359    -9802478.870 7  -7638289.45923        26.250           2.875
  23053945.648     -971743.541 6   -757202.86521        18.250           0.969
 91  6 24 17 25 45.0000000  0  4G16G19G 2G11
  23787372.484     2408649.187 5                         8.500
  21428502.453     4769321.745 6                        16.750
  21046307.969    -9826301.172 7  -7656852.28723        25.750           2.875
  23057306.922     -954061.508 6   -743424.66121        17.500           1.031
 91  6 24 17 26  0.0000000  0  4G16G19G 2G11
  23792146.352     2433711.860 5                         9.250
  21433284.188     4794436.091 6                        17.000
  21041787.328    -9850045.024 7  -7675353.98723        25.250           2.750
  23060703.414     -936237.318 6   -729535.69821        18.250           1.094
 91  6 24 17 26 15.0000000  0  4G16G19G 2G11
  23796930.953     2458868.387 5                         8.250
  21438072.789     4819610.736 6                        17.000
  21037283.961    -9873710.178 7  -7693794.35723        25.250           2.875
  23064119.711     -918270.883 6   -715535.89121        18.250           0.938
 91  6 24 17 26 30.0000000  0  4G16G19G 2G11
  23801737.641     2484117.526 5                         8.500
  21442875.898     4844844.837 6                        17.000
  21032795.648    -9897297.386 7  -7712173.99023        25.000           2.844
  23067567.664     -900163.242 6   -701426.05021        17.500           0.969
 91  6 24 17 26 45.0000000  0  4G16G19G 2G11
  23806558.789     2509458.486 5                         8.250
  21447684.945     4870137.603 6                        17.000
  21028320.617    -9920807.403 7  -7730493.47323        24.750           2.688
  23071040.547     -881915.246 6   -687206.83921        17.750           1.031
 91  6 24 17 27  0.0000000  0  4G16G19G 2G11
  23811401.875     2534891.417 5   1975234.65721         8.500           0.344
  21452515.766     4895489.887 6   3814665.32122        17.750           1.656
  21023863.422    -9944239.565 7  -7748752.29223        25.750           2.750
  23074542.117     -863526.498 6   -672877.95821        17.750           0.906
 91  6 24 17 27 15.0000000  0  4G16G19G 2G11
  23816255.555     2560417.423 5   1995124.99921         8.000           0.250
  21457349.586     4920903.148 6   3834467.85522        17.500           1.656
  21019417.883    -9967592.225 7  -7766949.16623        25.000           2.719
  23078062.141     -844995.554 6   -658438.27021        16.750           0.969
 91  6 24 17 27 30.0000000  0  4G16G19G 2G11
  23821123.938     2586032.654 5   2015084.86321         8.000           0.375
  21462194.070     4946373.499 6   3854314.87722        16.750           1.531
  21014991.211    -9990869.141 7  -7785087.01723        25.250           2.813
  23081618.633     -826326.334 6   -643890.83921        17.250           0.938
 91  6 24 17 27 45.0000000  0  4G16G19G 2G11
  23826022.891     2611741.461 5   2035117.67221         8.250           0.438
  21467054.891     4971905.924 6   3874210.26921        17.500           1.469
  21010574.375   -10014065.534 7  -7803162.12023        24.750           2.625
  23085199.523     -807514.079 6   -629231.94321        17.750           0.906
 91  6 24 17 28  0.0000000  0  4G16G19G 2G11
  23830935.328     2637545.639 5   2055224.77621         8.250           0.313
  21471926.125     4997502.419 6   3894155.58622        17.250           1.531
  21006177.078   -10037179.149 7  -7821172.72123        25.500           2.719
  23088802.539     -788556.953 6   -614460.17821        16.750           1.031
 91  6 24 17 28 15.0000000  0  4G16G19G 2G11
  23835857.094     2663440.043 5   2075402.19621         8.500           0.281
  21476805.102     5023158.240 6   3914147.13121        17.750           1.469
  21001793.523   -10060214.912 7  -7839122.64823        24.750           2.781
  23092438.172     -769460.013 6   -599579.46621        16.750           0.906
 91  6 24 17 28 30.0000000  0  4G16G19G 2G11
  23840804.695     2689424.337 5   2095649.65521         8.750           0.438
  21481704.094     5048873.031 6   3934184.62822        18.000           1.500
  20997422.836   -10083173.044 7  -7857012.09823        24.500           2.719
  23096098.461     -750223.724 6   -584590.15721        17.000           0.938
 91  6 24 17 28 45.0000000  0  4G16G19G 2G11
  23845771.961     2715497.479 5   2115966.35621         8.500           0.344
  21486603.180     5074646.149 6   3954267.58022        17.750           1.594
  20993069.883   -10106054.023 7  -7874841.41923        25.000           2.813
  23099785.742     -730848.823 6   -569492.85321        16.750           1.000
 91  6 24 17 29  0.0000000  0  4G16G19G 2G11
  23850742.656     2741661.784 5   2136354.07821         8.500           0.375
  21491522.109     5100480.437 6   3974398.17322        18.000           1.594
  20988731.828   -10128855.252 7  -7892608.60223        24.500           2.688
  23103501.406     -711332.806 6   -554285.58321        17.000           0.906
 91  6 24 17 29 15.0000000  0  4G16G19G 2G11
  23855739.500     2767913.746 5   2156810.13121         8.250           0.250
  21496448.359     5126372.518 6   3994573.82022        18.000           1.531
  20984405.109   -10151579.886 7  -7910316.09923        24.250           2.750
  23107237.500     -691679.159 6   -538971.07121        16.250           1.031
 91  6 24 17 29 30.0000000  0  4G16G19G 2G11
  23860751.242     2794255.407 5   2177336.06621         8.000           0.281
  21501387.320     5152324.990 6   4014796.51822        17.500           1.625
  20980097.703   -10174225.380 7  -7927961.93023        24.750           2.750
  23111003.273     -671885.480 6   -523547.44121        16.500           1.031
 91  6 24 17 29 45.0000000  0  4G16G19G 2G11
  23865784.211     2820686.726 5   2197931.86021         8.750           0.250
  21506337.789     5178337.867 6   4035066.29122        18.000           1.563
  20975804.953   -10196791.524 7  -7945545.93423        24.750           2.781
  23114798.953     -651951.759 6   -508014.69121        16.750           0.938
 91  6 24 17 30  0.0000000  0  4G16G19G 2G11
  23870831.156     2847203.162 5   2218593.96321         8.500           0.313
  21511298.453     5204406.938 6   4055379.85122        18.000           1.531
  20971523.852   -10219282.620 7  -7963071.45123        24.500           2.781
  23118619.125     -631882.546 6   -492376.34321        17.750           0.969
 91  6 24 17 30 15.0000000  0  4G16G19G 2G11
  23875883.930     2873803.275 5   2239321.28621         7.500           0.188
  21516271.773     5230531.136 6   4075736.36022        19.000           1.500
  20967257.867   -10241699.823 7  -7980539.39923        24.500           2.781
  23122465.516     -611679.085 6   -476633.41321        16.500           1.000
 91  6 24 17 30 30.0000000  0  4G16G19G 2G11
  23880969.008     2900489.307 5   2260115.55621         8.250           0.344
  21521254.305     5256713.036 6   4096137.83622        17.750           1.625
  20963008.828   -10264040.183 7  -7997947.46423        24.750           2.750
  23126334.594     -591338.914 6   -460783.95421        17.500           0.969
 91  6 24 17 30 45.0000000  0  4G16G19G 2G11
  23886067.086     2927265.027 5   2280979.71521         8.250           0.250
  21526243.586     5282957.100 6   4116587.74222        18.000           1.688
  20958773.125   -10286299.455 7  -8015292.34323        24.750           2.781
  23130236.156     -570857.951 6   -444824.77821        18.750           0.938
 91  6 24 17 31  0.0000000  0  4G16G19G 2G11
  23891178.688     2954128.035 5   2301911.86821         8.750           0.313
  21531249.523     5309260.811 6   4137084.14122        17.500           1.688
  20954549.227   -10308480.020 7  -8032575.89723        24.500           2.719
  23134155.094     -550238.761 6   -428757.88821        18.000           0.844
 91  6 24 17 31 15.0000000  0  5G 6G16G19G 2G11
  21867977.508          -0.31016                        19.000
  23896305.016     2981077.707 5   2322911.58121         8.500           0.375
  21536264.383     5335623.661 6   4157626.60822        17.250           1.594
  20950343.414   -10330582.491 7  -8049798.59623        25.500           2.938
  23138104.594     -529482.097 6   -412583.88321        18.250           0.875
 91  6 24 17 31 30.0000000  0  5G 6G16G19G 2G11
  21862101.078      -30883.555 6                        19.000
  23901449.680     3008115.151 5   2343979.66121         8.250           0.344
  21541295.750     5362047.311 6   4178216.46322        17.000           1.688
  20946151.063   -10352605.179 7  -8066959.11923        25.000           2.844
  23142083.852     -508586.447 6   -396301.58121        18.500           0.875
 91  6 24 17 31 45.0000000  0  5G 6G16G19G 2G11
  21856230.023      -61732.270 6        -0.10331        19.250           1.188
  23906619.555     3035243.078 5   2365118.27421         8.500           0.313
  21546336.086     5388534.608 6   4198855.90222        17.750           1.656
  20941977.945   -10374545.038 7  -8084055.10923        25.250           2.969
  23146083.758     -487549.074 6   -379908.83621        17.500           0.875
 91  6 24 17 32  0.0000000  0  5G 6G16G19G 2G11
  21850367.609      -92554.258 6    -24017.22821        19.000           1.156
  23911793.758     3062453.158 5   2386320.88121         8.250           0.281
  21551389.250     5415077.902 6   4219538.98722        17.750           1.500
  20937817.555   -10396409.878 7  -8101092.64123        25.000           3.063
  23150113.617     -466378.008 6   -363411.92621        17.750           0.813
 91  6 24 17 32 15.0000000  0  5G 6G16G19G 2G11
  21844506.383     -123348.511 6    -48012.72921        19.000           1.188
  23916983.758     3089745.952 5   2407587.97621         8.500           0.219
  21556447.617     5441677.998 6   4240266.32822        17.500           1.531
  20933671.898   -10418198.864 7  -8118071.06623        26.000           3.000
  23154166.406     -445072.586 6   -346810.30821        17.250           0.813
 91  6 24 17 32 30.0000000  0  5G 6G16G19G 2G11
  21838650.539     -154109.259 6    -71982.12521        18.500           1.219
  23922191.914     3117126.919 5   2428923.76921         8.000           0.219
  21561524.813     5468340.491 6   4261042.29222        16.500           1.625
  20929537.102   -10439906.286 7  -8134985.93223        26.250           3.063
  23158248.836     -423627.246 6   -330099.66921        18.000           0.906
 91  6 24 17 32 45.0000000  0  5G 6G16G19G 2G11
  21832805.523     -184834.327 6    -95923.72721        19.000           1.125
  23927422.047     3144597.678 5   2450329.49121         7.750           0.250
  21566608.055     5495067.428 6   4281868.46722        16.500           1.625
  20925425.219   -10461530.176 7  -8151835.71023        26.750           3.094
  23162357.000     -402040.222 6   -313278.61321        17.750           0.938
 91  6 24 17 33  0.0000000  0  5G 6G16G19G 2G11
  21826967.391     -215531.800 6   -119843.83321        19.500           1.188
  23932665.109     3172149.754 5   2471798.62621         7.500           0.281
  21571704.617     5521850.511 6   4302738.39922        16.250           1.594
  20921326.219   -10483078.625 7  -8168626.69923        27.250           3.125
  23166490.734     -380320.001 6   -296353.79321        17.750           1.063
 91  6 24 17 33 15.0000000  0  5G 6G16G19G 2G11
  21821126.750     -246200.277 6   -143741.33321        18.500           1.219
  23937923.898     3199783.938 5   2493331.71221         8.250           0.188
  21576815.258     5548691.209 6   4323653.21722        16.500           1.594
  20917238.875   -10504550.278 7  -8185357.85223        27.000           3.063
  23170648.617     -358465.498 6   -279324.32021        17.750           0.938
 91  6 24 17 33 30.0000000  0  5G 6G16G19G 2G11
  21815300.609     -276833.710 6   -167611.53621        18.500           1.156
  23943194.742     3227506.117 5   2514933.35821         7.750           0.313
  21581937.516     5575595.541 6   4344617.62222        15.500           1.563
  20913172.406   -10525939.129 7  -8202024.48423        27.750           3.000
  23174832.789     -336470.855 6   -262185.66021        16.500           0.906
 91  6 24 17 33 45.0000000  0  5G 6G16G19G 2G11
  21809474.117     -307435.564 6   -191457.12121        18.500           1.156
  23948490.023     3255312.291 5   2536600.49921         8.000           0.313
  21587065.836     5602559.671 6   4365628.62022        17.000           1.688
  20909114.242   -10547248.816 7  -8218629.43523        27.250           3.063
  23179047.969     -314339.921 6   -244940.78921        17.000           0.875
 91  6 24 17 34  0.0000000  0  5G 6G16G19G 2G11
  21803656.133     -338008.171 6   -215279.91621        18.500           1.188
  23953803.406     3283199.505 5   2558330.72721         8.500           0.281
  21592208.141     5629581.303 6   4386684.43122        16.000           1.531
  20905073.016   -10568481.698 7  -8235174.52223        27.750           3.031
  23183278.828     -292075.296 6   -227591.75521        16.000           0.969
 91  6 24 17 34 15.0000000  0  5G 6G16G19G 2G11
  21797842.164     -368553.032 6   -239081.10021        18.000           1.219
  23959121.219     3311166.149 5   2580122.86521         8.500           0.250
  21597356.898     5656658.911 6   4407783.85222        16.250           1.625
  20901046.453   -10589639.481 7  -8251661.10123        27.500           2.938
  23187549.922     -269678.782 6   -210139.94521        18.000           0.813
 91  6 24 17 34 30.0000000  0  5G 6G16G19G 2G11
  21792037.875     -399067.052 6   -262858.25321        18.500           1.250
  23964455.367     3339214.751 5   2601978.87721         8.500           0.313
  21602519.266     5683795.258 6   4428929.04622        16.250           1.531
  20897034.195   -10610719.263 7  -8268086.90023        27.500           2.969
  23191833.133     -247147.739 6   -192583.31621        17.000           0.906
 91  6 24 17 34 45.0000000  0  5G 6G16G19G 2G11
  21786236.742     -429548.019 6   -286609.64621        18.500           1.344
  23969813.758     3367347.087 5   2623900.12821         8.000           0.344
  21607696.891     5710992.546 6   4450121.73421        15.750           1.469
  20893041.977   -10631718.617 8  -8284450.02923        28.250           2.906
  23196145.523     -224480.036 6   -174920.17721        16.750           1.000
 91  6 24 17 35  0.0000000  0  5G 6G16G19G 2G11
  21780440.461     -460001.939 6   -310339.96221        18.250           1.375
  23975175.703     3395556.685 5   2645881.59321         7.750           0.156
  21612883.297     5738244.597 6   4471357.08622        16.000           1.594
  20889059.008   -10652643.737 8  -8300755.31123        28.500           2.969
  23200483.859     -201682.188 6   -157155.63621        16.250           0.938
 91  6 24 17 35 15.0000000  0  5G 6G16G19G 2G11
  21774651.984     -490423.841 6   -334045.32821        18.750           1.344
  23980549.102     3423848.216 4   2667926.90021         7.250           0.344
  21618081.297     5765556.352 6   4492638.95821        16.500           1.438
  20885092.203   -10673489.661 8  -8316998.88223        28.500           2.844
  23204845.945     -178749.439 6   -139285.99221        15.750           0.969
 91  6 24 17 35 30.0000000  0  5G 6G16G19G 2G11
  21768874.125     -520811.479 6   -357724.00321        19.000           1.344
  23985964.000     3452223.269 5   2690037.29121         7.750           0.375
  21623289.367     5792929.836 6   4513968.94022        16.500           1.531
  20881140.242   -10694254.444 8  -8333179.22423        28.000           2.906
  23209237.148     -155679.923 6   -121309.74921        15.500           1.063
 91  6 24 17 35 45.0000000  0  5G 6G16G19G 2G11
  21763091.508     -551164.592 6   -381375.77121        19.000           1.313
  23991376.047     3480682.150 5   2712212.98321         7.500           0.313
  21628508.430     5820365.177 6   4535347.11622        16.500           1.500
  20877202.344   -10714937.942 7  -8349296.22823        27.500           2.875
  23213654.781     -132473.668 6   -103226.98721        15.750           0.906
 91  6 24 17 36  0.0000000  0  5G 6G16G19G 2G11
  21757324.523     -581486.682 6   -405003.36821        19.250           1.344
  23996809.164     3509220.415 4   2734450.54321         7.250           0.188
  21633742.906     5847858.707 6   4556770.63222        17.000           1.563
  20873283.492   -10735543.608 7  -8365352.58523        27.250           2.906
  23218095.680     -109134.673 6    -85040.76821        15.500           0.938
 91  6 24 17 36 15.0000000  0  5G 6G16G19G 2G11
  21751561.211     -611773.595 6   -428603.54321        18.500           1.406
  24002251.031     3537841.681 5   2756752.76321         7.500           0.375
  21638985.781     5875414.531 6   4578242.69322        17.000           1.500
  20869374.906   -10756067.403 7  -8381345.14723        27.000           2.844
  23222559.750      -85659.060 6    -66748.10521        15.750           0.875
 91  6 24 17 36 30.0000000  0  5G 6G16G19G 2G11
  21745804.055     -642031.139 6   -452180.84321        18.500           1.250
  24007719.633     3566539.831 5   2779114.91221         8.000           0.250
  21644245.398     5903026.881 6   4599758.80122        15.500           1.531
  20865483.383   -10776515.323 7  -8397278.58023        26.750           2.844
  23227057.227      -62053.018 6    -48353.80721        17.500           0.719
 91  6 24 17 36 45.0000000  0  5G 6G16G19G 2G11
  21740050.141     -672260.547 6   -475736.21121        18.750           1.344
  24013184.227     3595312.875 5   2801535.44021         7.500           0.156
  21649506.297     5930694.394 6   4621317.88522        17.000           1.625
  20861608.078   -10796888.716 7  -8413153.94223        26.750           2.906
  23231569.969      -38317.915 6    -29858.93321        16.500           0.844
 91  6 24 17 37  0.0000000  0  5G 6G16G19G 2G11
  21734303.680     -702458.348 6   -499266.95421        19.000           1.406
  24018689.031     3624164.179 5   2824016.95021         8.000           0.406
  21654782.383     5958420.131 6   4642922.34721        17.000           1.469
  20857745.109   -10817184.236 7  -8428968.62923        27.000           2.875
  23236110.086      -14450.728 6    -11261.13821        16.250           0.875
 91  6 24 17 37 15.0000000  0  5G 6G16G19G 2G11
  21728563.625     -732621.807 6   -522770.94121        19.500           1.313
  24024191.906     3653096.329 5   2846561.39321         7.750           0.125
  21660070.273     5986206.921 6   4664574.37322        17.000           1.531
  20853899.789   -10837399.058 7  -8444720.43323        26.750           2.938
  23240679.031        9551.057 6      7441.52021        15.500           0.688
 91  6 24 17 37 30.0000000  0  5G 6G16G19G 2G11
  21722831.281     -762751.571 6   -546248.66821        19.250           1.375
  24029711.648     3682107.802 5   2869167.71021         8.000           0.313
  21665368.680     6014053.858 6   4686273.27822        17.500           1.531
  20850068.883   -10857534.005 7  -8460409.99523        26.250           2.938
  23245274.578       33686.269 6     26248.16521        16.000           0.813
 91  6 24 17 37 45.0000000  0  5G 6G16G19G 2G11
  21717102.227     -792846.360 6   -569699.14021        19.000           1.375
  24035246.719     3711199.592 5   2891836.57321         7.500           0.313
  21670681.766     6041962.115 6   4708019.96821        17.500           1.344
  20846250.828   -10877587.944 7  -8476036.43323        26.500           2.938
  23249890.555       57955.832 6     45159.49521        16.000           0.625
 91  6 24 17 38  0.0000000  0  5G 6G16G19G 2G11
  21711386.977     -822906.123 6   -593122.32421        19.250           1.406
  24040794.117     3740371.148 5   2914567.59821         7.750           0.313
  21676005.133     6069931.698 6   4729814.43721        16.500           1.375
  20842449.891   -10897560.732 7  -8491599.64123        26.250           3.000
  23254536.922       82359.636 6     64175.42921        16.750           0.875
 91  6 24 17 38 15.0000000  0  5G 6G16G19G 2G11
  21705668.664     -852927.089 6   -616515.28621        18.500           1.438
  24046359.742     3769625.642 4   2937363.27721         7.250           0.281
  21681335.906     6097966.314 6   4751659.58921        16.750           1.344
  20838667.516   -10917448.898 7  -8507096.90523        26.500           2.969
  23259208.250      106900.998 6     83298.55821        17.500           0.781
 91  6 24 17 38 30.0000000  0  5G 6G16G19G 2G11
  21699966.844     -882912.756 6   -639880.71921        18.500           1.344
  24051948.922     3798959.414 5   2960220.69021         8.750           0.313
  21686684.258     6126062.210 6   4773552.48221        17.000           1.375
  20834897.672   -10937256.069 7  -8522531.05523        26.750           2.875
  23263901.336      131575.973 6    102525.81221        16.250           0.844
 91  6 24 17 38 45.0000000  0  5G 6G16G19G 2G11
  21694262.227     -912865.267 6   -663220.31921        18.000           1.438
  24057536.398     3828370.079 5   2983138.02821         8.250           0.313
  21692044.375     6154217.270 6   4795491.47322        17.500           1.500
  20831143.063   -10956984.526 7  -8537903.87323        26.750           2.844
  23268618.523      156382.349 6    121855.42121        15.750           0.750
 91  6 24 17 39  0.0000000  0  5G 6G16G19G 2G11
  21688570.648     -942782.177 6   -686532.17721        18.500           1.406
  24063152.688     3857859.191 5   3006116.50721         8.000           0.250
  21697413.766     6182433.666 6   4817478.27221        17.000           1.469
  20827405.203   -10976632.058 7  -8553213.62723        26.750           2.781
  23273368.719      181322.066 6    141288.94921        16.500           0.750
 91  6 24 17 39 15.0000000  0  5G 6G16G19G 2G11
  21682882.461     -972669.985 6   -709821.36921        18.750           1.344
  24068779.422     3887420.194 5   3029151.00421         8.500           0.344
  21702790.117     6210704.827 6   4839507.73821        17.250           1.469
  20823677.516   -10996205.030 7  -8568465.28723        26.500           2.906
  23278136.953      206388.293 6    160821.06221        16.000           0.813
 91  6 24 17 39 30.0000000  0  5G 6G16G19G 2G11
  21677205.188    -1002526.101 6   -733085.85822        18.750           1.500
  24074418.492     3917054.631 5   3052242.72521         8.250           0.250
  21708181.750     6239033.140 6   4861581.73422        17.250           1.500
  20819970.633   -11015701.025 7  -8583656.96723        26.750           2.969
  23282930.922      231583.088 6    180453.35221        15.500           0.688
 91  6 24 17 39 45.0000000  0  5G 6G16G19G 2G11
  21671528.453    -1032349.937 6   -756325.19821        18.750           1.438
  24080069.297     3946762.938 5   3075392.01121         8.000           0.313
  21713582.375     6267419.067 6   4883700.63121        17.750           1.469
  20816273.477   -11035119.416 7  -8598788.17523        27.000           2.938
  23287749.477      256906.901 6    200186.17221        15.500           0.625
 91  6 24 17 40  0.0000000  0  5G 6G16G19G 2G11
  21665857.086    -1062143.338 6   -779540.81821        18.500           1.469
  24085733.953     3976542.868 5   3098597.11321         7.750           0.281
  21718996.461     6295860.574 6   4905862.82522        16.750           1.531
  20812593.531   -11054462.340 7  -8613860.57123        27.000           2.813
  23292589.828      282357.323 6    220017.65721        15.500           0.719
 91  6 24 17 40 15.0000000  0  5G 6G16G19G 2G11
  21660195.484    -1091908.249 6   -802734.24521        19.000           1.375
  24091423.281     4006392.118 5   3121856.21321         7.750           0.281
  21724415.297     6324355.689 6   4928066.80722        16.500           1.500
  20808927.930   -11073731.772 7  -8628875.71023        27.500           2.781
  23297456.820      307932.228 6    239946.13521        15.750           0.781
 91  6 24 17 40 30.0000000  0  4G16G19G 2G11
  24097110.742     4036313.389 4   3145171.43921         7.250           0.188
  21729852.594     6352907.653 6   4950315.07021        16.000           1.406
  20805275.617   -11092924.485 7  -8643831.06523        26.750           2.750
  23302353.188      333634.662 6    259973.98321        16.500           0.750
 91  6 24 17 40 45.0000000  0  4G16G19G 2G11
  24102821.266     4066308.445 5   3168544.13221         8.250           0.188
  21735293.453     6381518.490 6   4972609.22221        16.000           1.438
  20801637.102   -11112038.471 7  -8658725.07123        26.750           2.875
  23307268.148      359466.402 6    280102.58521        16.000           0.719
 91  6 24 17 41  0.0000000  0  4G16G19G 2G11
  24108543.344     4096378.999 4   3191975.69321         7.250           0.250
  21740749.766     6410190.229 6   4994950.83221        16.000           1.375
  20798018.227   -11131071.519 7  -8673556.01023        27.000           2.781
  23312206.313      385429.192 6    300333.32121        16.750           0.750
 91  6 24 17 41 15.0000000  0  4G16G19G 2G11
  24114280.852     4126519.848 5   3215462.02021         7.500           0.250
  21746220.211     6438917.968 6   5017336.07821        16.500           1.438
  20794409.930   -11150028.453 7  -8688327.64223        27.000           2.813
  23317171.414      411518.026 6    320662.25921        17.250           0.750
 91  6 24 17 41 30.0000000  0  4G16G19G 2G11
  24120030.242     4156733.459 5   3239005.01721         7.500           0.250
  21751693.313     6467704.365 6   5039767.02021        16.250           1.375
  20790815.227   -11168906.764 7  -8703038.00523        26.250           2.813
  23322163.250      437735.250 6    341091.24821        17.250           0.719
 91  6 24 17 41 45.0000000  0  4G16G19G 2G11
  24125787.117     4187020.057 5   3262604.93921         7.750           0.313
  21757183.906     6496549.909 6   5062244.06521        16.500           1.469
  20787238.375   -11187705.993 7  -8717686.75023        26.500           2.813
  23327174.367      464081.015 6    361620.41721        16.750           0.781
 91  6 24 17 42  0.0000000  0  4G16G19G 2G11
  24131568.758     4217376.504 5   3286259.24821         8.000           0.281
  21762684.125     6525451.975 6   5084765.14321        16.000           1.375
  20783676.883   -11206428.675 7  -8732275.84323        26.500           2.875
  23332212.375      490552.504 6    382247.52421        17.000           0.719
 91  6 24 17 42 15.0000000  0  4G16G19G 2G11
  24137359.008     4247806.367 5   3309970.77321         7.750           0.313
  21768194.570     6554414.227 6   5107333.11421        16.750           1.375
  20780126.305   -11225070.949 7  -8746802.28423        25.500           2.844
  23337273.031      517153.390 6    402975.47121        16.000           0.750
 91  6 24 17 42 30.0000000  0  4G16G19G 2G11
  24143163.820     4278300.416 4   3333732.33721         6.750           0.250
  21773719.945     6583428.053 6   5129941.28721        16.500           1.406
  20776594.195   -11243641.605 7  -8761272.91223        26.000           2.750
  23342359.891      543874.626 6    423797.20121        16.500           0.750
 91  6 24 17 42 45.0000000  0  4G16G19G 2G11
  24148973.305     4308861.788 4   3357546.33521         6.250           0.250
  21779248.086     6612496.981 6   5152592.38621        17.000           1.344
  20773073.938   -11262137.106 7  -8775684.98623        26.000           2.719
  23347470.266      570719.525 6    444715.27321        17.250           0.656
 91  6 24 17 43  0.0000000  0  4G16G19G 2G11
  24154802.820     4339493.291 4   3381414.98521         6.500           0.219
  21784794.195     6641624.066 6   5175288.80121        16.000           1.438
  20769571.359   -11280554.400 7  -8790036.11623        26.250           2.781
  23352600.180      597690.790 6    465731.82321        17.250           0.625
 91  6 24 17 43 15.0000000  0  4G16G19G 2G11
  24160648.063     4370194.404 4   3405337.87121         7.000           0.219
  21790344.344     6670809.289 6   5198030.52521        16.500           1.406
  20766081.680   -11298893.441 7  -8804326.27423        26.500           2.781
  23357757.250      624788.236 6    486846.69821        17.000           0.688
 91  6 24 17 43 30.0000000  0  4G16G19G 2G11
  24166505.039     4400962.687 4   3429313.11621         7.000           0.344
  21795911.914     6700050.502 6   5220815.87621        16.500           1.406
  20762606.281   -11317156.303 7  -8818557.06323        26.500           2.813
  23362934.609      652009.643 6    508058.17121        16.500           0.750
 91  6 24 17 43 45.0000000  0  4G16G19G 2G11
  24172373.023     4431799.249 4   3453341.53021         7.250           0.281
  21801486.031     6729348.811 6   5243645.71621        16.250           1.344
  20759141.250   -11335341.859 7  -8832727.62523        26.500           2.906
  23368141.242      679355.744 6    529366.79421        16.250           0.656
 91  6 24 17 44  0.0000000  0  3G19G 2G11
  21807073.438     6758703.578 6   5266519.54421        16.250           1.406
  20755696.234   -11353450.812 7  -8846838.49223        27.000           2.875
  23373366.359      706825.595 6    550771.85221        16.000           0.719
 91  6 24 17 44 15.0000000  0  3G19G 2G11
  21812668.891     6788113.965 6   5289436.72221        16.500           1.375
  20752267.188   -11371483.979 7  -8860890.30023        27.500           2.906
  23378617.820      734418.195 6    572272.56821        15.000           0.656
 91  6 24 17 44 30.0000000  0  3G19G 2G11
  21818275.570     6817577.912 6   5312395.62721        16.000           1.406
  20748849.117   -11389443.321 7  -8874884.59523        27.250           2.906
  23383893.445      762131.252 6    593867.15621        14.500           0.688
 91  6 24 17 44 45.0000000  0  3G19G 2G11
  21823889.273     6847098.058 6   5335398.31921        15.500           1.250
  20745447.703   -11407326.236 7  -8888819.32423        27.500           2.875
  23389191.602      789967.095 6    615557.39821        15.250           0.656
 91  6 24 17 45  0.0000000  0  3G19G 2G11
  21829520.117     6876677.948 6   5358447.57721        15.500           1.281
  20742059.055   -11425129.314 7  -8902691.84523        27.000           2.875
  23394509.820      817929.099 6    637345.94921        15.750           0.750
 91  6 24 17 45 15.0000000  0  3G19G 2G11
  21835160.148     6906310.507 6   5381537.86421        16.250           1.375
  20738683.094   -11442859.518 7  -8916507.59023        26.750           2.969
  23399855.938      846009.724 6    659226.94621        15.250           0.781
 91  6 24 17 45 30.0000000  0  3G19G 2G11
  21840808.289     6935995.187 6   5404668.77521        16.000           1.250
  20735324.484   -11460517.218 7  -8930266.82823        27.500           2.875
  23405218.977      874208.355 6    681199.87321        15.000           0.625
 91  6 24 17 45 45.0000000  0  3G19G 2G11
  21846468.961     6965737.023 6   5427844.22521        15.750           1.313
  20731980.797   -11478097.543 7  -8943965.77823        27.750           2.906
  23410607.195      902529.713 6    703268.44621        15.000           0.656
 91  6 24 17 46  0.0000000  0  3G19G 2G11
  21852141.563     6995533.175 6   5451061.99321        14.750           1.375
  20728645.078   -11495603.302 7  -8957606.62423        27.000           2.906
  23416021.313      930970.689 6    725430.21621        14.750           0.688
 91  6 24 17 46 15.0000000  0  3G19G 2G11
  21857818.008     7025385.791 6   5474323.76121        16.000           1.313
  20725332.703   -11513032.345 7  -8971187.69123        26.750           2.875
  23421451.297      959533.265 6    747686.73221        13.750           0.656
 91  6 24 17 46 30.0000000  0  3G19G 2G11
  21863515.922     7055298.837 6   5497632.61021        16.000           1.375
  20722027.586   -11530380.519 7  -8984705.74423        27.000           2.750
  23426912.875      988221.181 6    770040.92121        14.000           0.656
 91  6 24 17 46 45.0000000  0  3G19G 2G11
  21869213.461     7085265.036 6   5520982.88521        16.500           1.219
  20718741.078   -11547655.117 7  -8998166.46223        27.000           2.781
  23432393.930     1017026.946 6    792486.95521        14.000           0.781
 91  6 24 17 47  0.0000000  0  3G19G 2G11
  21874928.086     7115285.784 6   5544375.64921        16.250           1.344
  20715471.773   -11564854.706 8  -9011568.73423        28.250           2.750
  23437900.336     1045951.785 6    815025.76021        14.750           0.750
 91  6 24 17 47 15.0000000  0  3G19G 2G11
  21880649.055     7145358.841 6   5567809.18721        15.750           1.219
  20712211.523   -11581981.641 8  -9024914.39323        28.750           2.969
  23443427.125     1074993.100 6    837655.34921        14.250           0.719
 91  6 24 17 47 30.0000000  0  3G19G 2G11
  21886383.625     7175487.288 6   5591285.88421        16.500           1.281
  20708966.211   -11599032.797 8  -9038201.00023        28.500           2.844
  23448975.398     1104153.621 6    860377.81521        14.250           0.719
 91  6 24 17 47 45.0000000  0  3G19G 2G11
  21892124.859     7205670.945 6   5614805.60321        16.250           1.250
  20705735.977   -11616008.212 8  -9051428.59023        28.250           2.875
  23454550.156     1133433.051 6    883192.93021        15.250           0.625
 91  6 24 17 48  0.0000000  0  3G19G 2G11
  21897878.859     7235905.527 6   5638365.00521        16.250           1.094
  20702518.398   -11632912.386 8  -9064600.66723        28.000           2.875
  23460141.313     1162826.649 6    906096.99721        15.000           0.625
 91  6 24 17 48 15.0000000  0  3G19G 2G11
  21903641.383     7266194.868 6   5661967.08221        16.000           1.125
  20699314.461   -11649741.131 7  -9077713.96923        27.750           2.813
  23465760.352     1192338.229 6    929093.00821        15.500           0.625
 91  6 24 17 48 30.0000000  0  3G19G 2G11
  21909420.688     7296542.972 6   5685614.94121        17.000           1.219
  20696129.539   -11666490.455 7  -9090765.38423        27.750           2.719
  23471395.383     1221971.668 6    952183.97221        15.000           0.594
 91  6 24 17 48 45.0000000  0  3G19G 2G11
  21915205.398     7326948.238 6   5709307.34221        17.250           1.281
  20692956.078   -11683162.053 7  -9103756.23723        27.250           2.750
  23477052.266     1251724.824 6    975368.21821        14.500           0.563
 91  6 24 17 49  0.0000000  0  3G19G 2G11
  21921002.492     7357406.845 6   5733041.29521        16.000           1.219
  20689796.031   -11699759.856 7  -9116689.58623        27.500           2.656
  23482741.008     1281593.608 6    998642.56421        15.500           0.625
 91  6 24 17 49 15.0000000  0  3G19G 2G11
  21926810.586     7387922.278 6   5756819.54721        17.250           1.250
  20686652.742   -11716280.395 7  -9129562.72523        27.000           2.719
  23488451.539     1311581.475 6   1022009.70821        15.500           0.656
 91  6 24 17 49 30.0000000  0  3G19G 2G11
  21932624.820     7418493.741 6   5780641.45521        16.250           1.250
  20683524.602   -11732724.414 7  -9142376.24223        27.250           2.656
  23494178.914     1341687.140 6   1045468.63021        16.000           0.625
 91  6 24 17 49 45.0000000  0  3G19G 2G11
  21938451.234     7449116.917 6   5804503.65421        16.250           1.281
  20680409.781   -11749095.970 7  -9155133.29623        27.000           2.625
  23499929.492     1371906.127 6   1069015.87021        16.000           0.813
 91  6 24 17 50  0.0000000  0  3G19G 2G11
  21944288.422     7479791.516 6   5828405.91421        16.250           1.281
  20677307.508   -11765395.632 7  -9167834.32523        27.000           2.719
  23505700.633     1402237.882 6   1092650.95521        15.250           0.781
 91  6 24 17 50 15.0000000  0  3G19G 2G11
  21950136.875     7510523.526 6   5852352.91621        15.500           1.219
  20674220.734   -11781617.332 7  -9180474.60423        26.750           2.688
  23511496.305     1432688.064 6   1116378.32421        16.250           0.844
 91  6 24 17 50 30.0000000  0  3G19G 2G11
  21955999.586     7541306.260 6   5876339.45921        16.000           1.219
  20671147.602   -11797767.449 7  -9193059.11023        27.250           2.750
  23517311.398     1463249.910 6   1140192.69621        15.750           0.844
 91  6 24 17 50 45.0000000  0  3G19G 2G11
  21961863.242     7572143.928 6   5900368.79521        16.750           1.156
  20668089.680   -11813841.876 7  -9205584.63723        27.500           2.750
  23523147.266     1493927.418 6   1164097.23521        14.250           0.656
 91  6 24 17 51  0.0000000  0  3G19G 2G11
  21967741.313     7603038.028 6                        16.250
  20665043.867   -11829839.361 7  -9218050.20323        27.500           2.625
  23529004.906     1524721.695 6                        14.000
 91  6 24 17 51 15.0000000  0  3G19G 2G11
  21973631.938     7633986.108 6                        16.500
  20662016.180   -11845762.192 7  -9230457.60023        27.500           2.656
  23534891.664     1555629.984 6                        14.500
 91  6 24 17 51 30.0000000  0  3G19G 2G11
  21979532.688     7664993.390 6                        16.250
  20659001.469   -11861605.137 7  -9242802.74923        27.500           2.719
  23540795.773     1586657.221 6                        14.750
 91  6 24 17 51 45.0000000  0  3G19G 2G11
  21985445.711     7696068.636 6   5996933.45321        16.500           1.344
  20656002.117   -11877359.531 7  -9255078.88923        26.750           2.594
  23546723.320     1617811.897 6   1260630.48221        14.750           0.594
 91  6 24 17 52  0.0000000  0  3G19G 2G11
  21991370.188     7727197.862 6   6021189.97321        15.500           1.469
  20653017.406   -11893039.298 7  -9267296.88823        26.500           2.625
  23552671.805     1649079.788 6   1284995.05321        14.750           0.469
 91  6 24 17 52 15.0000000  0  3G19G 2G11
  21997303.641     7758380.617 6   6045488.20921        15.750           1.438
  20650048.406   -11908644.729 7  -9279456.95423        26.750           2.656
  23558644.422     1680460.312 6   1309447.37821        15.250           0.656
 91  6 24 17 52 30.0000000  0  3G19G 2G11
  22003249.680     7789614.736 6   6069826.46221        15.500           1.438
  20647092.578   -11924177.991 7  -9291560.78823        26.750           2.563
  23564636.164     1711951.187 6   1333985.68921        14.500           0.531
 91  6 24 17 52 45.0000000  0  3G19G 2G11
  22009202.984     7820905.765 6   6094209.06221        15.500           1.344
  20644153.055   -11939633.542 7  -9303604.07323        27.000           2.531
  23570652.516     1743557.460 6   1358613.94621        14.750           0.531
 91  6 24 17 53  0.0000000  0  3G19G 2G11
  22015162.883     7852248.749 6   6118632.14921        14.750           1.375
  20641224.555   -11955016.164 7  -9315590.52723        27.250           2.719
  23576687.938     1775273.885 6   1383328.02221        14.750           0.531
 91  6 24 17 53 15.0000000  0  3G19G 2G11
  22021141.734     7883650.885 6   6143101.33521        15.000           1.375
  20638311.398   -11970318.883 7  -9327514.71523        26.750           2.719
  23582745.820     1807107.290 6   1408133.24821        14.750           0.469
 91  6 24 17 53 30.0000000  0  3G19G 2G11
  22027132.320     7915111.605 6   6167616.17321        15.500           1.406
  20635418.664   -11985542.387 7  -9339377.18223        26.750           2.719
  23588827.164     1839056.743 6   1433028.91421        15.000           0.531
 91  6 24 17 53 45.0000000  0  3G19G 2G11
  22033127.516     7946629.770 6   6192175.76821        16.000           1.406
  20632531.805   -12000687.599 7  -9351178.64223        26.500           2.750
  23594927.195     1871121.063 6   1458014.07021        14.500           0.563
 91  6 24 17 54  0.0000000  0  3G19G 2G11
  22039136.391     7978199.753 6   6216775.74321        15.000           1.313
  20629666.961   -12015760.116 7  -9362923.45623        27.000           2.656
  23601051.430     1903294.433 6   1483084.21821        14.000           0.531
 91  6 24 17 54 15.0000000  0  3G19G 2G11
  22045147.672     8009824.520 6   6241418.40721        15.000           1.406
  20626813.266   -12030756.844 7  -9374609.20923        26.000           2.625
  23607194.500     1935579.539 6   1508241.41121        14.250           0.438
 91  6 24 17 54 30.0000000  0  3G19G 2G11
  22051182.820     8041508.048 6   6266106.85422        15.500           1.500
  20623971.156   -12045673.924 7  -9386232.90023        25.500           2.625
  23613358.070     1967979.953 6   1533488.48821        14.500           0.500
 91  6 24 17 54 45.0000000  0  3G19G 2G11
  22057218.742     8073252.728 6   6290842.96021        15.250           1.469
  20621149.945   -12060508.931 7  -9397792.64123        25.500           2.656
  23619549.336     2000498.003 6   1558827.20221        14.750           0.469
 91  6 24 17 55  0.0000000  0  3G19G 2G11
  22063277.789     8105057.332 6   6315625.74921        16.000           1.406
  20618342.219   -12075263.230 7  -9409289.49323        26.500           2.750
  23625756.977     2033131.993 6   1584256.26121        13.750           0.531
 91  6 24 17 55 15.0000000  0  3G19G 2G11
  22069335.648     8136922.385 6   6340455.64821        15.250           1.375
  20615550.156   -12089936.194 7  -9420722.96823        26.750           2.781
  23631988.180     2065882.218 6   1609775.88321        14.000           0.594
 91  6 24 17 55 30.0000000  0  3G19G 2G11
  22075416.023     8168851.194 6   6365335.22121        14.750           1.375
  20612773.992   -12104524.497 7  -9432090.47723        27.000           2.688
  23638239.445     2098751.711 6   1635388.47121        13.250           0.594
 91  6 24 17 55 45.0000000  0  3G19G 2G11
  22081500.086     8200839.151 6   6390260.89221        15.000           1.250
  20610013.266   -12119032.699 7  -9443395.56123        26.500           2.844
  23644518.102     2131735.504 6   1661090.07421        13.250           0.594
 91  6 24 17 56  0.0000000  0  3G19G 2G11
  22087600.617     8232890.122 6   6415235.66321        15.000           1.375
  20607265.922   -12133456.743 7  -9454635.07123        25.750           2.813
  23650820.422     2164837.406 6   1686883.75321        13.500           0.656
 91  6 24 17 56 15.0000000  0  3G19G 2G11
  22093712.047     8265006.238 6   6440261.20021        15.000           1.250
  20604537.523   -12147794.542 7  -9465807.37723        26.000           2.781
  23657142.063     2198059.213 6   1712770.85121        14.250           0.688
 91  6 24 17 56 30.0000000  0  3G19G 2G11
  22099836.656     8297192.918 6   6465341.72121        15.000           1.313
  20601828.047   -12162040.782 7  -9476908.33823        26.250           2.875
  23663487.016     2231405.965 6   1738755.28921        13.000           0.594
 91  6 24 17 56 45.0000000  0  3G19G 2G11
  22105972.352     8329445.961 6   6490473.95321        14.750           1.250
  20599133.977   -12176199.583 7  -9487941.16823        25.750           2.813
  23669854.945     2264873.330 6   1764833.74021        14.000           0.563
 91  6 24 17 57  0.0000000  0  3G19G 2G11
  22112126.008     8361769.262 6   6515660.92421        15.250           1.219
  20596456.469   -12190266.988 7  -9498902.77723        25.250           2.781
  23676248.125     2298464.881 6   1791008.94321        13.750           0.531
 91  6 24 17 57 15.0000000  0  3G19G 2G11
  22118291.117     8394164.625 6   6540904.05121        16.000           1.281
  20593798.516   -12204241.393 7  -9509791.91623        26.000           2.750
  23682661.094     2332182.068 6   1817282.06321        12.750           0.500
 91  6 24 17 57 30.0000000  0  3G19G 2G11
  22124469.367     8426634.255 6   6566205.05421        15.250           1.250
  20591156.992   -12218120.301 7  -9520606.64023        26.500           2.813
  23689104.453     2366027.130 6   1843654.80521        12.750           0.500
 91  6 24 17 57 45.0000000  0  3G19G 2G11
  22130661.789     8459177.631 6   6591563.51821        15.250           1.219
  20588534.547   -12231904.421 7  -9531347.50823        26.750           2.750
  23695570.742     2399998.966 6   1870126.32021        13.000           0.563
 91  6 24 17 58  0.0000000  0  3G19G 2G11
  22136874.906     8491805.532 6   6616987.84121        15.500           1.156
  20585930.781   -12245582.996 7  -9542006.13523        25.750           2.656
  23702061.094     2434108.195 6   1896704.94321        13.000           0.438
 91  6 24 17 58 15.0000000  0  3G19G 2G11
  22143093.508     8524516.637 6   6642477.01421        15.000           1.219
  20583348.578   -12259157.265 7  -9552583.48923        27.000           2.625
  23708578.219     2468353.161 6   1923389.30221        13.000           0.469
 91  6 24 17 58 30.0000000  0  3G19G 2G11
  22149337.953     8557314.383 6   6668033.67921        14.000           1.156
  20580783.711   -12272623.456 7  -9563076.62223        27.250           2.719
  23715121.031     2502737.106 6   1950181.97621        13.500           0.531
 91  6 24 17 58 45.0000000  0  3G19G 2G11
  22155598.750     8590205.368 6   6693663.00421        15.250           1.219
  20578244.453   -12285975.188 7  -9573480.56423        27.250           2.688
  23721687.125     2537266.262 6   1977087.76321        13.000           0.625
 91  6 24 17 59  0.0000000  0  3G19G 2G11
  22161872.047     8623191.801 6   6719366.70021        14.750           1.219
  20575728.766   -12299210.305 7  -9583793.63523        27.250           2.750
  23728288.125     2571942.585 6   2004108.26621        13.250           0.500
 91  6 24 17 59 15.0000000  0  3G19G 2G11
  22168165.328     8656268.816 6   6745140.97821        15.500           1.188
  20573229.094   -12312333.845 7  -9594019.76423        27.000           2.719
  23734917.695     2606760.875 6   2031239.37521        15.000           0.438
 91  6 24 17 59 30.0000000  0  3G19G 2G11
  22174480.320     8689447.653 6   6770994.60321        15.500           1.125
  20570753.984   -12325334.220 7  -9604149.92723        26.750           2.594
  23741569.578     2641732.281 6   2058489.80521        14.750           0.438
 91  6 24 17 59 45.0000000  0  3G19G 2G11
  22180815.953     8722739.003 6   6796935.89521        15.500           1.219
  20568307.109   -12338201.019 7  -9614175.99723        27.250           2.625
  23748256.141     2676867.051 6   2085867.52521        15.000           0.531
 91  6 24 18  0  0.0000000  0  3G19G 2G11
  22187173.289     8756139.309 6   6822962.10121        15.750           1.219
  20565883.664   -12350937.579 7  -9624100.58323        27.500           2.594
  23754971.023     2712161.217 6   2113369.43221        14.250           0.625
 91  6 24 18  0 15.0000000  0  3G19G 2G11
  22193549.758     8789653.768 6   6849077.25021        15.500           1.125
  20563485.289   -12363538.660 7  -9633919.60322        27.250           2.469
  23761720.031     2747619.699 6   2140999.39121        14.250           0.469
 91  6 24 18  0 30.0000000  0  3G19G 2G11
  22199947.750     8823289.394 6   6875286.80721        15.500           1.219
  20561115.281   -12375997.213 7  -9643627.56122        27.500           2.469
  23768500.398     2783249.419 6   2168762.76921        13.500           0.563
 91  6 24 18  0 45.0000000  0  3G19G 2G11
  22206372.227     8857049.043 6   6901593.01221        14.750           1.063
  20558771.500   -12388310.395 7  -9653222.24623        27.750           2.531
  23775311.336     2819052.869 6   2196661.49521        12.750           0.594
 91  6 24 18  1  0.0000000  0  3G19G 2G11
  22212824.188     8890940.602 6   6928001.99021        15.500           1.063
  20556456.969   -12400470.508 7  -9662697.65322        27.500           2.469
  23782161.297     2855037.569 6   2224701.50021        12.500           0.531
 91  6 24 18  1 15.0000000  0  3G19G 2G11
  22219300.891     8924965.834 6   6954515.14321        15.750           1.031
  20554175.398   -12412475.706 8  -9672052.35223        28.000           2.500
  23789041.758     2891205.211 6   2252884.01421        12.250           0.563
 91  6 24 18  1 30.0000000  0  3G19G 2G11
  22225804.758     8959131.438 6   6981137.67621        14.750           1.031
  20551920.750   -12424319.079 8  -9681280.95223        28.000           2.531
  23795964.109     2927562.332 6   2281214.20921        12.250           0.469
 91  6 24 18  1 45.0000000  0  3G19G 2G11
  22232330.797     8993442.069 6   7007873.21121        16.250           0.969
  20549696.508   -12435996.054 8  -9690379.88923        28.000           2.500
  23802912.664     2964113.199 5   2309695.37921        10.750           0.500
 91  6 24 18  2  0.0000000  0  3G19G 2G11
  22238885.047     9027906.556 6   7034728.63821        15.250           1.031
  20547508.344   -12447497.746 8  -9699342.24223        28.000           2.531
  23809910.008     3000866.215 6   2338334.04921        12.250           0.500
 91  6 24 18  2 15.0000000  0  3G19G 2G11
  22245472.898     9062521.446 6   7061701.26621        15.750           0.906
  20545351.945   -12458827.714 7  -9708170.78723        27.250           2.500
  23816943.836     3037817.651 6   2367127.35221        12.000           0.375
 91  6 24 18  2 30.0000000  0  3G19G 2G11
  22252092.586     9097300.159 6   7088801.55121        16.000           0.938
  20543233.352   -12469972.455 7  -9716854.99523        27.750           2.531
  23824013.398     3074980.766 6   2396085.56321        12.750           0.469
 91  6 24 18  2 45.0000000  0  3G19G 2G11
  22258744.109     9132239.256 6   7116026.80421        16.500           1.031
  20541145.773   -12480935.380 7  -9725397.53223        27.500           2.563
  23831127.023     3112351.708 6   2425205.74721        12.250           0.375
 91  6 24 18  3  0.0000000  0  3G19G 2G11
  22265425.188     9167346.016 6   7143382.69321        15.500           1.000
  20539093.336   -12491708.953 7  -9733792.51922        27.250           2.469
  23838277.211     3149937.661 6   2454493.45421        12.250           0.375
 91  6 24 18  3 15.0000000  0  3G19G 2G11
  22272136.344     9202622.318 6   7170870.70021        16.250           1.094
  20537080.102   -12502291.507 7  -9742038.66723        27.250           2.594
  23845469.281     3187740.220 6   2483949.95921        12.500           0.375
 91  6 24 18  3 30.0000000  0  3G19G 2G11
  22278879.766     9238072.838 6   7198494.46721        15.500           1.094
  20535106.602   -12512678.399 8  -9750132.34523        28.250           2.531
  23852704.797     3225763.616 6   2513578.53121        13.750           0.438
 91  6 24 18  3 45.0000000  0  3G19G 2G11
  22285660.266     9273700.413 6   7226256.20121        16.000           1.031
  20533167.453   -12522866.858 8  -9758071.39923        28.000           2.625
  23859986.805     3264010.369 6   2543381.18121        14.000           0.375
 91  6 24 18  4  0.0000000  0  3G19G 2G11
  22292473.375     9309505.980 6   7254156.61821        15.000           1.000
  20531265.000   -12532855.815 8  -9765854.99723        28.000           2.563
  23867306.992     3302481.241 6   2573358.45721        13.750           0.344
 91  6 24 18  4 15.0000000  0  3G19G 2G11
  22299320.094     9345491.168 6   7282197.00621        15.250           1.031
  20529401.148   -12542643.734 7  -9773481.94422        27.250           2.469
  23874663.805     3341177.406 6   2603511.27621        12.000           0.406
 91  6 24 18  4 30.0000000  0  3G19G 2G11
  22306202.906     9381652.895 6   7310374.95921        15.000           1.063
  20527576.836   -12552233.507 7  -9780954.49423        27.250           2.500
  23882076.031     3380095.567 6   2633837.05521        12.000           0.406
 91  6 24 18  4 45.0000000  0  3G19G 2G11
  22313116.305     9417990.114 6   7338689.65521        16.000           1.094
  20525789.891   -12561626.193 7  -9788273.47122        27.250           2.313
  23889524.086     3419234.506 5   2664334.87221        11.250           0.375
 91  6 24 18  5  0.0000000  0  3G19G 2G11
  22320067.828     9454502.691 6   7367140.99821        15.250           1.063
  20524041.125   -12570821.971 7  -9795439.00222        27.250           2.313
  23897012.508     3458593.833 5   2695004.44821        11.000           0.313
 91  6 24 18  5 15.0000000  0  3G19G 2G11
  22327045.609     9491184.849 6   7395724.46521        15.500           0.938
  20522328.289   -12579826.386 8  -9802455.42522        28.000           2.375
  23904542.336     3498167.592 5   2725841.08721        10.500           0.344
 91  6 24 18  5 30.0000000  0  3G19G 2G11
  22334058.680     9528038.278 6   7424441.41321        14.750           0.969
  20520651.711   -12588637.911 7  -9809321.54522        27.750           2.375
  23912114.047     3537956.955 5   2756845.75721        11.000           0.469
 91  6 24 18  5 45.0000000  0  3G19G 2G11
  22341104.211     9565054.231 6   7453284.99821        15.750           1.063
  20519006.531   -12597265.225 7  -9816044.12122        27.500           2.375
  23919728.086     3577952.957 5   2788011.46821        11.250           0.406
 91  6 24 18  6  0.0000000  0  3G19G 2G11
  22348181.906     9602229.900 6   7482253.03421        15.500           1.063
  20517399.391   -12605711.374 7  -9822625.52522        27.000           2.406
  23927377.117     3618152.455 5   2819335.69321        11.250           0.344
 91  6 24 18  6 15.0000000  0  3G19G 2G11
  22355283.016     9639559.598 6   7511341.08621        15.500           1.000
  20515829.578   -12613981.906 7  -9829070.09122        27.000           2.406
  23935065.352     3658549.661 5   2850814.02021        11.750           0.344
 91  6 24 18  6 30.0000000  0  3G19G 2G11
  22362415.797     9677037.505 6   7540544.63021        15.250           1.031
  20514283.258   -12622082.509 7  -9835382.24222        26.250           2.156
  23942786.711     3699138.332 6   2882441.51921        13.250           0.469
 91  6 24 18  6 45.0000000  0  3G19G 2G11
  22369571.695     9714655.626 6   7569857.44221        15.500           1.094
  20512773.781   -12630021.097 7  -9841568.15022        26.250           2.281
  23950547.953     3739910.147 6   2914211.73221        12.500           0.375
 91  6 24 18  7  0.0000000  0  3G19G 2G11
  22376759.133     9752411.726 6   7599277.75621        15.500           1.094
  20511295.555   -12637800.043 7  -9847629.66222        26.750           2.344
  23958339.844     3780862.500 6   2946122.64121        12.750           0.438
 91  6 24 18  7 15.0000000  0  3G19G 2G11
  22383969.063     9790299.754 6   7628800.87221        16.000           1.125
  20509841.844   -12645425.300 7  -9853571.41322        26.250           2.188
  23966166.078     3821989.138 6   2978169.30521        12.750           0.344
 91  6 24 18  7 30.0000000  0  3G19G 2G11
  22391201.391     9828315.300 6   7658423.35421        15.500           1.125
  20508422.258   -12652901.176 7  -9859396.77022        27.000           2.313
  23974031.766     3863285.605 6   3010348.34821        13.250           0.594
 91  6 24 18  7 45.0000000  0  3G19G 2G11
  22398457.305     9866453.231 6   7688141.19221        16.000           1.031
  20507027.469   -12660232.821 7  -9865109.73922        27.000           2.250
  23981916.977     3904746.271 6   3042655.31521        12.750           0.438
 91  6 24 18  8  0.0000000  0  3G19G 2G11
  22405742.727     9904704.884 6   7717947.66121        15.000           1.094
  20505657.906   -12667428.993 7  -9870717.13722        27.250           2.344
  23989831.469     3946362.174 5   3075083.25221        11.750           0.469
 91  6 24 18  8 15.0000000  0  3G19G 2G11
  22413032.930     9943062.448 6   7747836.66221        14.750           1.125
  20504313.359   -12674497.381 7  -9876224.96722        27.000           2.375
  23997783.414     3988125.171 6   3107625.79821        13.250           0.500
 91  6 24 18  8 30.0000000  0  3G19G 2G11
  22420357.633     9981519.820 6   7777803.42221        15.000           0.938
  20502990.125   -12681443.933 7  -9881637.86122        27.250           2.344
  24005751.367     4030028.878 5   3140277.99721        11.500           0.500
 91  6 24 18  8 45.0000000  0  3G19G 2G11
  22427692.648    10020078.174 6   7807848.88321        15.750           1.000
  20501691.070   -12688267.600 7  -9886955.00222        26.000           2.313
  24013753.211     4072074.359 5   3173040.65021        11.750           0.625
 91  6 24 18  9  0.0000000  0  3G19G 2G11
  22435049.922    10058730.517 6   7837967.56421        14.750           1.000
  20500413.359   -12694975.450 7  -9892181.89622        25.750           2.375
  24021780.688     4114254.215 6   3205908.01921        12.500           0.469
 91  6 24 18  9 15.0000000  0  3G19G 2G11
  22442419.820    10097472.467 6   7868156.07321        15.250           0.969
  20499159.672   -12701571.796 7  -9897321.90022        26.750           2.438
  24029830.313     4156563.767 6   3238876.46921        12.000           0.438
 91  6 24 18  9 30.0000000  0  3G19G 2G11
  22449805.703    10136297.314 6   7898409.18321        14.250           1.063
  20497926.227   -12708063.367 7  -9902380.26322        26.000           2.375
  24037907.961     4198996.166 6   3271940.66121        12.500           0.438
 91  6 24 18  9 45.0000000  0  3G19G 2G11
  22457209.648    10175198.820 6   7928722.02121        15.000           1.031
  20496708.273   -12714456.439 7  -9907361.87422        26.250           2.375
  24046007.500     4241544.621 6   3305095.25521        12.250           0.500
 91  6 24 18 10  0.0000000  0  3G19G 2G11
  22464628.625    10214173.141 6   7959091.61221        14.750           0.969
  20495508.547   -12720754.680 7  -9912269.58822        26.000           2.469
  24054121.984     4284205.089 5   3338337.12221        11.500           0.438
 91  6 24 18 10 15.0000000  0  3G19G 2G11
  22472054.711    10253216.908 6   7989515.30021        14.000           1.000
  20494327.750   -12726961.683 7  -9917106.21122        26.500           2.313
  24062261.727     4326973.878 5   3371663.39721        11.500           0.406
 91  6 24 18 10 30.0000000  0  3G19G 2G11
  22479499.484    10292326.544 6   8019990.31921        14.750           0.969
  20493162.438   -12733080.966 7  -9921874.48122        26.500           2.375
  24070416.633     4369847.098 5   3405071.05121        10.250           0.406
 91  6 24 18 10 45.0000000  0  3G19G 2G11
  22486952.047    10331501.436 6   8050516.18621        14.750           1.031
  20492015.703   -12739112.809 7  -9926574.61122        27.000           2.344
  24078597.469     4412824.072 5   3438559.54221        11.000           0.281
 91  6 24 18 11  0.0000000  0  3G19G 2G11
  22494426.094    10370737.723 6   8081089.89321        13.500           0.969
  20490883.883   -12745061.261 7  -9931209.76722        26.250           2.313
  24086792.695     4455900.490 5   3472125.55121        11.250           0.375
 91  6 24 18 11 15.0000000  0  3G19G 2G11
  22501898.234    10410035.020 6   8111711.16021        14.500           0.906
  20489767.938   -12750926.684 7  -9935780.22422        26.750           2.406
  24095011.641     4499075.752 5   3505768.53921        10.750           0.250
 91  6 24 18 11 30.0000000  0  3G19G 2G11
  22509393.805    10449392.860 6   8142379.58121        14.500           1.031
  20488667.883   -12756709.474 7  -9940286.29022        26.500           2.438
  24103247.484     4542349.211 5   3539488.09221        10.750           0.281
 91  6 24 18 11 45.0000000  0  3G19G 2G11
  22516889.406    10488809.226 6   8173093.61321        14.750           0.938
  20487582.141   -12762411.807 7  -9944729.66222        26.750           2.281
  24111498.422     4585718.268 5   3573282.11621        10.000           0.156
 91  6 24 18 12  0.0000000  0  3G19G 2G11
  22524400.523    10528284.538 6   8203853.56821        14.000           1.094
  20486510.219   -12768032.965 7  -9949109.78822        26.750           2.250
  24119769.109     4629183.334 5   3607150.96221         8.750           0.188
 91  6 24 18 12 15.0000000  0  3G19G 2G11
  22531921.906    10567811.613 6   8234653.86721        14.250           0.906
  20485455.484   -12773580.092 7  -9953432.21722        26.750           2.281
  24128052.820     4672736.782 5   3641088.66121         8.250           0.219
 91  6 24 18 12 30.0000000  0  3G19G 2G11
  22539453.133    10607388.164 6   8265492.71321        13.750           0.906
  20484413.664   -12779055.612 7  -9957698.85222        27.250           2.313
  24136364.453     4716376.037 5   3675093.23721         9.750           0.219
 91  6 24 18 12 45.0000000  0  3G19G 2G11
  22546993.242    10647014.568 6   8296370.41321        14.250           0.938
  20483386.430   -12784458.994 7  -9961909.27822        26.750           2.188
  24144684.797     4760101.451 5   3709164.92621        10.750           0.219
 91  6 24 18 13  0.0000000  0  3G19G 2G11
  22554539.914    10686689.414 6   8327285.84821        13.750           0.844
  20482371.992   -12789791.648 7  -9966064.59122        27.750           2.281
  24153021.266     4803911.182 5   3743302.31221        11.750           0.406
 91  6 24 18 13 15.0000000  0  3G19G 2G11
  22562102.836    10726412.468 6   8358238.86421        14.250           0.938
  20481369.891   -12795053.930 7  -9970165.07122        27.500           2.281
  24161375.680     4847804.553 6   3777504.90721        12.250           0.406
 91  6 24 18 13 30.0000000  0  3G19G 2G11
  22569669.977    10766179.284 6   8389225.96521        13.750           0.813
  20480382.344   -12800250.241 8  -9974214.13822        28.250           2.219
  24169741.023     4891776.737 6   3811768.90521        12.000           0.438
 91  6 24 18 13 45.0000000  0  3G19G 2G11
  22577250.266    10805994.710 6   8420250.94621        14.250           0.938
  20479407.195   -12805375.670 8  -9978207.98122        28.250           2.344
  24178125.516     4935832.479 6   3846097.98221        12.750           0.438
 91  6 24 18 14  0.0000000  0  3G19G 2G11
  22584836.477    10845857.964 6   8451313.20621        12.750           0.844
  20478446.875   -12810430.929 8  -9982147.14022        28.500           2.219
  24186525.531     4979970.791 6   3880491.41821        13.250           0.469
 91  6 24 18 14 15.0000000  0  3G19G 2G11
  22592427.289    10885767.003 6   8482411.13921        14.000           0.813
  20477494.336   -12815418.059 7  -9986033.21322        27.500           2.281
  24194938.352     5024189.227 6   3914947.28921        12.500           0.531
 91  6 24 18 14 30.0000000  0  3G19G 2G11
  22600031.438    10925720.509 6   8513543.72121        14.000           0.875
  20476561.391   -12820338.438 7  -9989867.27122        27.750           2.219
  24203367.531     5068486.114 6   3949464.30221        12.750           0.406
 91  6 24 18 14 45.0000000  0  3G19G 2G11
  22607640.898    10965717.379 6   8544710.09321        13.750           0.906
  20475635.914   -12825193.348 7  -9993650.31722        27.500           2.313
  24211812.055     5112859.995 6   3984041.31821        12.250           0.313
 91  6 24 18 15  0.0000000  0  3G19G 2G11
  22615261.195    11005758.507 6   8575910.93221        14.250           1.031
  20474724.766   -12829981.590 7  -9997381.41322        27.500           2.469
  24220271.969     5157311.586 6   4018678.85821        13.250           0.313
 91  6 24 18 15 15.0000000  0  3G19G 2G11
  22622886.813    11045841.575 6   8607144.48121        13.500           0.813
  20473823.172   -12834705.368 7 -10001062.27622        27.250           2.469
  24228745.461     5201838.442 6   4053375.05921        13.000           0.313
 91  6 24 18 15 30.0000000  0  3G19G 2G11
  22630527.047    11085971.553 6   8638414.58521        13.750           0.875
  20472939.305   -12839359.983 7 -10004689.24623        27.750           2.531
  24237228.852     5246445.059 6   4088133.45921        12.250           0.375
 91  6 24 18 15 45.0000000  0  3G19G 2G11
  22638165.250    11126146.784 6   8669719.93821        13.500           0.844
  20472067.164   -12843947.067 7 -10008263.59822        27.500           2.469
  24245737.547     5291129.449 6   4122952.42321        12.500           0.438
 91  6 24 18 16  0.0000000  0  3G19G 2G11
  22645823.078    11166364.103 6   8701058.07621        14.000           0.688
  20471205.938   -12848469.767 7 -10011787.77922        27.500           2.469
  24254250.852     5335888.268 5   4157829.36621        11.000           0.469
 91  6 24 18 16 15.0000000  0  3G19G 2G11
  22653483.680    11206626.544 6   8732431.38221        14.000           0.813
  20470357.281   -12852924.660 7 -10015259.11623        27.250           2.594
  24262785.375     5380724.329 5   4192766.48521        11.000           0.344
 91  6 24 18 16 30.0000000  0  3G19G 2G11
  22661156.352    11246931.533 6   8763837.84721        13.750           0.844
  20469524.469   -12857314.233 7 -10018679.56923        27.250           2.531
  24271331.180     5425634.812 5   4227761.62021        11.500           0.406
 91  6 24 18 16 45.0000000  0  3G19G 2G11
  22668835.922    11287283.037 6   8795280.54521        14.000           0.781
  20468700.906   -12861634.800 7 -10022046.24522        27.000           2.469
  24279891.516     5470623.297 5   4262817.53321        11.000           0.344
 91  6 24 18 17  0.0000000  0  3G19G 2G11
  22676523.523    11327678.042 6   8826757.14621        13.000           0.750
  20467891.266   -12865889.286 7 -10025361.42923        27.000           2.531
  24288465.914     5515686.449 5   4297931.61921        10.500           0.469
 91  6 24 18 17 15.0000000  0  3G19G 2G11
  22684209.359    11368112.322 6   8858264.36521        12.500           0.594
  20467091.969   -12870081.908 7 -10028628.41222        27.250           2.438
  24297058.078     5560819.781 5   4333100.41321        11.000           0.438
 91  6 24 18 17 30.0000000  0  3G19G 2G11
  22691917.547    11408585.124 6   8889801.59421        13.000           0.625
  20466306.727   -12874213.524 7 -10031847.85122        26.750           2.469
  24305657.563     5606022.198 5   4368323.01621        10.500           0.438
 91  6 24 18 17 45.0000000  0  3G19G 2G11
  22699626.695    11449104.479 6   8921375.09321        13.000           0.688
  20465534.609   -12878275.761 7 -10035013.23023        27.500           2.594
  24314273.469     5651301.535 5   4403605.57021         9.750           0.531
 91  6 24 18 18  0.0000000  0  3G19G 2G11
  22707349.609    11489666.995 6   8952982.24021        12.750           0.656
  20464773.750   -12882272.205 7 -10038127.33822        27.750           2.438
  24322905.023     5696654.038 5   4438945.10421        10.500           0.500
 91  6 24 18 18 15.0000000  0  3G19G 2G11
  22715070.859    11530276.086 6   8984625.65721        12.250           0.750
  20464025.000   -12886199.484 7 -10041187.55423        27.500           2.500
  24331550.086     5742082.878 5   4474344.16621        10.750           0.531
 91  6 24 18 18 30.0000000  0  3G19G 2G11
  22722809.688    11570926.711 6   9016301.44921        12.000           0.781
  20463292.125   -12890062.557 8 -10044197.74022        28.250           2.438
  24340210.211     5787582.644 5   4509798.49121         9.500           0.375
 91  6 24 18 18 45.0000000  0  3G19G 2G11
  22730555.281    11611620.001 6   9048010.49221        12.500           0.750
  20462568.688   -12893860.088 8 -10047156.85822        28.250           2.344
  24348879.898     5833154.267 5   4545308.77921         9.750           0.469
 91  6 24 18 19  0.0000000  0  3G19G 2G11
  22738302.984    11652356.105 6   9079752.87921        12.250           0.969
  20461858.008   -12897592.030 8 -10050064.86423        28.250           2.500
  24357562.234     5878797.595 5   4580874.96621         8.250           0.500
 91  6 24 18 19 15.0000000  0  3G19G 2G11
  22746063.445    11693137.747 6   9111530.75921        12.500           0.750
  20461161.641   -12901255.559 8 -10052919.56623        28.750           2.500
  24366261.578     5924515.147 5   4616498.98121         8.500           0.500
 91  6 24 18 19 30.0000000  0  3G19G 2G11
  22753832.852    11733964.522 5   9143343.80621        11.500           0.813
  20460476.211   -12904851.300 8 -10055721.43922        28.250           2.406
  24374978.219     5970306.008 5   4652180.09421         9.250           0.469
 91  6 24 18 19 45.0000000  0  3G19G 2G11
  22761609.805    11774833.714 6   9175189.90421        12.750           0.750
  20459805.578   -12908381.859 8 -10058472.52322        28.000           2.438
  24383706.078     6016167.221 5   4687916.06221         8.750           0.438
 91  6 24 18 20  0.0000000  0  3G19G 2G11
  22769396.789    11815745.396 6   9207069.11821        13.000           0.750
  20459144.969   -12911847.121 8 -10061172.72222        28.000           2.344
  24392447.203     6062098.614 5   4723706.70721         9.750           0.156
 91  6 24 18 20 15.0000000  0  3G19G 2G11
  22777189.945    11856698.714 6   9238980.76121        13.000           0.656
  20458496.484   -12915247.862 7 -10063822.64723        27.750           2.500
  24401196.023     6108099.112 5   4759551.25121         9.500           0.375
 91  6 24 18 20 30.0000000  0  3G19G 2G11
  22784991.516    11897699.675 6   9270929.55221        12.250           0.719
  20457863.250   -12918578.110 7 -10066417.64522        27.750           2.406
  24409966.258     6154174.401 5   4795454.02521        10.250           0.188
 91  6 24 18 20 45.0000000  0  3G19G 2G11
  22792798.422    11938745.551 6   9302913.33021        12.500           0.750
  20457244.766   -12921840.479 8 -10068959.75823        28.000           2.531
  24418749.617     6200321.503 5   4831412.76121        11.750           0.281
 91  6 24 18 21  0.0000000  0  3G19G 2G11
  22800624.461    11979835.309 6   9334931.30421        13.250           0.688
  20456635.469   -12925035.987 8 -10071449.76123        28.500           2.500
  24427542.930     6246538.976 5   4867426.34721        11.750           0.219
 91  6 24 18 21 15.0000000  0  2G19G 2
  22808449.828    12020967.688 6   9366982.47521        13.500           0.688
  20456041.305   -12928165.836 8 -10073888.60422        28.750           2.438
 91  6 24 18 21 30.0000000  0  3G 6G19G 2
  20881182.648          -0.61017                        23.250
  22816285.961    12062141.785 6   9399066.17221        13.750           0.719
  20455455.648   -12931230.899 7 -10076276.96522        27.000           2.406
 91  6 24 18 21 45.0000000  0  3G 6G19G 2
  20877606.578      -18794.009 7                        22.750
  22824126.672    12103358.017 6   9431182.69421        13.750           0.781
  20454886.211   -12934230.823 7 -10078614.56223        27.000           2.594
 91  6 24 18 22  0.0000000  0  3G 6G19G 2
  20874040.773      -37537.067 7        -0.24532        23.500           2.344
  22831979.406    12144617.036 6   9463332.56721        13.000           0.719
  20454327.047   -12937164.938 7 -10080900.88922        26.500           2.469
 91  6 24 18 22 15.0000000  0  3G 6G19G 2
  20870480.711      -56230.948 7    -14566.89822        22.750           2.313
  22839835.031    12185917.825 6   9495514.97221        13.000           0.781
  20453781.977   -12940034.415 7 -10083136.84522        27.000           2.250
 91  6 24 18 22 30.0000000  0  3G 6G19G 2
  20866935.547      -74872.084 7    -29092.45522        22.750           2.281
  22847709.336    12227263.231 6   9527732.14221        12.750           0.781
  20453247.250   -12942836.211 7 -10085320.05722        26.500           2.375
 91  6 24 18 22 45.0000000  0  3G 6G19G 2
  20863397.719      -93465.059 7    -43580.48222        23.000           2.406
  22855580.086    12268648.671 6   9559980.51721        12.750           0.719
  20452727.828   -12945574.671 7 -10087453.92222        26.750           2.406
 91  6 24 18 23  0.0000000  0  3G 6G19G 2
  20859868.266     -112005.001 7    -58027.18022        22.750           2.313
  22863467.703    12310078.537 6   9592263.51321        12.500           0.719
  20452219.156   -12948245.327 7 -10089534.94922        27.000           2.344
 91  6 24 18 23 15.0000000  0  3G 6G19G 2
  20856350.648     -130492.995 7    -72433.40322        22.750           2.313
  22871356.734    12351551.731 6   9624580.25921        12.250           0.781
  20451723.313   -12950849.495 7 -10091564.17122        26.500           2.344
 91  6 24 18 23 30.0000000  0  3G 6G19G 2
  20852841.117     -148928.627 7    -86798.82922        22.500           2.438
  22879261.078    12393068.468 5   9656930.92421        11.750           0.750
  20451240.594   -12953387.039 7 -10093541.47122        26.250           2.469
 91  6 24 18 23 45.0000000  0  3G 6G19G 2
  20849343.477     -167312.405 7   -101123.84122        22.250           2.219
  22887171.594    12434627.818 6   9689314.80421        12.750           0.875
  20450769.586   -12955858.576 7 -10095467.35022        26.000           2.344
 91  6 24 18 24  0.0000000  0  3G 6G19G 2
  20845857.086     -185645.480 7   -115409.34822        22.500           2.281
  22895090.430    12476228.264 5   9721730.71821        11.750           0.625
  20450310.805   -12958265.668 7 -10097343.00622        26.000           2.406
 91  6 24 18 24 15.0000000  0  3G 6G19G 2
  20842378.516     -203920.078 7   -129649.28822        22.750           2.313
  22903005.336    12517877.519 5   9754184.65621        11.500           0.781
  20449870.766   -12960600.743 7 -10099162.54622        26.750           2.250
 91  6 24 18 24 30.0000000  0  3G 6G19G 2
  20838909.977     -222140.930 7   -143847.34822        22.750           2.250
  22910942.977    12559570.570 5   9786672.70021        11.500           0.719
  20449438.250   -12962868.606 7 -10100929.70822        26.750           2.344
 91  6 24 18 24 45.0000000  0  3G 6G19G 2
  20835454.008     -240306.890 7   -158002.63522        23.000           2.313
  22918882.797    12601308.101 6   9819195.42521        12.000           0.656
  20449018.313   -12965068.599 7 -10102643.99522        26.500           2.344
 91  6 24 18 25  0.0000000  0  3G 6G19G 2
  20832007.891     -258421.590 7   -172117.98422        22.750           2.313
  22926840.031    12643086.434 6   9851749.94721        12.250           0.688
  20448613.313   -12967204.359 7 -10104308.22122        26.500           2.313
 91  6 24 18 25 15.0000000  0  3G 6G19G 2
  20828570.422     -276483.803 7   -186192.42822        22.250           2.313
  22934794.242    12684906.302 6   9884336.83221        12.750           0.656
  20448218.422   -12969275.059 7 -10105921.75722        27.000           2.344
 91  6 24 18 25 30.0000000  0  3G 6G19G 2
  20825144.922     -294488.207 7   -200221.82622        22.750           2.375
  22942758.031    12726773.074 6   9916960.26321        12.250           0.594
  20447834.805   -12971275.388 7 -10107480.45122        26.500           2.313
 91  6 24 18 25 45.0000000  0  3G 6G19G 2
  20821726.563     -312438.978 7   -214209.42922        22.500           2.250
  22950734.266    12768682.158 6   9949616.67821        12.250           0.656
  20447469.266   -12973209.934 7 -10108987.89022        27.000           2.313
 91  6 24 18 26  0.0000000  0  3G 6G19G 2
  20818320.602     -330336.705 7   -228155.70322        21.750           2.375
  22958713.328    12810632.729 5   9982305.40121        11.500           0.656
  20447111.750   -12975079.536 7 -10110444.72522        26.750           2.313
 91  6 24 18 26 15.0000000  0  3G 6G19G 2
  20814925.922     -348182.626 7   -242061.61422        22.500           2.156
  22966709.000    12852623.261 6  10015025.26421        12.250           0.656
  20446770.336   -12976885.690 7 -10111852.12022        26.500           2.406
 91  6 24 18 26 30.0000000  0  3G 6G19G 2
  20811540.609     -365975.510 7   -255926.19922        22.000           2.094
  22974707.516    12894654.611 5  10047776.93021        11.000           0.594
  20446437.836   -12978627.314 7 -10113209.23222        26.500           2.406
 91  6 24 18 26 45.0000000  0  3G 6G19G 2
  20808167.992     -383712.541 7   -269747.26122        22.500           2.125
  22982719.352    12936729.491 6  10080562.51721        12.750           0.500
  20446117.922   -12980301.774 7 -10114514.01322        26.250           2.438
 91  6 24 18 27  0.0000000  0  3G 6G19G 2
  20804798.883     -401400.188 7   -283529.83822        22.250           2.156
  22990727.453    12978841.238 5  10113376.82521        11.500           0.656
  20445813.719   -12981915.744 7 -10115771.65522        27.250           2.438
 91  6 24 18 27 15.0000000  0  3G 6G19G 2
  20801444.938     -419031.658 7   -297268.64822        22.000           2.125
  22998750.914    13020996.260 5  10146224.86721        11.750           0.563
  20445517.633   -12983462.881 7 -10116977.21822        27.250           2.438
 91  6 24 18 27 30.0000000  0  3G 6G19G 2
  20798098.688     -436607.469 7   -310964.08322        22.000           2.125
  23006781.219    13063193.809 5  10179106.04221        11.750           0.656
  20445237.555   -12984943.735 7 -10118131.13522        27.750           2.313
 91  6 24 18 27 45.0000000  0  3G 6G19G 2
  20794767.656     -454126.603 7   -324615.35122        22.250           2.156
  23014818.414    13105434.575 6  10212020.90121        12.250           0.500
  20444964.703   -12986357.541 7 -10119232.80422        26.500           2.344
 91  6 24 18 28  0.0000000  0  3G 6G19G 2
  20791441.383     -471589.644 7   -338222.91922        21.750           2.156
  23022868.344    13147717.641 6  10244968.70421        12.000           0.688
  20444710.141   -12987705.284 7 -10120282.99522        26.500           2.281
 91  6 24 18 28 15.0000000  0  3G 6G19G 2
  20788130.344     -488990.959 7   -351782.38522        22.250           2.125
  23030919.469    13190048.381 6  10277953.66821        12.250           0.594
  20444469.086   -12988981.461 7 -10121277.42322        26.750           2.344
 91  6 24 18 28 30.0000000  0  3G 6G19G 2
  20784829.719     -506338.155 7   -365299.67822        22.500           2.156
  23038984.086    13232419.037 6  10310969.73721        12.500           0.563
  20444236.242   -12990193.888 7 -10122222.17322        26.500           2.375
 91  6 24 18 28 45.0000000  0  3G 6G19G 2
  20781541.680     -523628.199 7   -378772.43622        22.000           2.188
  23047054.289    13274832.368 6  10344019.05521        12.500           0.594
  20444021.016   -12991339.779 7 -10123115.07822        27.500           2.219
 91  6 24 18 29  0.0000000  0  3G 6G19G 2
  20778259.500     -540860.039 7   -392199.83922        22.000           2.250
  23055132.953    13317289.258 6  10377102.29921        12.250           0.656
  20443814.898   -12992418.156 7 -10123955.37922        27.750           2.250
 91  6 24 18 29 15.0000000  0  3G 6G19G 2
  20774991.844     -558037.671 7   -405585.00022        22.250           2.188
  23063221.422    13359785.243 6  10410216.03321        12.750           0.625
  20443621.664   -12993433.630 7 -10124746.66322        27.750           2.250
 91  6 24 18 29 30.0000000  0  3G 6G19G 2
  20771734.406     -575160.308 7   -418927.30822        22.000           2.094
  23071319.000    13402320.854 6  10443360.64021        12.250           0.531
  20443442.125   -12994385.494 8 -10125488.37522        28.000           2.281
 91  6 24 18 29 45.0000000  0  3G 6G19G 2
  20768487.203     -592220.821 7   -432221.21022        22.000           2.125
  23079419.492    13444902.949 5  10476541.45121        11.500           0.625
  20443271.953   -12995266.693 8 -10126175.02422        28.500           2.344
 91  6 24 18 30  0.0000000  0  3G 6G19G 2
  20765250.820     -609221.985 7   -445468.87122        22.500           2.188
  23087530.914    13487528.435 5  10509756.09021        11.000           0.563
  20443118.969   -12996080.400 8 -10126809.09022        28.750           2.281
 91  6 24 18 30 15.0000000  0  3G 6G19G 2
  20762029.789     -626165.334 7   -458671.47222        22.500           2.250
  23095647.000    13530195.674 5  10543003.25621        11.250           0.563
  20442974.102   -12996828.294 8 -10127391.86822        28.500           2.313
 91  6 24 18 30 30.0000000  0  3G 6G19G 2
  20758814.578     -643047.732 7   -471826.57822        23.000           2.281
  23103773.477    13572907.371 5  10576285.05621        10.500           0.656
  20442845.906   -12997507.528 8 -10127921.14122        28.500           2.219
 91  6 24 18 30 45.0000000  0  2G19G 2
  23111910.375    13615661.957 5  10609600.27721        11.000           0.656
  20442725.516   -12998119.844 8 -10128398.27522        28.250           2.188
 91  6 24 18 31  0.0000000  0  2G19G 2
  23120061.141    13658462.939 5  10642951.66821        11.500           0.656
  20442626.453   -12998661.588 8 -10128820.41522        28.500           2.156
 91  6 24 18 31 15.0000000  0  2G19G 2
  23128212.141    13701313.344 5  10676341.54821        11.500           0.656
  20442535.945   -12999129.725 8 -10129185.20222        28.750           2.250
 91  6 24 18 31 30.0000000  0  2G19G 2
  23136377.227    13744201.849 5  10709761.12221        11.750           0.625
  20442459.953   -12999535.349 8 -10129501.27222        28.250           2.188
 91  6 24 18 31 45.0000000  0  2G19G 2
  23144540.953    13787130.864 5  10743212.25321        11.250           0.688
  20442393.422   -12999876.127 8 -10129766.81922        28.000           2.281
 91  6 24 18 32  0.0000000  0  3G15G19G 2
  24157497.133          -0.57715                         8.250
  23152714.266    13830108.642 5  10776701.39421        10.250           0.625
  20442345.328   -13000143.728 8 -10129975.33922        28.750           2.125
 91  6 24 18 32 15.0000000  0  3G15G19G 2
  24152473.141      -26362.445 5                         8.500
  23160903.117    13873129.923 5  10810224.42421        11.250           0.625
  20442309.391   -13000343.548 8 -10130131.04622        28.750           2.188
 91  6 24 18 32 30.0000000  0  3G15G19G 2
  24147480.172      -52636.155 5        -0.22931         9.000           0.406
  23169100.172    13916192.742 5  10843779.83921        11.250           0.531
  20442279.500   -13000477.463 8                        29.000
 91  6 24 18 32 45.0000000  0  3G15G19G 2
  24142494.070      -78818.310 5    -20401.87021         8.000           0.500
  23177299.969    13959300.114 6  10877369.95521        12.250           0.469
  20442269.813   -13000542.277 8                        28.750
 91  6 24 18 33  0.0000000  0  3G15G19G 2
  24137533.344     -104906.602 5    -40730.39021         8.000           0.438
  23185518.508    14002453.837 5  10910996.20521        11.250           0.625
  20442269.648   -13000536.097 8                        28.500
 91  6 24 18 33 15.0000000  0  3G15G19G 2
  24132580.125     -130905.651 5    -60989.37421         8.250           0.438
  23193736.219    14045648.826 6  10944654.59021        12.250           0.531
  20442281.406   -13000464.119 8                        28.000
 91  6 24 18 33 30.0000000  0  4G15G 6G19G 2
  24127655.953     -156812.207 5    -81176.28521         8.500           0.438
  20721181.703          -0.06417                        22.250
  23201967.883    14088888.231 6  10978347.59121        12.000           0.500
  20442309.977   -13000323.069 8                        28.000
 91  6 24 18 33 45.0000000  0  4G15G 6G19G 2
  24122738.727     -182624.174 5   -101289.47521         8.500           0.500
  20718123.953      -16070.124 7                        22.500
  23210198.656    14132173.535 5  11012076.35121        11.000           0.531
  20442348.039   -13000111.631 8                        28.500
 91  6 24 18 34  0.0000000  0  4G15G 6G19G 2
  24117847.055     -208345.151 5   -121331.79121         9.000           0.375
  20715076.617      -32077.961 7                        22.250
  23218447.000    14175500.619 5  11045837.68521        11.000           0.594
  20442403.992   -12999833.727 8 -10129733.79622        28.750           2.375
 91  6 24 18 34 15.0000000  0  4G15G 6G19G 2
  24112975.594     -233969.615 5   -141298.87221         8.750           0.344
  20712045.875      -48018.277 7                        22.750
  23226699.602    14218874.698 5  11079635.61521        11.000           0.625
  20442467.875   -12999484.278 8 -10129461.50122        28.750           2.281
 91  6 24 18 34 30.0000000  0  4G15G 6G19G 2
  24108112.422     -259499.966 5   -161192.65121         9.000           0.469
  20709023.359      -63893.908 7                        23.250
  23234962.164    14262292.688 5  11113467.78421        10.500           0.563
  20442547.258   -12999066.282 8 -10129135.78922        28.250           2.281
 91  6 24 18 34 45.0000000  0  4G15G 6G19G 2
  24103274.453     -284934.410 5   -181011.71921        10.250           0.438
  20706016.188      -79702.892 7        -0.03932        22.750           2.188
  23243231.539    14305756.094 5  11147335.31421        10.500           0.469
  20442642.758   -12998578.091 8 -10128755.38322        28.750           2.250
 91  6 24 18 35  0.0000000  0  4G15G 6G19G 2
  24098449.344     -310275.831 5   -200758.25621        10.250           0.375
  20703019.609      -95448.144 7    -12269.06522        23.250           2.125
  23251514.391    14349261.730 5  11181235.78221        10.250           0.500
  20442748.813   -12998022.925 8 -10128322.78722        28.000           2.281
 91  6 24 18 35 15.0000000  0  4G15G 6G19G 2
  24093649.531     -335521.910 5   -220430.51621        11.000           0.313
  20700036.531     -111127.803 7    -24486.98122        23.000           2.125
  23259795.258    14392811.359 5  11215170.52621        10.250           0.469
  20442865.500   -12997398.917 8 -10127836.55422        28.250           2.375
 91  6 24 18 35 30.0000000  0  4G15G 6G19G 2
  24088858.656     -360671.503 5   -240027.60821        11.000           0.469
  20697063.664     -126740.526 7    -36652.73422        22.500           2.281
  23268095.547    14436405.835 5  11249140.20521        11.250           0.469
  20442999.063   -12996705.187 8 -10127295.98422        28.500           2.313
 91  6 24 18 35 45.0000000  0  4G15G 6G19G 2
  24084093.211     -385723.104 5   -259548.32721        11.500           0.313
  20694107.148     -142285.062 7    -48765.35722        22.750           2.156
  23276399.273    14480046.201 5  11283145.65021        11.250           0.469
  20443146.617   -12995940.695 8 -10126700.28222        28.500           2.469
 91  6 24 18 36  0.0000000  0  4G15G 6G19G 2
  24079346.055     -410679.882 5   -278995.14721        11.750           0.438
  20691159.461     -157764.601 7    -60827.33422        23.000           2.250
  23284718.992    14523728.753 5  11317183.98121        10.250           0.313
  20443301.938   -12995108.849 8 -10126052.09422        28.000           2.469
 91  6 24 18 36 15.0000000  0  4G15G 6G19G 2
  24074615.000     -435539.002 5   -298365.87221        11.250           0.438
  20688226.281     -173176.539 7    -72836.63422        23.000           2.156
  23293029.859    14567455.980 5  11351257.10221        10.500           0.438
  20443474.203   -12994207.161 8 -10125349.48323        28.250           2.594
 91  6 24 18 36 30.0000000  0  4G15G 6G19G 2
  24069906.852     -460293.745 5   -317655.27621        11.500           0.406
  20685309.031     -188514.338 7    -84788.15822        22.750           2.250
  23301361.742    14611234.081 5  11385369.86721         9.750           0.500
  20443659.008   -12993229.343 8 -10124587.55423        28.000           2.531
 91  6 24 18 36 45.0000000  0  4G15G 6G19G 2
  24065211.414     -484948.290 5   -336866.59721        11.500           0.469
  20682401.438     -203782.083 7    -96685.11022        22.250           2.406
  23309701.336    14655058.770 5  11419518.91821         9.750           0.438
  20443858.977   -12992179.964 8 -10123769.86023        28.500           2.531
 91  6 24 18 37  0.0000000  0  4G15G 6G19G 2
  24060543.422     -509507.059 6   -356003.31421        12.250           0.406
  20679510.781     -218984.524 7   -108531.16622        22.500           2.375
  23318050.078    14698925.127 5  11453700.43621         9.750           0.500
  20444072.563   -12991063.892 8 -10122900.19523        28.250           2.563
 91  6 24 18 37 15.0000000  0  5G15G 6G19G 2G13
  24055885.734     -533965.477 5   -375061.79621        11.750           0.500
  20676631.430     -234117.240 7   -120322.89022        22.750           2.344
  23326407.289    14742837.152 5  11487917.55921         9.250           0.406
  20444298.461   -12989877.035 8 -10121975.37623        28.000           2.531
  24024968.469          -0.92415                         8.500
 91  6 24 18 37 30.0000000  0  5G15G 6G19G 2G13
  24051251.047     -558323.014 5   -394041.67621        11.500           0.375
  20673765.141     -249179.747 7   -132059.91122        23.250           2.281
  23334769.578    14786795.090 5  11522170.43021         9.500           0.500
  20444536.992   -12988618.951 8 -10120995.05123        28.000           2.500
  24013449.820      -60553.449 5                         7.500
 91  6 24 18 37 45.0000000  0  5G15G 6G19G 2G13
  24046637.039     -582582.438 5   -412945.13421        11.250           0.344
  20670911.156     -264174.975 7   -143744.49722        22.750           2.281
  23343144.383    14830795.621 5  11556456.53521        10.250           0.531
  20444789.977   -12987292.917 8 -10119961.78423        28.000           2.563
  24001930.969     -121085.870 4                         7.250
 91  6 24 18 38  0.0000000  0  5G15G 6G19G 2G13
  24042031.047     -606737.750 5   -431767.45121        10.250           0.313
  20668073.375     -279097.183 7   -155372.19122        22.750           2.281
  23351527.148    14874844.299 5  11590780.13521        10.250           0.563
  20445056.734   -12985893.483 8 -10118871.32223        28.500           2.563
  23990406.352     -181592.083 4                         7.250
 91  6 24 18 38 15.0000000  0  5G15G 6G19G 2G13
  24037463.852     -630791.285 5   -450510.43821        11.250           0.406
  20665243.836     -293948.619 7   -166944.73522        22.500           2.250
  23359919.398    14918938.490 5  11625139.16821        10.750           0.563
  20445333.023   -12984423.071 8 -10117725.54723        28.000           2.656
  23978896.922     -242074.139 5                         7.750
 91  6 24 18 38 30.0000000  0  5G15G 6G19G 2G13
  24032898.945     -654745.100 5   -469175.71721        10.500           0.375
  20662431.016     -308731.368 7   -178463.75822        22.500           2.219
  23368314.617    14963075.790 5  11659531.83021         9.250           0.656
  20445628.352   -12982884.067 8 -10116526.32723        28.750           2.688
  23967394.242     -302534.268 4                         7.250
 91  6 24 18 38 45.0000000  0  5G15G 6G19G 2G13
  24028367.648     -678598.198 5   -487762.57721         9.500           0.438
  20659632.758     -323444.778 7   -189928.75522        23.000           2.281
  23376719.078    15007256.735 5  11693958.48321         9.500           0.563
  20445935.148   -12981276.065 8 -10115273.33923        28.750           2.531
  23955893.789     -362971.488 4        -0.30331         6.750           0.094
 91  6 24 18 39  0.0000000  0  5G15G 6G19G 2G13
  24023847.023     -702345.567 5   -506266.97721         9.750           0.500
  20656849.367     -338083.859 7   -201335.82422        23.000           2.375
  23385150.891    15051485.875 5  11728422.70721         9.250           0.531
  20446254.414   -12979594.202 8 -10113962.79623        28.250           2.719
  23944407.133     -423380.646 5    -47072.24421         8.250           0.156
 91  6 24 18 39 15.0000000  0  5G15G 6G19G 2G13
  24019344.852     -725992.188 5   -524692.91321         9.000           0.500
  20654074.227     -352653.588 7   -212688.85522        22.750           2.375
  23393565.289    15095758.002 5  11762920.42021        10.250           0.656
  20446586.680   -12977843.730 8 -10112598.79823        28.500           2.688
  23932912.727     -483766.600 5    -94126.06821         8.000           0.156
 91  6 24 18 39 30.0000000  0  5G15G 6G19G 2G13
  24014859.375     -749535.643 5   -543038.44721         9.250           0.281
  20651313.266     -367151.895 7   -223986.23522        22.250           2.250
  23401996.227    15140074.918 5  11797453.03021         9.250           0.469
  20446933.641   -12976022.880 8 -10111179.95823        29.000           2.813
  23921424.867     -544127.028 5   -141160.05421         8.250           0.094
 91  6 24 18 39 45.0000000  0  5G15G 6G19G 2G13
  24010398.969     -772974.824 5   -561302.75721         9.250           0.500
  20648569.859     -381577.913 7   -235227.29322        22.250           2.313
  23410435.797    15184437.100 5  11832020.91321         9.750           0.531
  20447293.453   -12974131.058 8 -10109705.81423        29.000           2.688
  23909937.203     -604460.762 5   -188173.26921         7.750           0.156
 91  6 24 18 40  0.0000000  0  5G15G 6G19G 2G13
  24005963.953     -796313.167 5   -579488.43121        10.250           0.438
  20645834.891     -395935.219 7   -246414.80622        22.000           2.250
  23418887.766    15228840.717 5  11866621.07621         9.500           0.531
  20447665.492   -12972172.097 8 -10108179.35523        28.500           2.781
  23898464.359     -664771.131 5   -235168.20121         8.250           0.188
 91  6 24 18 40 15.0000000  0  5G15G 6G19G 2G13
  24001540.969     -819549.034 5   -597594.29421         9.250           0.375
  20643121.398     -410222.196 7   -257547.51122        22.250           2.250
  23427343.984    15273287.029 5  11901254.53021         9.500           0.531
  20448052.391   -12970144.690 8 -10106599.56223        29.000           2.813
  23886991.289     -725056.814 4   -282143.94021         7.250           0.125
 91  6 24 18 40 30.0000000  0  5G15G 6G19G 2G13
  23997143.695     -842677.368 5   -615616.35621        10.250           0.438
  20640415.586     -424433.733 7   -268621.43322        22.250           2.313
  23435817.609    15317780.896 5  11935925.02221        10.000           0.500
  20448450.242   -12968044.019 8 -10104962.68023        28.000           2.813
  23875523.484     -785312.220 4   -329096.07321         7.250           0.125
 91  6 24 18 40 45.0000000  0  5G15G 6G19G 2G13
  23992754.273     -865700.393 5   -633556.36421        10.000           0.438
  20637723.438     -438572.499 7   -279638.65422        22.000           2.219
  23444291.852    15362319.426 5  11970630.31221        11.250           0.625
  20448864.250   -12965872.942 7 -10103270.93823        27.500           2.625
  23864069.391     -845539.643 5   -376026.42821         8.500           0.063
 91  6 24 18 41  0.0000000  0  4G15G19G 2G13
  23988396.188     -888617.092 5   -651413.52621         9.500           0.406
  23452770.258    15406903.416 5  12005371.05621        10.750           0.563
  20449290.305   -12963630.540 7 -10101523.61723        27.500           2.719
  23852611.648     -905737.845 5   -422933.99121         8.500           0.063
 91  6 24 18 41 15.0000000  0  4G15G19G 2G13
  23984051.852     -911427.737 5   -669188.04421         9.500           0.406
  23461265.398    15451532.332 5  12040146.78421        11.500           0.531
  20449732.117   -12961317.070 8 -10099720.91723        28.250           2.594
  23841160.078     -965907.006 5   -469818.94121         8.750           0.156
 91  6 24 18 41 30.0000000  0  4G15G19G 2G13
  23979737.664     -934129.512 5   -686877.70421        10.750           0.469
  23469769.820    15496208.717 5  12074959.51721        11.500           0.531
  20450184.719   -12958930.249 8 -10097861.06323        28.000           2.594
  23829718.508    -1026044.377 5   -516679.07821         8.500           0.031
 91  6 24 18 41 45.0000000  0  4G15G19G 2G13
  23975435.211     -956724.078 5   -704483.87421        10.500           0.469
  23478278.359    15540930.198 5  12109807.37021        11.250           0.594
  20450654.039   -12956472.224 8 -10095945.72123        28.500           2.625
  23818279.063    -1086151.386 5   -563515.63221         9.500           0.031
 91  6 24 18 42  0.0000000  0  4G15G19G 2G13
  23971160.078     -979210.702 5   -722005.90421        10.250           0.469
  23486793.820    15585697.202 5  12144690.71521        10.250           0.563
  20451135.586   -12953942.690 8 -10093974.66023        28.750           2.625
  23806844.719    -1146227.323 5   -610327.93121         8.500           0.188
 91  6 24 18 42 15.0000000  0  4G15G19G 2G13
  23966896.281    -1001584.893 5   -739440.31221        10.500           0.531
  23495323.070    15630513.749 5  12179612.62721        10.500           0.594
  20451631.914   -12951337.463 8 -10091944.61723        28.250           2.594
  23795419.242    -1206267.585 5   -657112.45121         9.000           0.094
 91  6 24 18 42 30.0000000  0  4G15G19G 2G13
  23962658.563    -1023851.544 5   -756790.95021        11.250           0.469
  23503862.156    15675374.617 5  12214569.11321         9.500           0.500
  20452141.156   -12948661.697 8 -10089859.61422        28.250           2.438
  23783998.258    -1266276.991 5   -703872.91321         9.000           0.063
 91  6 24 18 42 45.0000000  0  4G15G19G 2G13
  23958446.742    -1046013.507 5   -774060.00621        11.000           0.469
  23512406.047    15720276.218 5  12249557.32221         9.750           0.469
  20452664.359   -12945918.769 8 -10087722.26622        28.250           2.469
  23772588.922    -1326258.606 5   -750611.70921         9.500           0.094
 91  6 24 18 43  0.0000000  0  4G15G19G 2G13
  23954244.906    -1068067.485 5   -791244.88921        10.500           0.563
  23520960.906    15765221.647 5  12284579.66821         9.250           0.469
  20453197.938   -12943105.526 8 -10085530.13722        28.250           2.406
  23761180.961    -1386208.744 5   -797325.99021         9.750           0.125
 91  6 24 18 43 15.0000000  0  4G15G19G 2G13
  23950070.289    -1090007.783 5   -808341.22121        10.750           0.469
  23529522.703    15810216.263 5  12319640.37121         9.250           0.563
  20453747.336   -12940216.921 8 -10083279.28522        28.500           2.344
  23749778.742    -1446121.738 5   -844011.33821         9.750           0.125
 91  6 24 18 43 30.0000000  0  5G15G 6G19G 2G13
  23945913.883    -1111835.218 5   -825349.62221        10.750           0.438
  20609070.938      -13305.928 7                        22.250
  23538094.117    15855258.983 5  12354738.54121         9.250           0.531
  20454309.391   -12937254.004 8 -10080970.52922        28.500           2.438
  23738379.672    -1505998.226 5   -890668.25221         8.000           0.063
 91  6 24 18 43 45.0000000  0  5G15G 6G19G 2G13
  23941789.773    -1133554.853 5   -842274.00321        11.750           0.406
  20606552.172      -26536.880 7                        22.000
  23546671.797    15900344.500 5  12389870.05821         9.500           0.438
  20454886.492   -12934221.990 8 -10078607.91322        28.250           2.406
  23726994.102    -1565843.377 5   -937300.72621         8.500           0.156
 91  6 24 18 44  0.0000000  0  5G15G 6G19G 2G13
  23937675.297    -1155167.057 5   -859114.66721        11.250           0.406
  20604051.203      -39694.149 7                        22.500
  23555252.273    15945471.676 5  12425034.02521         8.500           0.438
  20455477.734   -12931121.702 8 -10076192.11122        28.500           2.344
  23715617.867    -1625657.471 5   -983909.03721         9.000           0.125
 91  6 24 18 44 15.0000000  0  5G15G 6G19G 2G13
  23933585.836    -1176663.107 6   -875864.87121        12.500           0.719
  20601560.703      -52769.085 7                        21.750
  23563858.234    15990648.993 5  12460237.09321         9.250           0.531
  20456082.500   -12927944.837 8 -10073716.63622        28.250           2.281
  23704244.789    -1685431.698 5  -1030486.26221         9.500           0.156
 91  6 24 18 44 30.0000000  0  5G15G 6G19G 2G13
  23929511.492    -1198051.854 6   -892531.41321        12.000           0.625
  20599088.031      -65770.563 7        -0.23932        22.250           2.313
  23572463.891    16035867.142 5  12495471.95821         9.500           0.531
  20456699.773   -12924700.589 8 -10071188.65822        28.500           2.344
  23692873.258    -1745174.668 5  -1077039.15121         8.250           0.156
 91  6 24 18 44 45.0000000  0  5G15G 6G19G 2G13
  23925463.930    -1219326.575 5   -909109.10221        11.500           0.563
  20596626.625      -78691.899 7    -10068.81522        22.250           2.406
  23581076.906    16081132.285 5  12530743.44921         9.500           0.469
  20457333.641   -12921382.409 8 -10068603.07022        28.750           2.375
  23681508.828    -1804879.452 5  -1123562.25521         9.250           0.094
 91  6 24 18 45  0.0000000  0  5G15G 6G19G 2G13
  23921442.648    -1240484.573 6   -925595.82521        12.500           0.531
  20594187.148      -91530.368 7    -20072.81822        22.000           2.469
  23589703.164    16126447.054 5  12566053.58921         9.000           0.500
  20457979.469   -12917987.963 8 -10065958.05722        29.000           2.469
  23670158.492    -1864543.180 5  -1170053.37521         9.000           0.094
 91  6 24 18 45 15.0000000  0  5G15G 6G19G 2G13
  23917431.242    -1261527.023 5   -941992.54321        10.750           0.563
  20591757.031     -104287.717 7    -30013.60623        22.250           2.688
  23598326.461    16171809.482 5  12601400.90021         8.500           0.469
  20458635.867   -12914519.180 8 -10063255.11122        28.250           2.406
  23658809.211    -1924167.496 5  -1216513.80021         9.000           0.063
 91  6 24 18 45 30.0000000  0  5G15G 6G19G 2G13
  23913451.516    -1282455.865 5   -958300.71921        11.750           0.563
  20589349.203     -116965.788 7    -39892.62523        22.750           2.500
  23606976.555    16217217.373 5  12636783.62821         8.750           0.469
  20459309.383   -12910978.054 8 -10060495.80422        28.000           2.469
  23647472.797    -1983753.929 5  -1262944.72721         9.250           0.156
 91  6 24 18 45 45.0000000  0  5G15G 6G19G 2G13
  23909486.234    -1303272.286 5   -974521.28721        11.500           0.656
  20586948.109     -129565.614 7    -49710.66623        22.000           2.594
  23615618.422    16262669.294 5  12672200.64121         8.250           0.500
  20460000.078   -12907365.935 8 -10057681.17023        29.250           2.531
  23636134.313    -2043303.478 5  -1309346.87721         8.250           0.094
 91  6 24 18 46  0.0000000  0  5G15G 6G19G 2G13
  23905550.484    -1323974.491 6   -990652.86421        12.250           0.500
  20584567.586     -142085.564 7    -59466.47523        22.250           2.625
  23624276.422    16308166.521 5  12707652.98621         9.000           0.438
  20460700.750   -12903681.540 8 -10054810.21922        28.500           2.469
  23624810.922    -2102814.339 5  -1355718.92021         8.750           0.063
 91  6 24 18 46 15.0000000  0  5G15G 6G19G 2G13
  23901635.188    -1344559.307 6  -1006692.99421        12.500           0.563
  20582200.047     -154522.588 7    -69157.65923        22.250           2.500
  23632949.594    16353711.974 5  12743142.89121         9.250           0.438
  20461417.516   -12899922.034 8 -10051880.74123        28.750           2.625
  23613495.570    -2162283.239 5  -1402058.27321         8.750           0.156
 91  6 24 18 46 30.0000000  0  5G15G 6G19G 2G13
  23897737.313    -1365033.334 5  -1022646.76321        11.750           0.625
  20579847.297     -166883.342 7    -78789.41822        22.250           2.375
  23641625.484    16399298.525 5  12778664.82321         8.250           0.438
  20462145.609   -12896094.144 8 -10048897.97723        28.750           2.531
  23602192.867    -2221716.957 5  -1448370.16021        10.000           0.094
 91  6 24 18 46 45.0000000  0  5G15G 6G19G 2G13
  23893863.563    -1385394.434 5  -1038512.54821        11.750           0.594
  20577509.516     -179166.171 7    -88360.45722        22.750           2.469
  23650307.047    16444927.597 5  12814219.91321         8.500           0.375
  20462887.594   -12892196.519 8 -10045860.87823        28.500           2.563
  23590886.711    -2281113.127 5  -1494652.81821         9.750           0.156
 91  6 24 18 47  0.0000000  0  5G15G 6G19G 2G13
  23890015.375    -1405638.911 5  -1054287.46921        11.750           0.656
  20575190.555     -191367.232 7    -97867.77722        23.250           2.469
  23658995.539    16490602.786 5  12849810.88421         7.750           0.344
  20463640.867   -12888225.793 8 -10042766.80723        28.250           2.531
  23579594.164    -2340467.983 5  -1540903.29421        10.750           0.188
 91  6 24 18 47 15.0000000  0  5G15G 6G19G 2G13
  23886184.852    -1425765.085 5  -1069970.19021        11.250           0.594
  20572880.313     -203484.799 7   -107310.03523        22.500           2.531
  23667694.797    16536325.524 5  12885438.93621         8.500           0.438
  20464408.734   -12884180.399 8 -10039614.56023        28.250           2.594
  23568304.258    -2399779.648 5  -1587120.11021        10.750           0.125
 91  6 24 18 47 30.0000000  0  5G15G 6G19G 2G13
  23882371.469    -1445772.926 5  -1085560.69921        11.000           0.688
  20570592.438     -215518.757 7   -116687.14522        22.500           2.344
  23676402.914    16582095.589 5  12921103.87521         7.750           0.406
  20465195.570   -12880060.448 8 -10036404.21423        28.250           2.594
  23557022.797    -2459048.121 5  -1633303.29721         9.500           0.219
 91  6 24 18 47 45.0000000  0  5G15G 6G19G 2G13
  23878585.664    -1465662.773 5  -1101059.29221        11.750           0.781
  20568317.297     -227469.929 7   -125999.75822        22.750           2.313
  23685121.141    16627911.976 5  12956804.90921         8.000           0.469
  20465993.266   -12875866.818 8 -10033136.46023        28.750           2.719
  23545751.688    -2518273.444 5  -1679452.81121         9.500           0.156
 91  6 24 18 48  0.0000000  0  5G15G 6G19G 2G13
  23874822.563    -1485443.257 5  -1116472.62921        11.250           0.813
  20566058.406     -239346.894 7   -135254.53822        22.750           2.406
  23693849.773    16673765.631 5  12992534.94821         8.250           0.344
  20466801.203   -12871608.544 8 -10029818.32623        28.000           2.656
  23534488.203    -2577464.381 5  -1725575.54121         9.500           0.188
 91  6 24 18 48 15.0000000  0  5G15G 6G19G 2G13
  23871085.172    -1505105.784 5  -1131794.07821        10.500           0.719
  20563811.820     -251141.245 7   -144444.94022        22.500           2.344
  23702583.234    16719664.619 5  13028300.34921         8.000           0.406
  20467629.063   -12867277.468 8 -10026443.47323        28.500           2.750
  23523233.875    -2636612.265 5  -1771664.71821         9.500           0.156
 91  6 24 18 48 30.0000000  0  5G15G 6G19G 2G13
  23867366.180    -1524644.565 5  -1147019.08921        10.500           0.844
  20561585.195     -262847.136 7   -153566.41522        22.500           2.375
  23711328.188    16765614.546 5  13064105.42321         7.500           0.281
  20468465.813   -12862868.051 8 -10023007.57123        28.250           2.844
  23511986.094    -2695711.115 5  -1817715.72321         9.000           0.250
 91  6 24 18 48 45.0000000  0  5G15G 6G19G 2G13
  23863669.969    -1544062.884 5  -1162150.21421        10.000           0.875
  20559373.906     -274468.102 7   -162621.71522        22.500           2.438
  23720078.953    16811611.704 5  13099947.31721         7.500           0.469
  20469321.141   -12858383.801 8 -10019513.35623        29.000           2.781
  23500752.047    -2754763.958 5  -1863730.86821         9.500           0.188
 91  6 24 18 49  0.0000000  0  5G15G 6G19G 2G13
  23859998.273    -1563362.041 5  -1177188.49521        10.250           0.719
  20557179.563     -286005.368 7   -171611.80422        22.250           2.469
  23728849.953    16857654.392 5  13135824.67121         8.750           0.438
  20470186.039   -12853826.387 8 -10015962.12823        28.500           2.813
  23489520.102    -2813772.431 5  -1909711.41421         9.000           0.094
 91  6 24 18 49 15.0000000  0  5G15G 6G19G 2G13
  23856350.789    -1582541.230 5  -1192133.31021        11.250           0.781
  20554997.422     -297458.199 7   -180536.09422        22.000           2.406
  23737617.953    16903743.134 5  13171737.89321         9.250           0.531
  20471069.547   -12849195.299 8 -10012353.50023        28.500           2.875
  23478304.367    -2872735.177 5  -1955656.37621         9.750           0.156
 91  6 24 18 49 30.0000000  0  5G15G 6G19G 2G13
  23852718.109    -1601604.043 5  -1206987.44921        10.750           0.750
  20552837.227     -308830.143 7   -189397.34422        22.500           2.406
  23746393.781    16949873.923 5  13207683.95221         9.500           0.469
  20471960.867   -12844494.279 8 -10008690.37223        28.000           2.781
  23467088.633    -2931655.495 5  -2001568.25021         9.250           0.125
 91  6 24 18 49 45.0000000  0  5G15G 6G19G 2G13
  23849116.195    -1620544.630 5  -1221746.34421        11.250           0.750
  20550686.656     -320115.428 7   -198191.07723        21.750           2.563
  23755183.539    16996052.299 5  13243667.04621         9.000           0.406
  20472871.297   -12839717.830 8 -10004968.47223        28.750           2.813
  23455883.500    -2990527.634 5  -2047442.57921         9.250           0.188
 91  6 24 18 50  0.0000000  0  5G15G 6G19G 2G13
  23845534.516    -1639366.743 5  -1236412.90921        11.750           0.656
  20548558.141     -331317.966 7   -206920.32922        22.250           2.469
  23763979.094    17042274.138 5  13279683.98821         9.250           0.531
  20473793.898   -12834870.174 8 -10001191.08323        28.000           2.719
  23444691.492    -3049355.437 5  -2093282.35421        10.000           0.219
 91  6 24 18 50 15.0000000  0  5G15G 6G19G 2G13
  23841974.523    -1658075.740 5  -1250991.33721        11.000           0.656
  20546440.688     -342443.239 7   -215589.38122        22.000           2.406
  23772781.008    17088533.503 5  13315730.20621         9.500           0.469
  20474729.750   -12829957.113 8  -9997362.73123        28.250           2.656
  23433507.539    -3108143.964 5  -2139091.58221        10.000           0.156
 91  6 24 18 50 30.0000000  0  5G15G 6G19G 2G13
  23838435.672    -1676659.493 5  -1265472.17921        10.250           0.813
  20544339.547     -353479.414 7   -224188.99622        22.250           2.406
  23781590.523    17134841.948 5  13351814.63521         9.250           0.438
  20475678.438   -12824966.833 8  -9993474.20423        28.250           2.781
  23422331.906    -3166881.358 5  -2184860.90321         9.500           0.188
 91  6 24 18 50 45.0000000  0  4G15G19G 2G13
  23834920.922    -1695126.346 5  -1279861.92221        11.500           0.625
  23790407.516    17181191.163 5  13387930.85221         9.000           0.375
  20476641.047   -12819907.854 8  -9989532.14823        28.500           2.563
  23411158.016    -3225575.430 5  -2230596.45821         9.750           0.156
 91  6 24 18 51  0.0000000  0  4G15G19G 2G13
  23831429.906    -1713477.561 5  -1294161.58421        11.500           0.594
  23799234.266    17227579.347 5  13424077.42121         8.750           0.344
  20477618.773   -12814781.901 8  -9985537.90723        29.000           2.594
  23399994.695    -3284227.675 5  -2276299.51221         9.750           0.188
 91  6 24 18 51 15.0000000  0  4G15G19G 2G13
  23827960.914    -1731702.871 5  -1308363.11221        10.500           0.656
  23808078.766    17274016.441 5  13460262.12421         9.000           0.344
  20478608.258   -12809578.761 8  -9981483.51723        28.750           2.594
  23388844.773    -3342827.430 5                        11.000
 91  6 24 18 51 30.0000000  0  4G15G19G 2G13
  23824519.438    -1749803.546 5  -1322467.51421        11.500           0.625
  23816924.086    17320500.549 5  13496483.44521         7.750           0.313
  20479611.523   -12804300.088 8  -9977370.27223        28.500           2.719
  23377704.445    -3401375.929 5                        10.750
 91  6 24 18 51 45.0000000  0  4G15G19G 2G13
  23821095.750    -1767783.273 5  -1336477.69821        10.250           0.750
  23825773.570    17367027.748 5  13532738.33921         8.000           0.375
  20480632.023   -12798950.015 8  -9973201.38523        29.000           2.594
  23366571.383    -3459876.712 5                        10.500
 91  6 24 18 52  0.0000000  0  4G15G19G 2G13
  23817698.328    -1785645.258 5  -1350396.12521        11.500           0.750
  23834637.266    17413594.504 5  13569024.05821         8.250           0.438
  20481663.492   -12793532.156 8  -9968979.68623        28.500           2.688
  23355447.438    -3518333.166 5                        11.000
 91  6 24 18 52 15.0000000  0  4G15G19G 2G13
  23814323.078    -1803383.212 6  -1364217.89421        12.750           0.594
  23843504.273    17460206.675 5  13605345.17821         8.250           0.250
  20482704.969   -12788040.341 8  -9964700.35123        28.000           2.719
  23344335.258    -3576738.710 5        -0.38831        11.250           0.188
 91  6 24 18 52 30.0000000  0  4G15G19G 2G13
  23810967.805    -1820998.285 6  -1377943.90421        12.000           0.656
  23852386.734    17506862.813 5  13641700.54421         8.750           0.250
  20483763.477   -12782476.115 7  -9960364.60123        27.500           2.844
  23333229.570    -3635094.255 5    -45472.17821        11.250           0.188
 91  6 24 18 52 45.0000000  0  4G15G19G 2G13
  23807643.672    -1838490.129 6  -1391573.90521        12.500           0.688
  23861271.195    17553562.666 5  13678090.00921         8.250           0.281
  20484837.805   -12776839.412 7  -9955972.37123        27.750           2.719
  23322133.453    -3693399.473 5    -90904.77921        10.500           0.156
 91  6 24 18 53  0.0000000  0  4G15G19G 2G13
  23804333.063    -1855857.738 6  -1405107.10221        12.250           0.656
  23870169.234    17600307.025 5  13714514.10621         8.500           0.406
  20485922.156   -12771129.614 8  -9951523.18823        28.250           2.750
  23311047.625    -3751653.063 5   -136297.12121        10.000           0.188
 91  6 24 18 53 15.0000000  0  4G15G19G 2G13
  23801058.789    -1873103.348 6  -1418545.22121        12.500           0.625
  23879065.703    17647093.466 5  13750971.01621         8.750           0.313
  20487024.578   -12765349.115 8  -9947018.90923        28.250           2.719
  23299970.727    -3809857.212 5   -181650.95421        10.000           0.188
 91  6 24 18 53 30.0000000  0  4G15G19G 2G13
  23797797.555    -1890223.365 6  -1431885.47721        13.000           0.719
  23887981.383    17693924.922 5  13787463.00021         8.750           0.313
  20488137.883   -12759494.877 7  -9942457.17023        27.750           2.844
  23288911.109    -3868008.410 5   -226963.52421        11.000           0.219
 91  6 24 18 53 45.0000000  0  4G15G19G 2G13
  23794562.430    -1907218.403 6  -1445128.34121        13.750           0.625
  23896903.891    17740800.589 5  13823989.43621         9.750           0.281
  20489263.516   -12753567.737 7  -9937838.62623        27.750           2.750
  23277850.445    -3926107.058 5   -272235.14121         9.750           0.219
 91  6 24 18 54  0.0000000  0  4G15G19G 2G13
  23791352.016    -1924086.782 6  -1458272.54921        13.000           0.469
  23905832.703    17787721.584 5  13860551.17721         9.750           0.250
  20490408.547   -12747566.452 7  -9933162.30823        27.500           2.844
  23266805.672    -3984151.367 5   -317464.39121        11.250           0.219
 91  6 24 18 54 15.0000000  0  4G15G19G 2G13
  23788165.609    -1940831.353 6  -1471320.27421        14.000           0.531
  23914767.688    17834684.917 5  13897145.93921         9.250           0.313
  20491563.883   -12741493.782 7  -9928430.36523        27.750           2.781
  23255773.125    -4042143.950 5   -362653.38721        11.000           0.156
 91  6 24 18 54 30.0000000  0  4G15G19G 2G13
  23785007.109    -1957454.245 6  -1484273.16521        14.500           0.563
  23923711.438    17881687.992 5  13933771.63421         9.250           0.313
  20492734.836   -12735352.355 8  -9923644.84523        28.250           2.750
  23244744.609    -4100086.890 5   -407803.62721        10.500           0.188
 91  6 24 18 54 45.0000000  0  4G15G19G 2G13
  23781867.539    -1973949.374 6  -1497126.49421        14.000           0.438
  23932663.305    17928736.405 5  13970432.67121        10.250           0.313
  20493914.383   -12729136.506 7  -9918801.33523        27.750           2.688
  23233729.891    -4157974.088 5   -452910.51121        11.000           0.219
 91  6 24 18 55  0.0000000  0  4G15G19G 2G13
  23778749.852    -1990317.820 6  -1509881.12721        13.750           0.406
  23941627.953    17975828.859 5  14007128.06321         9.500           0.313
  20495112.664   -12722847.431 8  -9913900.76023        28.750           2.844
  23222721.938    -4215806.403 5   -497974.58421        11.000           0.250
 91  6 24 18 55 15.0000000  0  4G15G19G 2G13
  23775659.594    -2006558.057 6  -1522535.85721        13.750           0.375
  23950596.359    18022966.539 5  14043858.62121         9.500           0.188
  20496323.406   -12716483.960 8  -9908942.21423        28.500           2.656
  23211729.844    -4273582.176 5   -542994.62921        10.500           0.250
 91  6 24 18 55 30.0000000  0  5G15G 6G19G 2G13
  23772592.883    -2022671.319 6  -1535091.65121        14.250           0.531
  20505765.602          -0.64517                        21.250
  23959576.094    18070147.950 5  14080623.29121         9.000           0.250
  20497548.000   -12710047.393 8  -9903926.71923        28.250           2.781
  23200745.438    -4331302.230 5   -587971.24021        11.000           0.281
 91  6 24 18 55 45.0000000  0  5G15G 6G19G 2G13
  23769551.719    -2038659.308 6  -1547549.82421        14.250           0.500
  20504013.258       -9210.010 7                        21.500
  23968565.078    18117370.931 5  14117420.39621         8.750           0.219
  20498784.273   -12703539.862 7  -9898855.92023        27.750           2.688
  23189773.336    -4388968.274 5   -632905.74321        10.750           0.125
 91  6 24 18 56  0.0000000  0  5G15G 6G19G 2G13
  23766530.813    -2054520.452 6  -1559909.15921        14.500           0.500
  20502278.039      -18330.003 7                        21.000
  23977557.195    18164636.440 5  14154250.59621         8.000           0.219
  20500037.625   -12696960.255 8  -9893728.96223        28.000           2.719
  23178806.234    -4446578.925 5   -677797.09221        11.250           0.188
 91  6 24 18 56 15.0000000  0  5G15G 6G19G 2G13
  23763539.055    -2070253.400 6  -1572168.56421        13.750           0.375
  20500559.453      -27359.015 7                        20.750
  23986557.992    18211945.712 5  14191114.92021         8.750           0.219
  20501303.422   -12690307.536 8  -9888545.03123        28.500           2.844
  23167855.922    -4504132.474 5   -722644.00921        11.250           0.156
 91  6 24 18 56 30.0000000  0  5G15G 6G19G 2G13
  23760568.352    -2085858.568 6  -1584328.46421        13.250           0.469
  20498856.328      -36297.633 7        -0.46632        20.500           2.281
  23995568.578    18259297.901 5  14228012.66721         8.250           0.375
  20502584.797   -12683582.431 8  -9883304.69323        28.750           2.844
  23156915.391    -4561629.374 5   -767446.70821        11.500           0.250
 91  6 24 18 56 45.0000000  0  5G15G 6G19G 2G13
  23757621.664    -2101334.082 6  -1596387.30321        14.500           0.344
  20497175.688      -45143.863 7     -6893.63523        21.000           2.531
  24004587.227    18306694.549 5  14264945.01721         8.250           0.406
  20503876.852   -12676783.137 8  -9878006.55023        28.000           2.750
  23145980.984    -4619067.475 5   -812203.62821        11.750           0.250
 91  6 24 18 57  0.0000000  0  5G15G 6G19G 2G13
  23754701.828    -2116681.802 6  -1608346.56421        14.500           0.406
  20495508.742      -53899.718 7    -13716.37922        20.750           2.438
  24013615.953    18354133.401 5  14301910.30021         8.000           0.406
  20505184.367   -12669911.816 7  -9872652.28223        27.750           2.875
  23135064.703    -4676448.403 5   -856915.97721        11.500           0.188
 91  6 24 18 57 15.0000000  0  5G15G 6G19G 2G13
  23751809.391    -2131900.285 6  -1620205.12521        15.000           0.375
  20493861.227      -62563.836 7    -20467.63523        20.250           2.500
  24022649.766    18401615.667 5  14338909.40421         8.000           0.469
  20506508.227   -12662967.440 8  -9867241.08623        28.000           2.750
  23124153.828    -4733770.663 5   -901582.65521        11.500           0.188
 91  6 24 18 57 30.0000000  0  5G15G 6G19G 2G13
  23748939.680    -2146991.839 6  -1631964.76721        14.500           0.438
  20492228.438      -71138.527 6    -27149.21922        19.750           2.406
  24031693.125    18449138.577 4  14375940.17021         7.250           0.406
  20507843.094   -12655952.516 8  -9861774.91623        28.750           2.750
  23113260.938    -4791036.577 6   -946205.37821        12.250           0.188
 91  6 24 18 57 45.0000000  0  5G15G 6G19G 2G13
  23746086.570    -2161955.056 6  -1643624.43721        13.250           0.406
  20490613.414      -79622.376 6    -33760.01223        19.750           2.500
  24040742.391    18496703.140 4  14413003.39821         6.750           0.438
  20509190.570   -12648865.936 8  -9856252.91223        29.000           2.781
  23102375.641    -4848244.536 6   -990782.94521        12.000           0.156
 91  6 24 18 58  0.0000000  0  5G15G 6G19G 2G13
  23743262.164    -2176784.887 6  -1655180.14121        13.000           0.500
  20489020.766      -88010.169 7    -40295.95623        20.250           2.563
  24049810.141    18544314.306 4  14450102.91821         7.000           0.375
  20510554.313   -12641702.728 8  -9850671.20023        28.500           2.813
  23091499.453    -4905389.035 6  -1035311.08121        12.500           0.313
 91  6 24 18 58 15.0000000  0  5G15G 6G19G 2G13
  23740475.852    -2191482.297 6  -1666632.68421        14.750           0.406
  20487439.109      -96303.141 6    -46758.00222        19.500           2.469
  24058871.547    18591970.515 4  14487237.54321         7.000           0.406
  20511931.188   -12634464.478 8  -9845031.00423        28.500           2.750
  23080638.875    -4962471.046 6  -1079790.53321        12.500           0.281
 91  6 24 18 58 30.0000000  0  5G15G 6G19G 2G13
  23737696.125    -2206054.755 6  -1677987.82821        13.500           0.469
  20485878.180     -104508.988 7    -53152.16322        20.000           2.469
  24067947.320    18639663.828 4  14524401.07321         7.000           0.406
  20513320.336   -12627159.032 7  -9839338.45023        27.750           2.813
  23069788.313    -5019498.071 6  -1124227.13721        12.250           0.188
 91  6 24 18 58 45.0000000  0  5G15G 6G19G 2G13
  23734949.445    -2220495.815 6  -1689240.58721        12.750           0.313
  20484334.102     -112621.009 7    -59473.22522        20.000           2.469
  24077034.500    18687400.575 4  14561598.46521         7.250           0.500
  20514724.008   -12619779.818 8  -9833588.42223        28.000           2.938
  23058944.859    -5076463.356 6  -1168615.60021        13.000           0.156
 91  6 24 18 59  0.0000000  0  5G15G 6G19G 2G13
  23732226.711    -2234802.625 6  -1700388.76921        12.500           0.406
  20482805.773     -120636.554 6    -65719.10323        19.750           2.594
  24086124.945    18735183.222 4  14598831.65021         6.500           0.531
  20516144.289   -12612324.398 8  -9827779.01023        28.500           2.813
  23048120.250    -5133364.006 6  -1212953.71821        12.500           0.188
 91  6 24 18 59 15.0000000  0  5G15G 6G19G 2G13
  23729527.492    -2248979.113 5  -1711435.37221        11.000           0.375
  20481299.930     -128559.561 7    -71892.87523        20.500           2.563
  24095227.469    18783007.521 4  14636097.24421         6.750           0.375
  20517578.922   -12604797.092 8  -9821913.58623        29.000           2.875
  23037302.445    -5190203.948 6  -1257244.54921        12.750           0.250
 91  6 24 18 59 30.0000000  0  5G15G 6G19G 2G13
  23726854.695    -2263025.220 6  -1722380.38421        12.250           0.469
  20479813.063     -136390.183 7    -77994.66323        20.750           2.500
  24104336.977    18830872.774 4  14673394.78121         6.250           0.469
  20519022.766   -12597198.283 7  -9815992.43323        27.750           2.906
  23026502.172    -5246983.148 6  -1301488.04121        13.750           0.219
 91  6 24 18 59 45.0000000  0  5G15G 6G19G 2G13
  23724208.844    -2276935.608 5  -1733219.65521        11.750           0.250
  20478339.953     -144122.825 7    -84020.09522        21.000           2.469
  24113447.906    18878784.303 4  14710728.33821         6.250           0.469
  20520481.008   -12589522.744 7  -9810011.49923        27.250           2.875
  23015705.477    -5303695.796 6  -1345679.67721        13.750           0.313
 91  6 24 19  0  0.0000000  0  5G15G 6G19G 2G13
  23721583.680    -2290721.433 5  -1743961.84421        11.000           0.469
  20476885.914     -151768.801 7    -89977.99822        21.000           2.469
  24122582.898    18926730.585 3  14748089.00321         6.000           0.313
  20521957.195   -12581781.928 8  -9803979.70423        28.000           3.000
  23004924.328    -5360352.761 6  -1389827.91121        13.750           0.219
 91  6 24 19  0 15.0000000  0  5G15G 6G19G 2G13
  23718986.367    -2304375.263 5  -1754601.20521        11.000           0.406
  20475447.672     -159320.770 7    -95862.64823        21.000           2.500
  24131707.242    18974718.637 4  14785482.23321         6.250           0.281
  20523442.664   -12573968.613 8  -9797891.41523        28.250           3.000
  22994156.727    -5416946.731 6  -1433927.06721        13.250           0.250
 91  6 24 19  0 30.0000000  0  5G15G 6G19G 2G13
  23716411.422    -2317897.264 5  -1765137.83721        10.000           0.438
  20474029.141     -166778.801 7   -101674.10523        21.750           2.531
  24140853.094    19022747.980 4  14822907.58721         7.250           0.188
  20524945.086   -12566083.200 7  -9791746.94323        27.750           2.906
  22983396.945    -5473477.626 6  -1477977.06721        13.250           0.344
 91  6 24 19  0 45.0000000  0  5G15G 6G19G 2G13
  23713864.844    -2331285.967 5  -1775570.57521        11.750           0.344
  20472625.398     -174141.253 7   -107411.08422        21.000           2.438
  24149995.016    19070819.933 5  14860366.21021         7.750           0.281
  20526460.008   -12558124.367 7  -9785545.26423        27.750           2.906
  22972648.578    -5529943.770 6  -1521976.60021        13.250           0.281
 91  6 24 19  1  0.0000000  0  4G15G19G 2G13
  23711341.125    -2344539.609 5  -1785898.09421        11.000           0.406
  24159156.398    19118935.596 4  14897858.88321         7.250           0.219
  20527987.352   -12550090.868 8  -9779285.40323        28.250           2.906
  22961916.734    -5586343.399 6  -1565924.33421        12.750           0.250
 91  6 24 19  1 15.0000000  0  4G15G19G 2G13
  23708847.250    -2357658.188 5  -1796120.36721        11.500           0.313
  24168317.609    19167094.529 5  14935385.27121         8.750           0.313
  20529528.664   -12541983.053 7  -9772967.63123        27.750           3.000
  22951197.672    -5642676.394 6  -1609820.13021        13.250           0.219
 91  6 24 19  1 30.0000000  0  4G15G19G 2G13
  23706372.164    -2370642.279 5  -1806237.85821        11.000           0.375
  24177491.234    19215296.065 5  14972944.84121         8.250           0.156
  20531085.703   -12533801.554 8  -9766592.44623        28.000           2.969
  22940489.000    -5698943.204 6  -1653664.36121        12.500           0.281
 91  6 24 19  1 45.0000000  0  4G15G19G 2G13
  23703928.836    -2383497.785 5  -1816255.13821        10.750           0.313
  24186673.734    19263534.060 5  15010532.81821         9.250           0.219
  20532656.516   -12525552.454 8  -9760164.58623        28.500           2.938
  22929794.430    -5755149.312 6  -1697461.28021        13.500           0.313
 91  6 24 19  2  0.0000000  0  4G15G19G 2G13
  23701505.063    -2396221.911 5  -1826170.04821        11.500           0.344
  24195861.102    19311810.931 5  15048151.12621         9.250           0.125
  20534238.586   -12517233.319 8  -9753682.15223        28.000           2.969
  22919108.102    -5811291.912 6  -1741208.70921        12.750           0.313
 91  6 24 19  2 15.0000000  0  4G15G19G 2G13
  23699113.508    -2408811.942 5  -1835980.45521        10.750           0.250
  24205052.914    19360128.885 5  15085801.44221         9.750           0.250
  20535837.375   -12508841.958 7  -9747143.43323        27.750           2.938
  22908437.930    -5867368.164 6  -1784904.44321        12.750           0.281
 91  6 24 19  2 30.0000000  0  4G15G19G 2G13
  23696742.133    -2421267.871 5  -1845686.36321        11.000           0.344
  24214255.719    19408487.679 5  15123483.56821         9.250           0.313
  20537447.102   -12500378.351 8  -9740548.42223        28.000           3.031
  22897786.359    -5923377.946 6  -1828548.38621        13.250           0.250
 91  6 24 19  2 45.0000000  0  4G15G19G 2G13
  23694392.930    -2433593.715 5  -1855290.90221        11.750           0.469
  24223463.250    19456883.090 5  15161194.18921         8.750           0.281
  20539070.625   -12491846.566 8  -9733900.28923        28.000           3.000
  22887132.406    -5979324.744 6  -1872143.27321        12.250           0.344
 91  6 24 19  3  0.0000000  0  4G15G19G 2G13
  23692081.508    -2445780.624 5  -1864787.20121        11.750           0.500
  24232680.711    19505323.692 5  15198940.02921         9.250           0.250
  20540707.852   -12483238.024 8  -9727192.34323        28.000           2.969
  22876503.742    -6035199.890 6  -1915682.32221        12.250           0.281
 91  6 24 19  3 15.0000000  0  4G15G19G 2G13
  23689783.828    -2457830.227 6  -1874176.50121        12.000           0.500
  24241908.523    19553807.233 5  15236719.35521         8.250           0.344
  20542361.813   -12474554.858 8  -9720426.24423        28.250           3.063
  22865886.789    -6091004.697 6  -1959166.53121        13.250           0.250
 91  6 24 19  3 30.0000000  0  4G15G19G 2G13
  23687518.523    -2469746.642 5  -1883462.02521        11.500           0.594
  24251139.891    19602329.564 5  15274528.92621         8.000           0.219
  20544025.102   -12465801.288 7  -9713605.28523        27.750           2.906
  22855280.680    -6146742.983 6  -2002598.91821        13.750           0.250
 91  6 24 19  3 45.0000000  0  4G15G19G 2G13
  23685275.328    -2481526.787 5  -1892641.34421        11.250           0.500
  24260379.711    19650893.240 4  15312370.69421         7.000           0.281
  20545705.625   -12456974.705 7  -9706727.43423        27.750           2.906
  22844683.898    -6202411.989 6  -2045977.31921        12.750           0.188
 91  6 24 19  4  0.0000000  0  4G15G19G 2G13
  23683057.219    -2493167.301 5  -1901711.87121        11.000           0.438
  24269632.250    19699500.953 3  15350246.75321         5.500           0.250
  20547401.727   -12448072.105 8  -9699790.35223        28.000           2.906
  22834103.617    -6258007.851 6  -2089298.74321        13.750           0.313
 91  6 24 19  4 15.0000000  0  4G15G19G 2G13
  23680873.813    -2504671.778 5  -1910676.37721        10.750           0.438
  24278887.313    19748148.825 3  15388154.09321         5.500           0.344
  20549108.375   -12439097.375 8  -9692797.07223        28.000           2.844
  22823535.008    -6313534.269 6  -2132566.03021        13.500           0.375
 91  6 24 19  4 30.0000000  0  4G15G19G 2G13
  23678706.641    -2516039.399 5  -1919534.29321        11.250           0.344
  24288148.398    19796837.711 3  15426093.38621         5.250           0.188
  20550828.453   -12430049.618 8  -9685746.87223        28.000           2.844
  22812984.523    -6368990.030 6  -2175778.25921        13.500           0.313
 91  6 24 19  4 45.0000000  0  3G15G 2G13
  23676573.773    -2527271.780 5  -1928286.77921        11.750           0.531
  20552563.977   -12420930.597 7  -9678641.14823        27.750           2.875
  22802445.945    -6424376.590 6  -2218936.57321        13.750           0.250
 91  6 24 19  5  0.0000000  0  3G15G 2G13
  23674458.078    -2538366.432 5  -1936931.96321        10.750           0.500
  20554314.016   -12411738.165 8  -9671478.22523        28.250           2.906
  22791914.797    -6479691.234 6  -2262038.86321        13.250           0.406
 91  6 24 19  5 15.0000000  0  3G15G 2G13
  23672374.703    -2549327.050 5  -1945472.68521        10.750           0.563
  20556075.430   -12402476.274 8  -9664261.17023        28.000           2.875
  22781403.906    -6534937.515 6  -2305087.85621        14.250           0.313
 91  6 24 19  5 30.0000000  0  3G15G 2G13
  23670311.430    -2560149.214 5  -1953905.54421        11.000           0.719
  20557855.141   -12393140.862 8  -9656986.83423        28.250           2.781
  22770906.406    -6590111.025 6  -2348080.17221        14.000           0.281
 91  6 24 19  5 45.0000000  0  3G15G 2G13
  23668281.773    -2570832.650 6  -1962230.30321        12.000           0.594
  20559644.195   -12383731.980 7  -9649655.24423        27.750           2.844
  22760422.055    -6645211.403 6  -2391015.48621        14.500           0.313
 91  6 24 19  6  0.0000000  0  3G15G 2G13
  23666274.773    -2581377.038 5  -1970446.70121        11.750           0.656
  20561446.359   -12374249.323 7  -9642266.17023        27.250           2.719
  22749949.906    -6700237.909 6  -2433893.24621        14.000           0.406
 91  6 24 19  6 15.0000000  0  3G15G 2G13
  23664295.695    -2591782.367 5  -1978554.74421        11.750           0.594
  20563267.484   -12364693.204 7  -9634819.84923        27.750           2.750
  22739496.227    -6755190.393 6  -2476713.32921        15.000           0.406
 91  6 24 19  6 30.0000000  0  3G15G 2G13
  23662343.508    -2602049.216 5  -1986554.90321        11.750           0.656
  20565098.969   -12355064.553 7  -9627317.01223        27.750           2.688
  22729054.961    -6810069.261 6  -2519476.04121        15.000           0.406
 91  6 24 19  6 45.0000000  0  3G15G 2G13
  23660417.281    -2612177.921 5  -1994447.38221        11.750           0.688
  20566945.977   -12345363.982 8  -9619758.13123        28.250           2.781
  22718622.633    -6864874.875 6  -2562181.66321        15.000           0.406
 91  6 24 19  7  0.0000000  0  3G15G 2G13
  23658514.430    -2622169.615 5  -2002233.10921        11.500           0.625
  20568802.141   -12335592.623 7  -9612144.09023        27.750           2.688
  22708204.000    -6919607.862 6  -2604830.68021        14.750           0.344
 91  6 24 19  7 15.0000000  0  3G15G 2G13
  23656636.727    -2632024.129 5  -2009911.94721        11.000           0.719
  20570676.055   -12325750.547 7  -9604474.94823        27.750           2.750
  22697804.992    -6974268.019 6  -2647422.97021        14.750           0.313
 91  6 24 19  7 30.0000000  0  3G15G 2G13
  23654786.594    -2641735.169 5  -2017479.01621        10.250           0.625
  20572567.094   -12315831.877 8  -9596746.12323        28.250           2.844
  22687418.625    -7028849.037 6  -2689953.58121        15.500           0.344
 91  6 24 19  7 45.0000000  0  3G15G 2G13
  23652967.516    -2651308.409 5  -2024938.67721        10.250           0.656
  20574464.750   -12305842.448 8  -9588962.16423        28.250           2.844
  22677044.258    -7083356.092 6  -2732426.57621        14.750           0.375
 91  6 24 19  8  0.0000000  0  3G15G 2G13
  23651168.188    -2660745.008 5  -2032291.87921        10.000           0.688
  20576380.344   -12295783.571 8  -9581124.08523        28.000           2.750
  22666685.172    -7137790.251 6  -2774842.77721        14.500           0.375
 91  6 24 19  8 15.0000000  0  3G15G 2G13
  23649405.172    -2670038.915 5  -2039533.88221        11.250           0.656
  20578306.781   -12285649.207 7  -9573227.18723        27.500           2.906
  22656343.391    -7192145.253 6  -2817197.27121        15.250           0.250
 91  6 24 19  8 30.0000000  0  4G15G 6G 2G13
  23647663.063    -2679193.540 5  -2046667.34321        11.500           0.750
  20438372.734       -4312.019 7                        21.000
  20580249.766   -12275443.271 7  -9565274.51423        27.250           2.781
  22646012.688    -7246424.419 6  -2859492.68221        14.500           0.375
 91  6 24 19  8 45.0000000  0  4G15G 6G 2G13
  23645944.656    -2688209.633 5  -2053692.86621        11.250           0.594
  20437571.711       -8523.769 7                        20.750
  20582206.664   -12265166.699 7  -9557266.80523        27.500           2.875
  22635696.328    -7300628.392 6  -2901729.49721        14.750           0.313
 91  6 24 19  9  0.0000000  0  4G15G 6G 2G13
  23644255.695    -2697085.724 5  -2060609.31021        11.750           0.688
  20436789.227      -12633.790 7        -0.16632        21.000           2.344
  20584175.359   -12254818.240 8  -9549203.08123        28.000           2.813
  22625399.695    -7354755.522 6  -2943906.43321        14.500           0.219
 91  6 24 19  9 15.0000000  0  4G15G 6G 2G13
  23642594.375    -2705824.473 5  -2067418.71921        10.750           0.531
  20436025.750      -16644.586 7     -3125.46622        21.000           2.375
  20586155.977   -12244400.654 7  -9541085.49023        27.750           2.875
  22615111.992    -7408808.257 6  -2986025.41021        14.500           0.344
 91  6 24 19  9 30.0000000  0  4G15G 6G 2G13
  23640955.531    -2714422.288 5  -2074118.31521        11.750           0.719
  20435283.336      -20552.653 7     -6170.71622        20.250           2.219
  20588154.094   -12233910.717 8  -9532911.51723        28.250           2.969
  22604845.617    -7462782.826 6  -3028083.48221        15.500           0.406
 91  6 24 19  9 45.0000000  0  4G15G 6G 2G13
  23639346.453    -2722877.204 6  -2080706.55421        12.250           0.594
  20434559.391      -24356.155 7     -9134.48522        20.250           2.281
  20590165.195   -12223346.932 7  -9524680.00823        27.750           2.906
  22594588.367    -7516676.952 6  -3070078.84121        15.750           0.250
 91  6 24 19 10  0.0000000  0  4G15G 6G 2G13
  23637765.297    -2731189.516 6  -2087183.69321        12.250           0.594
  20433853.078      -28055.118 7    -12016.79822        20.000           2.188
  20592187.977   -12212709.394 7  -9516391.02723        27.750           2.875
  22584344.234    -7570490.692 6  -3112011.59921        15.500           0.406
 91  6 24 19 10 15.0000000  0  4G15G 6G 2G13
  23636207.398    -2739361.892 6  -2093551.78021        12.250           0.719
  20433168.844      -31652.101 7    -14819.64322        20.000           2.313
  20594225.250   -12202000.885 7  -9508046.74023        27.500           2.906
  22574121.242    -7624226.664 6  -3153883.75021        16.000           0.375
 91  6 24 19 10 30.0000000  0  4G15G 6G 2G13
  23634680.508    -2747395.471 6  -2099811.71421        12.500           0.719
  20432503.102      -35148.210 7    -17543.89022        20.250           2.188
  20596276.406   -12191222.851 8  -9499648.28423        28.000           2.906
  22563909.133    -7677885.718 6  -3195695.95121        15.000           0.406
 91  6 24 19 10 45.0000000  0  4G15G 6G 2G13
  23633179.711    -2755286.701 5  -2105960.74221        11.000           0.625
  20431858.063      -38540.007 7    -20186.85722        20.250           2.250
  20598338.922   -12180372.033 7  -9491193.11023        27.750           3.031
  22553716.578    -7731463.843 6  -3237445.08721        16.000           0.313
 91  6 24 19 11  0.0000000  0  4G15G 6G 2G13
  23631706.719    -2763042.159 6  -2112003.95221        12.500           0.750
  20431231.133      -41834.216 7    -22753.77222        20.250           2.281
  20600419.891   -12169455.319 8  -9482686.58823        28.750           3.094
  22543530.336    -7784967.980 6  -3279136.58421        15.250           0.344
 91  6 24 19 11 15.0000000  0  4G15G 6G 2G13
  23630257.656    -2770653.990 6  -2117935.28321        12.750           0.625
  20430624.125      -45022.936 7    -25238.49022        20.500           2.219
  20602508.953   -12158465.037 8  -9474122.73723        28.250           3.031
  22533364.867    -7838390.147 6  -3320764.20821        14.500           0.406
 91  6 24 19 11 30.0000000  0  4G15G 6G 2G13
  23628835.695    -2778131.205 6  -2123761.66421        13.000           0.781
  20430037.563      -48115.138 7    -27648.00022        20.750           2.313
  20604615.422   -12147410.331 8  -9465508.68923        28.500           3.063
  22523214.703    -7891738.728 6  -3362334.47821        14.250           0.344
 91  6 24 19 11 45.0000000  0  4G15G 6G 2G13
  23627436.445    -2785464.893 6  -2129476.21821        12.750           0.938
  20429467.227      -51101.852 7    -29975.31322        20.750           2.281
  20606731.883   -12136282.706 8  -9456837.82623        28.000           3.000
  22513076.422    -7945004.941 6  -3403840.56821        14.000           0.406
 91  6 24 19 12  0.0000000  0  4G15G 6G 2G13
  23626071.758    -2792652.081 6  -2135076.62321        13.000           0.844
  20428922.867      -53980.067 7    -32218.08622        21.250           2.156
  20608864.148   -12125079.177 7  -9448107.81623        27.500           3.063
  22502956.109    -7998185.424 6  -3445279.86421        13.750           0.406
 91  6 24 19 12 15.0000000  0  4G15G 6G 2G13
  23624731.297    -2799699.249 6  -2140567.94521        12.750           0.781
  20428393.367      -56756.167 7    -34381.28322        21.250           2.250
  20611006.570   -12113806.268 7  -9439323.74223        27.500           3.031
  22492851.398    -8051286.376 6  -3486657.18221        14.250           0.438
 91  6 24 19 12 30.0000000  0  4G15G 6G 2G13
  23623416.734    -2806611.816 6  -2145954.37321        13.000           0.781
  20427884.992      -59435.548 7    -36469.10922        20.750           2.313
  20613166.953   -12102469.695 7  -9430490.06223        27.250           3.094
  22482764.477    -8104312.967 6  -3527976.55921        15.500           0.313
 91  6 24 19 12 45.0000000  0  4G15G 6G 2G13
  23622122.617    -2813387.766 5  -2151234.32421        11.750           0.750
  20427390.789      -62016.414 7    -38480.17222        20.500           2.375
  20615335.586   -12091067.840 7  -9421605.50623        27.500           3.063
  22472685.953    -8157263.464 6  -3569236.66221        15.500           0.375
 91  6 24 19 13  0.0000000  0  4G15G 6G 2G13
  23620860.313    -2820023.907 6  -2156405.36021        13.000           0.813
  20426920.219      -64495.383 7    -40411.83922        20.750           2.188
  20617517.375   -12079597.634 7  -9412667.68923        27.250           3.000
  22462625.305    -8210134.258 6  -3610434.63121        15.750           0.406
 91  6 24 19 13 15.0000000  0  4G15G 6G 2G13
  23619629.531    -2826519.304 6  -2161466.70421        14.000           0.719
  20426469.023      -66871.353 7    -42263.24522        20.750           2.156
  20619714.945   -12068058.227 7  -9403675.95323        27.250           3.094
  22452582.500    -8262923.962 6  -3651569.43921        16.000           0.406
 91  6 24 19 13 30.0000000  0  4G15G 6G 2G13
  23618417.672    -2832869.249 6  -2166414.71721        13.250           0.625
  20426036.586      -69139.701 7    -44030.79422        21.000           2.219
  20621921.852   -12056445.254 7  -9394626.89223        27.250           2.906
  22442545.961    -8315627.726 6  -3692637.25421        15.000           0.406
 91  6 24 19 13 45.0000000  0  4G15G 6G 2G13
  23617234.195    -2839072.157 6  -2171248.15821        12.250           0.563
  20425626.305      -71298.953 7    -45713.32722        20.500           2.281
  20624147.719   -12044757.301 7  -9385519.40623        27.750           2.969
  22432537.500    -8368244.002 6  -3733636.91821        15.500           0.438
 91  6 24 19 14  0.0000000  0  4G15G 6G 2G13
  23616085.789    -2845132.448 6  -2175970.45021        12.750           0.563
  20425233.586      -73353.315 7    -47314.13122        20.250           2.375
  20626386.156   -12032998.953 8  -9376357.05823        28.250           3.000
  22422542.414    -8420776.942 6  -3774571.64721        15.250           0.500
 91  6 24 19 14 15.0000000  0  4G15G 6G 2G13
  23614954.234    -2851052.057 6  -2180583.12621        13.250           0.625
  20424863.766      -75304.711 7    -48834.70022        20.500           2.344
  20628635.719   -12021172.364 7  -9367141.54023        27.500           2.969
  22412558.750    -8473228.242 6  -3815442.73721        14.750           0.531
 91  6 24 19 14 30.0000000  0  4G15G 6G 2G13
  23613857.289    -2856832.960 6  -2185087.74221        12.500           0.594
  20424511.070      -77154.916 7    -50276.43122        20.750           2.250
  20630900.930   -12009279.538 7  -9357874.41023        27.250           2.938
  22402589.734    -8525599.492 6  -3856251.45821        14.750           0.406
 91  6 24 19 14 45.0000000  0  4G15G 6G 2G13
  23612784.867    -2862471.832 6  -2189481.65621        13.000           0.500
  20424180.969      -78900.895 7    -51636.92522        20.500           2.281
  20633173.914   -11997317.301 7  -9348553.19223        26.500           2.938
  22392642.477    -8577887.418 6  -3896995.26221        15.250           0.375
 91  6 24 19 15  0.0000000  0  4G15G 6G 2G13
  23611739.008    -2867965.084 6  -2193762.14321        13.000           0.531
  20423864.820      -80538.941 7    -52913.32722        20.000           2.250
  20635466.453   -11985282.498 7  -9339175.43423        27.000           2.844
  22382711.742    -8630088.203 6  -3937671.15621        15.250           0.469
 91  6 24 19 15 15.0000000  0  4G15G 6G 2G13
  23610721.023    -2873315.446 6  -2197931.25821        13.250           0.625
  20423575.102      -82071.823 7    -54107.77722        20.000           2.281
  20637768.844   -11973178.023 7  -9329743.38423        27.000           2.906
  22372789.578    -8682204.210 6  -3978280.99021        14.750           0.438
 91  6 24 19 15 30.0000000  0  4G15G 6G 2G13
  23609732.547    -2878521.518 6  -2201987.93721        12.750           0.625
  20423302.711      -83498.026 7    -55219.10522        20.500           2.281
  20640085.523   -11961002.755 7  -9320256.16623        27.000           2.938
  22362892.430    -8734233.906 6  -4018823.57221        15.750           0.375
 91  6 24 19 15 45.0000000  0  4G15G 6G 2G13
  23608767.125    -2883585.848 6  -2205934.17221        13.500           0.625
  20423050.797      -84819.787 6    -56249.05022        19.750           2.344
  20642417.688   -11948759.015 7  -9310715.59023        27.500           2.906
  22353008.313    -8786179.288 6  -4059300.46121        16.250           0.469
 91  6 24 19 16  0.0000000  0  4G15G 6G 2G13
  23607831.648    -2888507.508 6  -2209769.25221        14.000           0.625
  20422821.531      -86036.219 7    -57196.92022        20.500           2.313
  20644759.328   -11936445.867 7  -9301120.93823        27.250           2.875
  22343139.367    -8838039.435 6  -4099710.91921        15.500           0.531
 91  6 24 19 16 15.0000000  0  4G15G 6G 2G13
  23606921.563    -2893286.768 6  -2213493.36721        13.500           0.656
  20422610.672      -87147.810 7    -58063.09522        20.000           2.188
  20647115.094   -11924064.206 7  -9291472.89423        27.000           2.938
  22333290.148    -8889814.541 6  -4140055.12421        16.500           0.344
 91  6 24 19 16 30.0000000  0  4G15G 6G 2G13
  23606039.680    -2897918.101 6  -2217102.20521        13.000           0.719
  20422420.211      -88148.910 7    -58843.17322        20.250           2.188
  20649483.102   -11911608.749 7  -9281767.34323        27.000           2.813
  22323449.648    -8941498.787 6  -4180328.52821        16.000           0.438
 91  6 24 19 16 45.0000000  0  4G15G 6G 2G13
  23605187.563    -2902404.850 6  -2220598.35221        13.500           0.563
  20422246.828      -89043.007 7    -59539.87022        20.000           2.125
  20651869.430   -11899083.037 7  -9272007.05823        27.250           3.000
  22313630.109    -8993095.280 6  -4220533.56121        15.500           0.469
 91  6 24 19 17  0.0000000  0  4G15G 6G 2G13
  23604360.781    -2906753.656 6  -2223987.02921        13.750           0.656
  20422095.852      -89836.512 7    -60158.18922        20.250           2.156
  20654264.750   -11886493.962 7  -9262197.39323        27.250           2.969
  22303830.477    -9044610.880 6  -4260675.54421        16.250           0.469
 91  6 24 19 17 15.0000000  0  4G15G 6G 2G13
  23603557.391    -2910958.095 6  -2227263.23821        13.250           0.688
  20421968.664      -90522.964 7    -60693.08822        20.500           2.094
  20656674.094   -11873835.105 7  -9252333.35723        27.500           3.031
  22294044.828    -9096038.439 6  -4300748.93921        16.250           0.406
 91  6 24 19 17 30.0000000  0  4G15G 6G 2G13
  23602787.445    -2915021.135 6  -2230429.25521        13.750           0.688
  20421857.523      -91104.884 7    -61146.53522        20.500           2.094
  20659095.047   -11861109.213 7  -9242417.08023        27.250           2.938
  22284273.766    -9147380.582 6  -4340755.75621        16.750           0.438
 91  6 24 19 17 45.0000000  0  4G15G 6G 2G13
  23602041.133    -2918936.995 6  -2233480.56821        13.750           0.656
  20421764.516      -91576.772 7    -61514.24422        20.750           2.156
  20661530.922   -11848310.903 7  -9232444.37623        27.250           2.969
  22274519.414    -9198631.442 6  -4380691.45321        16.500           0.406
 91  6 24 19 18  0.0000000  0  4G15G 6G 2G13
  23601322.734    -2922706.159 6  -2236417.59421        13.750           0.719
  20421696.836      -91939.075 7    -61796.55822        20.750           2.188
  20663981.242   -11835440.966 7  -9222415.86223        27.500           2.938
  22264784.813    -9249791.283 6  -4420556.25021        17.000           0.500
 91  6 24 19 18 15.0000000  0  4G15G 6G 2G13
  23600630.664    -2926335.930 6  -2239245.97421        13.250           0.875
  20421650.531      -92199.339 7    -61999.36622        20.750           2.125
  20666443.219   -11822506.998 7  -9212337.45123        27.750           2.938
  22255063.539    -9300867.857 6  -4460356.14621        16.250           0.375
 91  6 24 19 18 30.0000000  0  4G15G 6G 2G13
  23599964.547    -2929821.347 6  -2241961.89621        12.250           0.719
  20421619.438      -92352.362 7                        21.250
  20668916.008   -11809503.996 7  -9202205.25123        27.750           2.844
  22245364.375    -9351855.573 6  -4500086.79121        17.250           0.500
 91  6 24 19 18 45.0000000  0  4G15G 6G 2G13
  23599331.688    -2933158.820 6  -2244562.52621        12.750           0.750
  20421612.258      -92394.342 7                        21.250
  20671403.219   -11796428.497 7  -9192016.55323        27.000           2.906
  22235677.859    -9402750.346 6  -4539745.02521        17.250           0.469
 91  6 24 19 19  0.0000000  0  4G15G 6G 2G13
  23598728.367    -2936354.224 6  -2247052.44021        13.500           0.813
  20421622.047      -92330.977 7                        20.750
  20673906.508   -11783286.297 7  -9181775.88123        27.250           2.969
  22226008.578    -9453557.531 6  -4579335.02221        16.750           0.469
 91  6 24 19 19 15.0000000  0  4G15G 6G 2G13
  23598144.875    -2939406.083 6  -2249430.52121        12.750           0.844
  20421654.344      -92160.729 7                        20.750
  20676419.820   -11770076.119 7  -9171482.24523        27.250           2.875
  22216358.594    -9504275.492 6  -4618855.46621        17.000           0.469
 91  6 24 19 19 30.0000000  0  4G15G 6G 2G13
  23597592.594    -2942315.033 6  -2251697.25221        13.500           0.719
  20421707.797      -91884.461 7                        20.750
  20678943.391   -11756799.133 7  -9161136.54523        26.250           2.938
  22206725.016    -9554904.984 6  -4658306.99721        17.750           0.406
 91  6 24 19 19 45.0000000  0  4G15G 6G 2G13
  23597065.586    -2945078.401 6  -2253850.52621        14.000           0.656
  20421781.078      -91499.404 7    -61453.97622        20.500           2.094
  20681485.102   -11743452.815 7  -9150736.82723        26.500           2.906
  22197108.773    -9605443.280 6  -4697687.45821        18.250           0.438
 91  6 24 19 20  0.0000000  0  4G15G 6G 2G13
  23596570.016    -2947696.770 6  -2255890.82721        15.000           0.813
  20421872.414      -91006.026 7    -61069.52822        20.250           2.063
  20684037.039   -11730037.556 7  -9140283.38723        26.000           2.875
  22187504.875    -9655890.675 6  -4736997.09921        17.500           0.500
 91  6 24 19 20 15.0000000  0  4G15G 6G 2G13
  23596095.836    -2950172.659 6  -2257820.09121        14.500           0.844
  20421988.258      -90406.773 7    -60602.57722        20.750           2.000
  20686603.633   -11716556.077 7  -9129778.34623        26.000           2.938
  22177925.508    -9706249.292 6  -4776237.54621        18.000           0.500
 91  6 24 19 20 30.0000000  0  4G15G 6G 2G13
  23595654.352    -2952502.050 6  -2259635.20321        14.000           0.719
  20422124.102      -89697.613 7    -60049.98322        20.750           1.969
  20689182.391   -11703004.705 7  -9119218.83723        25.750           3.031
  22168358.289    -9756514.920 6  -4815405.55421        17.250           0.469
 91  6 24 19 20 45.0000000  0  4G15G 6G 2G13
  23595242.234    -2954685.048 6  -2261336.26021        13.500           0.750
  20422278.969      -88878.655 7    -59411.83122        20.500           2.031
  20691772.969   -11689383.775 7  -9108605.13423        26.000           2.969
  22158810.773    -9806687.572 6  -4854501.07521        17.250           0.469
 91  6 24 19 21  0.0000000  0  4G15G 6G 2G13
  23594845.703    -2956729.356 6  -2262929.23921        13.250           0.688
  20422453.883      -87957.418 7    -58693.99122        20.250           1.969
  20694377.859   -11675701.023 7  -9097943.25323        25.750           2.938
  22149284.852    -9856774.451 6  -4893529.79221        17.500           0.531
 91  6 24 19 21 15.0000000  0  3G15G 2G13
  23594490.484    -2958631.822 6  -2264411.68721        14.250           0.781
  20696992.453   -11661953.532 7  -9087230.93123        25.500           2.938
  22139763.656    -9906772.311 6  -4932489.12221        16.250           0.563
 91  6 24 19 21 30.0000000  0  3G15G 2G13
  23594150.078    -2960387.795 6  -2265779.98321        13.250           0.750
  20699624.703   -11648136.420 7  -9076464.35323        25.750           2.875
  22130267.594    -9956676.185 6  -4971375.22521        17.000           0.500
 91  6 24 19 21 45.0000000  0  3G15G 2G13
  23593844.086    -2961997.919 6  -2267034.62121        13.500           0.750
  20702265.773   -11634250.629 7  -9065644.26523        25.750           2.844
  22120791.070   -10006486.557 6  -5010188.46821        17.250           0.563
 91  6 24 19 22  0.0000000  0  3G15G 2G13
  23593564.078    -2963464.627 6  -2268177.51421        13.500           0.719
  20704921.016   -11620298.790 7  -9054772.70723        25.750           2.813
  22111325.695   -10056205.520 6  -5048930.48521        16.750           0.531
 91  6 24 19 22 15.0000000  0  3G15G 2G13
  23593315.523    -2964785.625 6  -2269206.87121        14.250           0.688
  20707588.484   -11606278.989 7  -9043848.19123        25.750           2.906
  22101888.109   -10105830.744 6  -5087599.46921        17.250           0.563
 91  6 24 19 22 30.0000000  0  3G15G 2G13
  23593092.719    -2965965.435 6  -2270126.22121        14.500           0.625
  20710268.352   -11592195.672 7  -9032874.18823        25.750           2.844
  22092458.125   -10155366.355 6  -5126198.61821        16.750           0.656
 91  6 24 19 22 45.0000000  0  3G15G 2G13
  23592891.297    -2967002.409 6  -2270934.25621        13.750           0.656
  20712960.992   -11578047.204 7  -9021849.40623        26.000           2.938
  22083048.219   -10204810.445 6  -5164726.44921        16.500           0.563
 91  6 24 19 23  0.0000000  0  3G15G 2G13
  23592721.859    -2967897.027 6  -2271631.36021        13.500           0.594
  20715664.992   -11563834.197 7  -9010774.34623        26.000           2.906
  22073659.133   -10254163.309 6  -5203183.18421        17.500           0.594
 91  6 24 19 23 15.0000000  0  3G15G 2G13
  23592583.438    -2968644.963 6  -2272214.19321        13.000           0.594
  20718383.820   -11549552.494 7  -8999645.75423        26.750           2.906
  22064281.539   -10303420.249 6  -5241565.19321        17.000           0.531
 91  6 24 19 23 30.0000000  0  4G15G 6G 2G13
  23592463.258    -2969247.112 6  -2272683.38321        12.000           0.594
  20425338.141          -0.68717                        21.750
  20721112.469   -11535202.998 7  -8988464.33323        25.750           2.938
  22054931.203   -10352581.744 6  -5279872.81221        17.750           0.563
 91  6 24 19 23 45.0000000  0  4G15G 6G 2G13
  23592377.219    -2969709.279 6  -2273043.52821        13.250           0.781
  20425739.617        2106.384 7                        21.500
  20723856.617   -11520791.831 7  -8977234.86023        26.000           2.844
  22045591.445   -10401653.769 6  -5318110.73821        17.750           0.625
 91  6 24 19 24  0.0000000  0  4G15G 6G 2G13
  23592316.789    -2970029.667 6  -2273293.16921        13.000           0.719
  20426159.734        4319.677 7        -0.28232        21.500           1.875
  20726609.766   -11506317.328 7  -8965956.02723        26.250           2.969
  22036274.750   -10450634.150 6  -5356277.23421        18.000           0.563
 91  6 24 19 24 15.0000000  0  4G15G 6G 2G13
  23592284.188    -2970208.422 6                        14.000
  20426603.047        6639.140 7      1807.08522        21.750           1.938
  20729375.617   -11491779.753 7  -8954628.05823        25.750           2.938
  22026967.039   -10499522.916 6  -5394372.35521        17.250           0.500
 91  6 24 19 24 30.0000000  0  4G15G 6G 2G13
  23592272.547    -2970242.183 6                        13.250
  20427064.539        9067.945 7      3699.66522        21.250           2.000
  20732161.008   -11477175.809 7  -8943248.36623        26.750           3.000
  22017684.102   -10548316.616 6  -5432393.37921        17.500           0.563
 91  6 24 19 24 45.0000000  0  4G15G 6G 2G13
  23592298.375    -2970127.229 6                        12.750
  20427547.945       11610.122 7      5680.57522        21.750           2.063
  20734947.297   -11462501.890 7  -8931814.15023        25.750           3.125
  22008416.383   -10597011.021 6  -5470337.05121        17.750           0.625
 91  6 24 19 25  0.0000000  0  4G15G 6G 2G13
  23592348.414    -2969870.828 6                        13.750
  20428050.641       14258.348 7      7744.13122        21.250           2.094
  20737752.477   -11447765.321 7  -8920331.11623        26.500           3.031
  21999165.266   -10645613.201 6  -5508208.85121        18.000           0.469
 91  6 24 19 25 15.0000000  0  4G15G 6G 2G13
  23592429.445    -2969468.277 6                        13.250
  20428578.711       17017.492 7      9894.10722        22.000           2.219
  20740568.484   -11432961.606 7  -8908795.75723        26.250           2.938
  21989938.469   -10694118.115 6  -5546004.86421        18.000           0.500
 91  6 24 19 25 30.0000000  0  4G15G 6G 2G13
  23592529.195    -2968918.454 6  -2272427.34621        14.000           0.500
  20429125.797       19888.661 7     12131.37522        21.750           2.094
  20743398.906   -11418089.792 7  -8897207.33623        26.750           3.000
  21980727.047   -10742524.689 6  -5583724.24121        17.250           0.469
 91  6 24 19 25 45.0000000  0  4G15G 6G 2G13
  23592662.594    -2968228.206 6  -2271889.49121        13.750           0.563
  20429689.102       22865.259 7     14450.79822        21.000           2.094
  20746241.648   -11403156.766 7  -8885571.21923        27.000           3.031
  21971529.594   -10790839.220 6  -5621371.90421        17.000           0.625
 91  6 24 19 26  0.0000000  0  4G15G 6G 2G13
  23592817.414    -2967393.663 6  -2271239.19921        13.000           0.500
  20430273.242       25951.054 7     16855.31022        20.250           2.281
  20749095.719   -11388158.987 7  -8873884.64223        27.000           3.031
  21962359.125   -10839057.547 6  -5658944.58821        17.750           0.594
 91  6 24 19 26 15.0000000  0  4G15G 6G 2G13
  23593005.133    -2966417.657 6  -2270478.67821        13.000           0.594
  20430884.094       29143.418 7     19342.85722        20.500           2.094
  20751960.156   -11373099.216 7  -8862149.75523        26.500           3.094
  21953199.820   -10887182.165 6  -5696444.25221        18.250           0.656
 91  6 24 19 26 30.0000000  0  4G15G 6G 2G13
  23593215.641    -2965298.091 6  -2269606.31221        13.250           0.719
  20431512.141       32444.622 7     21915.22122        20.250           2.156
  20754836.930   -11357975.203 7  -8850364.82023        26.000           3.094
  21944060.781   -10935210.845 6  -5733869.16721        18.500           0.625
 91  6 24 19 26 45.0000000  0  4G15G 6G 2G13
  23593457.703    -2964035.744 6  -2268622.67921        13.750           0.813
  20432159.508       35853.695 7     24571.63922        20.000           2.344
  20757729.297   -11342788.071 7  -8838530.69923        26.500           3.156
  21934941.969   -10983144.362 6  -5771219.92921        18.750           0.625
 91  6 24 19 27  0.0000000  0  4G15G 6G 2G13
  23593724.641    -2962631.925 6  -2267528.80821        13.250           0.656
  20432827.211       39369.633 6     27311.32322        19.500           2.344
  20760631.586   -11327539.217 7  -8826648.48123        27.000           3.094
  21925834.758   -11030983.571 6  -5808497.20821        18.000           0.563
 91  6 24 19 27 15.0000000  0  4G15G 6G 2G13
  23594019.281    -2961083.743 6  -2266322.43421        12.750           0.813
  20433520.055       42995.517 7     30136.68322        20.000           2.406
  20763546.039   -11312225.628 7  -8814715.82323        27.250           3.188
  21916750.586   -11078725.120 6  -5845698.37621        18.000           0.594
 91  6 24 19 27 30.0000000  0  4G15G 6G 2G13
  23594339.039    -2959392.548 6  -2265004.63421        12.500           0.656
  20434230.039       46729.795 6     33046.50922        19.750           2.250
  20766469.922   -11296849.205 7  -8802734.20223        27.000           3.250
  21907684.547   -11126370.481 6  -5882824.60221        18.750           0.656
 91  6 24 19 27 45.0000000  0  4G15G 6G 2G13
  23594691.922    -2957555.179 6  -2263572.91021        12.750           0.844
  20434963.844       50575.675 7     36043.29422        20.000           2.281
  20769410.852   -11281406.924 7  -8790701.26423        27.250           3.281
  21898636.242   -11173916.065 6  -5919873.08921        18.750           0.625
 91  6 24 19 28  0.0000000  0  4G15G 6G 2G13
  23595064.305    -2955574.711 6  -2262029.68721        12.250           0.781
  20435716.234       54530.191 7     39124.73522        20.000           2.250
  20772360.688   -11265901.701 7  -8778619.27923        27.250           3.219
  21889604.898   -11221364.810 6  -5956846.10221        18.250           0.594
 91  6 24 19 28 15.0000000  0  4G15G 6G 2G13
  23595475.336    -2953449.391 6  -2260373.61521        13.250           0.656
  20436490.078       58595.478 7     42292.48522        20.250           2.281
  20775324.141   -11250331.692 7  -8766486.81823        27.000           3.344
  21880596.250   -11268714.534 6  -5993741.96621        18.250           0.656
 91  6 24 19 28 30.0000000  0  4G15G 6G 2G13
  23595908.844    -2951182.249 6  -2258607.03321        12.500           0.781
  20437282.688       62768.526 7     45544.21122        20.000           2.250
  20778297.953   -11234700.186 7  -8754306.42523        27.250           3.156
  21871603.438   -11315967.967 6  -6030562.78921        18.250           0.656
 91  6 24 19 28 45.0000000  0  4G15G 6G 2G13
  23596360.102    -2948773.505 5  -2256730.07421        11.500           0.688
  20438097.602       67049.075 6     48879.70222        19.750           2.344
  20781285.578   -11219007.665 7  -8742078.49523        27.750           3.156
  21862629.461   -11363125.325 6  -6067308.75121        18.750           0.719
 91  6 24 19 29  0.0000000  0  4G15G 6G 2G13
  23596847.117    -2946224.951 6  -2254744.18921        12.500           0.656
  20438933.648       71435.416 7     52297.62522        20.250           2.250
  20784281.578   -11203256.001 7  -8729804.47323        27.250           3.156
  21853674.289   -11410187.988 6  -6103980.92821        19.250           0.719
 91  6 24 19 29 15.0000000  0  4G15G 6G 2G13
  23597360.156    -2943532.094 6  -2252645.86121        12.000           0.563
  20439786.242       75932.411 7     55801.77422        20.250           2.344
  20787292.188   -11187440.436 7  -8717480.66223        27.500           3.156
  21844737.227   -11457151.005 6  -6140575.45521        19.250           0.594
 91  6 24 19 29 30.0000000  0  4G15G 6G 2G13
  23597896.828    -2940698.572 6  -2250437.94921        12.250           0.625
  20440664.641       80536.405 7     59389.30822        20.750           2.250
  20790309.508   -11171564.757 7  -8705110.01123        26.750           3.219
  21835821.250   -11504017.759 6  -6177094.97321        19.750           0.563
 91  6 24 19 29 45.0000000  0  4G15G 6G 2G13
  23598464.945    -2937724.075 6  -2248120.16121        12.000           0.750
  20441559.656       85247.835 7     63060.54222        20.750           2.219
  20793344.141   -11155628.618 7  -8692692.24523        27.000           3.031
  21826917.000   -11550787.712 6  -6213539.07321        19.000           0.781
 91  6 24 19 30  0.0000000  0  4G15G 6G 2G13
  23599059.820    -2934605.072 6  -2245689.77721        12.250           0.656
  20442477.945       90070.214 7     66818.23222        20.500           2.188
  20796389.258   -11139628.662 7  -8680224.75923        27.750           3.000
  21818036.906   -11597457.235 6  -6249904.90321        18.750           0.719
 91  6 24 19 30 15.0000000  0  4G15G 6G 2G13
  23599679.523    -2931337.071 6  -2243143.28621        12.250           0.656
  20443417.664       95008.058 7     70665.90222        20.500           2.188
  20799446.797   -11123560.779 8  -8667704.33723        28.000           3.063
  21809177.047   -11644021.677 6  -6286188.85821        18.750           0.750
 91  6 24 19 30 30.0000000  0  4G15G 6G 2G13
  23600333.109    -2927924.510 6  -2240484.15821        12.500           0.594
  20444377.383      100056.772 7     74599.96422        20.500           2.219
  20802516.805   -11107429.653 8  -8655134.63223        28.000           3.156
  21800333.359   -11690485.339 6  -6322394.27621        18.500           0.813
 91  6 24 19 30 45.0000000  0  4G15G 6G 2G13
  23600999.180    -2924373.246 5  -2237716.93821        11.000           0.625
  20445357.625      105210.930 7     78616.18822        20.750           2.188
  20805594.117   -11091241.008 7  -8642520.11123        27.500           3.125
  21791513.016   -11736853.612 6  -6358525.37321        19.250           0.750
